[[{"header":{"parameterUnit":"m.s-1","parameterCategory":1,"la1":30.6,"la2":28.766,"lo1":-90.7593,"lo2":-88.6598,"dy":0.0162,"dx":0.0183,"nx":116,"ny":114,"refTime":"2023-09-22T00:00:00:Z","depth":0,"parameterNumber":2,"parameterNumberName":"U-component_of_WINDS"},"data":[0.0,0.0,0.0,0.0,0.0,0.0,0.0,0.0,0.0,0.0,0.0,0.0,0.0,0.0,0.0,0.0,0.0,0.0,0.0,0.0,0.0,0.0,0.0,0.0,0.0,0.0,0.0,0.0,0.0,0.0,0.0,0.0,0.0,0.0,0.0,0.0,0.0,0.0,0.0,0.0,0.0,0.0,0.0,0.0,0.0,0.0,0.0,0.0,0.0,0.0,0.0,0.0,0.0,0.0,0.0,0.0,0.0,0.0,0.0,0.0,0.0,0.0,0.0,0.0,0.0,0.0,0.0,0.0,0.0,0.0,0.0,0.0,0.0,0.0,0.0,0.0,0.0,0.0,0.0,0.0,0.0,0.0,0.0,0.0,0.0,0.0,0.0,0.0,0.0,0.0,0.0,0.0,0.0,0.0,0.0,0.0,0.0,0.0,0.0,0.0,0.0,0.0,0.0,0.0,0.0,0.0,0.0,0.0,0.0,0.0,0.0,0.0,0.0,0.0,0.0,0.0,0.0,0.0,0.0,0.0,0.0,0.0,0.0,0.0,0.0,0.0,0.0,0.0,0.0,0.0,0.0,0.0,0.0,0.0,0.0,0.0,0.0,0.0,0.0,0.0,0.0,0.0,0.0,0.0,0.0,0.0,0.0,0.0,0.0,0.0,0.0,0.0,0.0,0.0,0.0,0.0,0.0,0.0,0.0,0.0,0.0,0.0,0.0,0.0,0.0,0.0,0.0,0.0,0.0,0.0,0.0,0.0,0.0,0.0,0.0,0.0,0.0,0.0,0.0,0.0,0.0,0.0,0.0,0.0,0.0,0.0,0.0,0.0,0.0,0.0,0.0,0.0,0.0,0.0,0.0,0.0,0.0,0.0,0.0,0.0,0.0,0.0,0.0,0.0,0.0,0.0,0.0,0.0,0.0,0.0,0.0,0.0,0.0,0.0,0.0,0.0,0.0,0.0,0.0,0.0,0.0,0.0,0.0,0.0,0.0,0.0,0.0,0.0,0.0,0.0,0.0,0.0,0.0,0.0,0.0,0.0,0.0,0.0,0.0,0.0,0.0,0.0,0.0,0.0,0.0,0.0,0.0,0.0,0.0,0.0,0.0,0.0,0.0,0.0,0.0,0.0,0.0,0.0,0.0,0.0,0.0,0.0,0.0,0.0,0.0,0.0,0.0,0.0,0.0,0.0,0.0,0.0,0.0,0.0,0.0,0.0,0.0,0.0,0.0,0.0,0.0,0.0,0.0,0.0,0.0,0.0,0.0,0.0,0.0,0.0,0.0,0.0,0.0,0.0,0.0,0.0,0.0,0.0,0.0,0.0,0.0,0.0,0.0,0.0,0.0,0.0,0.0,0.0,0.0,0.0,0.0,0.0,0.0,0.0,0.0,0.0,0.0,0.0,0.0,0.0,0.0,0.0,0.0,0.0,0.0,0.0,0.0,0.0,0.0,0.0,0.0,0.0,0.0,0.0,0.0,0.0,0.0,0.0,0.0,0.0,0.0,0.0,0.0,0.0,0.0,0.0,0.0,0.0,0.0,0.0,0.0,0.0,0.0,0.0,0.0,0.0,0.0,0.0,0.0,0.0,0.0,0.0,0.0,0.0,0.0,0.0,0.0,0.0,0.0,0.0,0.0,0.0,0.0,0.0,0.0,0.0,0.0,0.0,0.0,0.0,0.0,0.0,0.0,0.0,0.0,0.0,0.0,0.0,0.0,0.0,0.0,0.0,0.0,0.0,0.0,0.0,0.0,0.0,0.0,0.0,0.0,0.0,0.0,0.0,0.0,0.0,0.0,0.0,0.0,0.0,0.0,0.0,0.0,0.0,0.0,0.0,0.0,0.0,0.0,0.0,0.0,0.0,0.0,0.0,0.0,0.0,0.0,0.0,0.0,0.0,0.0,0.0,0.0,0.0,0.0,0.0,0.0,0.0,0.0,0.0,0.0,0.0,0.0,0.0,0.0,0.0,0.0,0.0,0.0,0.0,0.0,0.0,0.0,0.0,0.0,0.0,0.0,0.0,0.0,0.0,0.0,0.0,0.0,0.0,0.0,0.0,0.0,0.0,0.0,0.0,0.0,0.0,0.0,0.0,0.0,0.0,0.0,0.0,0.0,0.0,0.0,0.0,0.0,0.0,0.0,0.0,0.0,0.0,0.0,0.0,0.0,0.0,0.0,0.0,0.0,0.0,0.0,0.0,0.0,0.0,0.0,0.0,0.0,0.0,0.0,0.0,0.0,0.0,0.0,0.0,0.0,0.0,0.0,0.0,0.0,0.0,0.0,0.0,0.0,0.0,0.0,0.0,0.0,0.0,0.0,0.0,0.0,0.0,0.0,0.0,0.0,0.0,0.0,0.0,0.0,0.0,0.0,0.0,0.0,0.0,0.0,0.0,0.0,0.0,0.0,0.0,0.0,0.0,0.0,0.0,0.0,0.0,0.0,0.0,0.0,0.0,0.0,0.0,0.0,0.0,0.0,0.0,0.0,0.0,0.0,0.0,0.0,0.0,0.0,0.0,0.0,0.0,0.0,0.0,0.0,0.0,0.0,0.0,0.0,0.0,0.0,0.0,0.0,0.0,0.0,0.0,0.0,0.0,0.0,0.0,0.0,0.0,0.0,0.0,0.0,0.0,0.0,0.0,0.0,0.0,0.0,0.0,0.0,0.0,0.0,0.0,0.0,0.0,0.0,0.0,0.0,0.0,0.0,0.0,0.0,0.0,0.0,0.0,0.0,0.0,0.0,0.0,0.0,0.0,0.0,0.0,0.0,0.0,0.0,0.0,0.0,0.0,0.0,0.0,0.0,0.0,0.0,0.0,0.0,0.0,0.0,0.0,0.0,0.0,0.0,0.0,0.0,0.0,0.0,0.0,0.0,0.0,0.0,0.0,0.0,0.0,0.0,0.0,0.0,0.0,0.0,0.0,0.0,0.0,0.0,0.0,0.0,0.0,0.0,0.0,0.0,0.0,0.0,0.0,0.0,0.0,0.0,0.0,0.0,0.0,0.0,0.0,0.0,0.0,0.0,0.0,0.0,0.0,0.0,0.0,0.0,0.0,0.0,0.0,0.0,0.0,0.0,0.0,0.0,0.0,0.0,0.0,0.0,0.0,0.0,0.0,0.0,0.0,0.0,0.0,0.0,0.0,0.0,0.0,0.0,0.0,0.0,0.0,0.0,0.0,0.0,0.0,0.0,0.0,0.0,0.0,0.0,0.0,0.0,0.0,0.0,0.0,0.0,0.0,0.0,0.0,0.0,0.0,0.0,0.0,0.0,0.0,0.0,0.0,0.0,0.0,0.0,0.0,0.0,0.0,0.0,0.0,0.0,0.0,0.0,0.0,0.0,0.0,0.0,0.0,0.0,0.0,0.0,0.0,0.0,0.0,0.0,0.0,0.0,0.0,0.0,0.0,0.0,0.0,0.0,0.0,0.0,0.0,0.0,0.0,0.0,0.0,0.0,0.0,0.0,0.0,0.0,0.0,0.0,0.0,0.0,0.0,0.0,0.0,0.0,0.0,0.0,0.0,0.0,0.0,0.0,0.0,0.0,0.0,0.0,0.0,0.0,0.0,0.0,0.0,0.0,0.0,0.0,0.0,0.0,0.0,0.0,0.0,0.0,0.0,0.0,0.0,0.0,0.0,0.0,0.0,0.0,0.0,0.0,0.0,0.0,0.0,0.0,0.0,0.0,0.0,0.0,0.0,0.0,0.0,0.0,0.0,0.0,0.0,0.0,0.0,0.0,0.0,0.0,0.0,0.0,0.0,0.0,0.0,0.0,0.0,0.0,0.0,0.0,0.0,0.0,0.0,0.0,0.0,0.0,0.0,0.0,0.0,0.0,0.0,0.0,0.0,0.0,0.0,0.0,0.0,0.0,0.0,0.0,0.0,0.0,0.0,0.0,0.0,0.0,0.0,0.0,0.0,0.0,0.0,0.0,0.0,0.0,0.0,0.0,0.0,0.0,0.0,0.0,0.0,0.0,0.0,0.0,0.0,0.0,0.0,0.0,0.0,0.0,0.0,0.0,0.0,0.0,0.0,0.0,0.0,0.0,0.0,0.0,0.0,0.0,0.0,0.0,0.0,0.0,0.0,0.0,0.0,0.0,0.0,0.0,0.0,0.0,0.0,0.0,0.0,0.0,0.0,0.0,0.0,0.0,0.0,0.0,0.0,0.0,0.0,0.0,0.0,0.0,0.0,0.0,0.0,0.0,0.0,0.0,0.0,0.0,0.0,0.0,0.0,0.0,0.0,0.0,0.0,0.0,0.0,0.0,0.0,0.0,0.0,0.0,0.0,0.0,0.0,0.0,0.0,0.0,0.0,0.0,0.0,0.0,0.0,0.0,0.0,0.0,0.0,0.0,0.0,0.0,0.0,0.0,0.0,0.0,0.0,0.0,0.0,0.0,0.0,0.0,0.0,0.0,0.0,0.0,0.0,0.0,0.0,0.0,0.0,0.0,0.0,0.0,0.0,0.0,0.0,0.0,0.0,0.0,0.0,0.0,0.0,0.0,0.0,0.0,0.0,0.0,0.0,0.0,0.0,0.0,0.0,0.0,0.0,0.0,0.0,0.0,0.0,0.0,0.0,0.0,0.0,0.0,0.0,0.0,0.0,0.0,0.0,0.0,0.0,0.0,0.0,0.0,0.0,0.0,0.0,0.0,0.0,0.0,0.0,0.0,0.0,0.0,0.0,0.0,0.0,0.0,0.0,0.0,0.0,0.0,0.0,0.0,0.0,0.0,0.0,0.0,0.0,0.0,0.0,0.0,0.0,0.0,0.0,0.0,0.0,0.0,0.0,0.0,0.0,0.0,0.0,0.0,0.0,0.0,0.0,0.0,0.0,0.0,0.0,0.0,0.0,0.0,0.0,0.0,0.0,0.0,0.0,0.0,0.0,0.0,0.0,0.0,0.0,0.0,0.0,0.0,0.0,0.0,0.0,0.0,0.0,0.0,0.0,0.0,0.0,0.0,0.0,0.0,0.0,0.0,0.0,0.0,0.0,0.0,0.0,0.0,0.0,0.0,0.0,0.0,0.0,0.0,0.0,0.0,0.0,0.0,0.0,0.0,0.0,0.0,0.0,0.0,0.0,0.0,0.0,0.0,0.0,0.0,0.0,0.0,0.0,0.0,0.0,0.0,0.0,0.0,0.0,0.0,0.0,0.0,0.0,0.0,0.0,0.0,0.0,0.0,0.0,0.0,0.0,0.0,0.0,0.0,0.0,0.0,0.0,0.0,0.0,0.0,0.0,0.0,0.0,0.0,0.0,0.0,0.0,0.0,0.0,0.0,0.0,0.0,0.0,0.0,0.0,0.0,0.0,0.0,0.0,0.0,0.0,0.0,0.0,0.0,0.0,0.0,0.0,0.0,0.0,0.0,0.0,0.0,0.0,0.0,0.0,0.0,0.0,0.0,0.0,0.0,0.0,0.0,0.0,0.0,0.0,0.0,0.0,0.0,0.0,0.0,0.0,0.0,0.0,0.0,0.0,0.0,0.0,0.0,0.0,0.0,0.0,0.0,0.0,0.0,0.0,0.0,0.0,0.0,0.0,0.0,0.0,0.0,0.0,0.0,0.0,0.0,0.0,0.0,0.0,0.0,0.0,0.0,0.0,0.0,0.0,0.0,0.0,0.0,0.0,0.0,0.0,0.0,0.0,0.0,0.0,0.0,0.0,0.0,0.0,0.0,0.0,0.0,0.0,0.0,0.0,0.0,0.0,0.0,0.0,0.0,0.0,0.0,0.0,0.0,0.0,0.0,0.0,0.0,0.0,0.0,0.0,0.0,0.0,0.0,0.0,0.0,0.0,0.0,0.0,0.0,0.0,0.0,0.0,0.0,0.0,0.0,0.0,0.0,0.0,0.0,0.0,0.0,0.0,0.0,0.0,0.0,0.0,0.0,0.0,0.0,0.0,0.0,0.0,0.0,0.0,0.0,0.0,0.0,0.0,0.0,0.0,0.0,0.0,0.0,0.0,0.0,0.0,0.0,0.0,0.0,0.0,0.0,0.0,0.0,0.0,0.0,0.0,0.0,0.0,0.0,0.0,0.0,0.0,0.0,0.0,0.0,0.0,0.0,0.0,0.0,0.0,0.0,0.0,0.7433,0.709,0.0,0.0,0.0,0.0,0.0,0.0,0.0,0.0,0.0,0.0,0.0,0.0,0.0,0.0,0.0,0.0,0.0,0.0,0.0,0.0,0.0,0.0,0.0,0.0,0.0,0.0,0.0,0.0,0.0,0.0,0.0,0.0,0.0,0.0,0.0,0.0,0.0,0.0,0.024,0.0589,0.0957,0.1375,0.1463,0.1284,0.0,0.0,0.0,0.0,0.0,0.0,0.0,0.0,0.0,0.0,0.0,0.0,0.0,0.0,0.0,0.0,0.0,0.0,0.0,0.0,0.0,0.0,0.0,0.0,0.0,0.0,0.0,0.0,0.0,0.0,0.0,0.0,0.0,0.0,0.0,0.0,0.0,0.0,0.0,0.0,0.0,0.0,0.0,0.0,0.0,0.0,0.0,0.0,0.0,0.0,0.0,0.0,0.0,0.0,0.0,0.0,0.0,0.0,0.0,0.0,0.0,0.0,0.0,0.0,0.0,0.0,0.0,0.0,0.0,0.0,0.8634,0.8339,0.0,0.0,0.0,0.0,0.0,0.0,0.0,0.0,0.0,0.0,0.0,0.0,0.0,0.0,0.0,0.0,0.0,0.0,0.0,0.0,0.0,0.0,0.0,0.0,-0.1938,-0.1638,-0.173,-0.1624,0.0,0.0,0.0,0.0,0.0,0.0,0.0,0.0,0.0,0.0,0.0683,0.1301,0.2057,0.2055,0.2033,0.1949,0.2001,0.0,0.0,0.0,0.0,0.0,0.0,0.0,0.0,0.0,0.0,0.0,0.0,0.0,0.0,0.0,0.0,0.0,0.0,0.0,0.0,0.0,0.0,0.0,0.0,0.0,0.0,0.0,0.0,0.0,0.0,0.0,0.0,0.0,0.0,0.0,0.0,0.0,0.0,0.0,0.0,0.0,0.0,0.0,0.0,0.0,0.0,0.0,0.0,0.0,0.0,0.0,0.0,0.0,0.0,0.0,0.0,0.0,0.0,0.0,0.0,0.0,0.0,0.0,1.2676,1.2419,1.2365,1.2659,1.2545,1.2015,0.9899,0.9757,1.0855,0.9724,0.0,0.0,0.0,0.0,0.0,0.0,0.0,0.0,0.0,0.0,0.0,0.0,0.0,0.0,0.0,0.0,0.0,0.0,0.0,0.0,0.0,-0.0882,-0.1027,-0.0865,-0.0704,-0.0642,0.0,0.0,0.0,0.0,0.0,0.0,0.0,-0.0555,-0.0192,0.0467,0.0764,0.1356,0.2236,0.1786,0.2096,0.297,0.2373,0.2847,0.4067,0.0,0.0,0.0,0.0,0.0,0.0,0.0,0.0,0.0,0.0,0.0,0.0,0.0,0.0,0.0,0.0,0.0,0.0,0.0,0.0,0.0,0.0,0.0,0.0,0.0,0.0,0.0,0.0,0.0,0.0,0.0,0.0,0.0,0.0,0.0,0.0,0.0,0.0,0.0,0.0,0.0,1.0497,1.0676,0.0,0.0,0.0,0.0,0.0,0.0,0.0,0.0,0.0,0.0,0.0,0.0,0.0,1.3192,1.4287,1.4292,1.4072,1.3626,1.4736,1.4511,1.3109,1.3951,1.3829,1.3,1.222,0.0,1.178,1.099,0.0,0.0,0.0,0.0,0.0,0.0,0.0,0.0,0.0,0.0,0.0,0.0,0.0,0.0,0.0,0.0,0.0,0.0,0.0,0.0,0.0,-0.1164,-0.0942,-0.0925,-0.0442,-0.0175,-0.0318,-0.0151,0.0,0.0,0.0,0.0,-0.0311,-0.0093,0.0204,0.0618,0.1133,0.1556,0.1909,0.2071,0.2394,0.2934,0.2803,0.3018,0.3502,0.3045,0.0,0.0,0.0,0.0,0.0,0.0,0.0,0.0,0.0,0.0,0.0,0.0,0.0,0.0,0.0,0.0,0.0,0.0,0.0,0.0,0.0,0.0,0.0,0.0,0.0,0.0,0.0,0.0,0.0,0.0,0.0,0.0,0.0,0.0,0.0,0.0,0.0,0.0,0.0,1.1032,1.1743,1.1606,1.2223,1.2432,0.0,0.0,0.0,0.0,0.0,0.0,0.0,0.0,0.0,1.4563,1.4543,1.4929,1.5853,1.5959,1.5811,1.5396,1.5432,1.4775,1.3564,1.3573,1.3089,1.2262,1.17,1.1158,1.0684,1.0813,0.9771,0.8167,0.0,0.0,0.0,0.0,0.5914,0.5614,0.0,0.0,0.0,0.0,0.0,0.0,0.0,0.0,0.0,0.0,0.0,0.0,-0.1641,-0.1117,-0.07,-0.0563,-0.0084,0.0193,0.0177,0.0463,0.0,0.0,0.0,0.0136,0.0109,0.0307,0.0521,0.073,0.124,0.1577,0.173,0.2159,0.2498,0.2808,0.3015,0.3134,0.321,0.33,0.3138,0.2864,0.0,0.0,0.0,0.0,0.0,0.0,0.0,0.0,0.0,0.0,0.0,0.0,0.0,0.0,0.0,0.0,0.0,0.0,0.0,0.0,0.0,0.0,0.0,0.0,0.0,0.0,0.0,0.0,0.0,0.0,0.0,0.0,0.0,0.0,0.0,0.0,0.0,1.199,1.2793,1.2549,1.3332,1.357,0.0,0.0,0.0,0.0,0.0,0.0,1.3932,1.3417,1.4003,1.5921,1.6059,1.6435,1.7222,1.6838,1.6515,1.62,1.5036,1.4122,1.3284,1.275,1.1955,1.1126,1.0693,1.0033,0.9183,0.9896,0.9187,0.7704,0.7761,0.7164,0.6269,0.6548,0.6543,0.637,0.0,0.0,0.0,0.0,0.0,0.0,0.0,0.0,0.0,0.0,0.0,-0.0678,-0.0,-0.0056,0.0156,0.0925,0.0664,0.0626,0.0923,0.0788,0.069,0.0666,0.0059,-0.0074,0.0372,0.0208,0.0346,0.0807,0.066,0.1073,0.2093,0.1836,0.2181,0.2959,0.2775,0.3403,0.4569,0.3929,0.3932,0.4348,0.3644,0.0,0.0,0.0,0.0,0.0,0.0,0.0,0.0,0.0,0.0,0.0,0.0,0.0,0.0,0.0,0.0,0.0,0.0,0.0,0.0,0.0,0.0,0.0,0.0,0.0,0.0,0.0,0.0,0.0,0.0,0.0,0.0,0.0,0.0,0.0,0.0,0.0,0.0,1.363,1.4214,0.0,0.0,0.0,0.0,1.3761,1.4641,1.5285,1.5581,1.5703,1.6503,1.7897,1.7376,1.7446,1.8407,1.6569,1.542,1.4858,1.3635,1.2544,1.1587,1.1593,1.0971,1.0023,0.9989,0.9185,0.7736,0.8325,0.7931,0.6996,0.6371,0.6276,0.6443,0.5504,0.5682,0.625,0.0,0.0,0.0,0.0,0.0,0.0,0.0,0.0,-0.0537,-0.0672,-0.0582,-0.0454,-0.0338,-0.0186,0.0135,0.0738,0.0715,0.0782,0.0997,0.1333,0.1104,0.0153,0.0525,0.0655,0.0451,0.0252,0.0195,0.0274,0.078,0.1206,0.1631,0.1648,0.1854,0.2318,0.2743,0.3137,0.361,0.3971,0.4213,0.4347,0.3829,0.3709,0.0,0.0,0.0,0.0,0.0,0.0,0.0,0.0,0.0,0.0,0.0,0.0,0.0,0.0,0.0,0.0,0.0,0.0,0.0,0.0,0.0,0.0,0.0,0.0,0.0,0.0,0.0,0.0,0.0,0.0,0.0,0.0,0.0,0.0,0.0,0.0,0.0,1.4232,1.5254,0.0,1.5441,1.5638,1.5969,1.6427,1.6373,1.6801,1.7714,1.736,1.7706,1.8934,1.8171,1.7794,1.8126,1.6461,1.514,1.4234,1.2765,1.1346,1.0064,0.9567,0.8656,0.7409,0.7188,0.6508,0.5584,0.5725,0.6122,0.6601,0.5603,0.5055,0.4803,0.4363,0.4201,0.4033,0.0,0.0,0.0,0.0,0.0,0.0,0.0,0.0,-0.0404,-0.0431,-0.0223,-0.0216,-0.0608,-0.0279,0.0113,0.0489,0.0624,0.0783,0.1024,0.1213,0.098,0.0242,0.0674,0.0656,0.0043,0.0096,0.0054,-0.006,0.0637,0.1124,0.1277,0.1547,0.1817,0.2018,0.2621,0.3023,0.3213,0.3971,0.4321,0.4358,0.4344,0.4526,0.4723,0.0,0.0,0.0,0.0,0.0,0.0,0.0,0.0,0.0,0.0,0.0,0.0,0.0,0.0,0.0,0.0,0.0,0.0,0.0,0.0,0.0,0.0,0.0,0.0,0.0,0.0,0.0,0.0,0.0,0.0,0.0,0.0,0.0,0.0,1.4277,1.5223,1.5317,1.6411,1.7167,1.7236,1.7406,1.7678,1.8221,1.791,1.8045,1.8889,1.8275,1.8253,1.8966,1.7841,1.7052,1.6674,1.501,1.3557,1.2364,1.0767,0.9299,0.8062,0.7261,0.6408,0.5483,0.5391,0.4947,0.4284,0.4297,0.4772,0.5441,0.4216,0.3865,0.4055,0.3572,0.379,0.3926,0.0,0.0,0.0,0.0,0.0,0.0,0.0,-0.0109,0.0127,0.0462,0.0437,0.0097,-0.0577,-0.0199,0.0171,0.0403,0.0476,0.0686,0.1069,0.0377,0.0242,0.0948,0.0441,-0.0197,-0.0904,-0.0367,-0.0116,-0.0124,0.0262,0.0673,0.1143,0.1614,0.1951,0.2154,0.2554,0.2958,0.3502,0.4028,0.4352,0.4524,0.5093,0.5345,0.5387,0.0,0.0,0.0,0.0,0.0,0.0,0.0,0.0,0.0,0.0,0.0,0.0,0.0,0.0,0.0,0.0,0.0,0.0,0.0,0.0,0.0,0.0,0.0,0.0,0.0,0.0,0.0,0.0,0.0,0.0,0.0,0.0,0.0,1.3126,1.472,1.6392,1.6997,1.7668,1.8311,1.8784,1.9282,1.9333,1.8963,1.9154,1.919,1.8969,1.8378,1.7979,1.785,1.6396,1.5148,1.424,1.2216,1.0526,0.92,0.7731,0.6602,0.5552,0.5008,0.4565,0.4302,0.4835,0.4565,0.3764,0.4039,0.3864,0.331,0.2228,0.2899,0.4167,0.2951,0.432,0.5741,0.0,0.0,0.0,0.0,0.0,0.0,0.0,0.0372,0.0324,0.0414,0.0027,-0.0129,0.0144,0.004,0.0086,0.0446,0.0798,0.0918,0.0729,0.0841,0.0765,0.0422,-0.0743,-0.1216,-0.0847,-0.0346,-0.0061,0.0064,0.0793,0.1144,0.1078,0.1615,0.1681,0.1412,0.2153,0.2381,0.2218,0.2906,0.3223,0.3491,0.4655,0.5139,0.5178,0.0,0.0,0.0,0.0,0.0,0.0,0.0,0.0,0.0,0.0,0.0,0.0,0.0,0.0,0.0,0.0,0.0,0.0,0.0,0.0,0.0,0.0,0.0,0.0,0.0,0.0,0.0,0.0,0.0,0.0,0.0,1.6056,1.7067,1.5542,1.6382,1.7441,1.8245,1.8642,1.9029,1.9601,1.9717,1.9726,1.9621,1.9669,1.9359,1.8581,1.7838,1.725,1.6573,1.488,1.3424,1.238,1.0459,0.9222,0.8645,0.7187,0.5445,0.3642,0.4538,0.4066,0.2566,0.325,0.2439,0.0549,0.0916,0.0555,-0.0186,0.0626,0.0618,0.0266,0.0621,0.0617,-0.0,0.0,0.0,0.0,0.0,0.0,0.0,0.0,0.0433,0.0402,0.0069,-0.0028,-0.01,-0.0149,-0.0164,0.0044,0.0447,0.0493,0.0525,0.0576,0.0533,0.0189,-0.0621,-0.1229,-0.1112,-0.0,-0.0123,0.0064,0.0526,0.0935,0.1078,0.108,0.1363,0.1564,0.1549,0.1928,0.2024,0.1965,0.2338,0.2704,0.2974,0.3992,0.4677,0.5128,0.5105,0.5319,0.5544,0.5586,0.5919,0.6325,0.6194,0.0,0.0,0.0,0.0,0.0,0.0,0.0,0.0,0.0,0.0,0.0,0.0,0.0,0.0,0.0,0.0,0.0,0.0,0.0,0.0,0.0,0.0,0.0,0.0,1.7006,1.8283,1.8176,1.854,1.8872,1.9151,1.9554,2.0052,2.0444,2.011,1.9756,1.9502,1.9018,1.8115,1.6863,1.5927,1.4821,1.3541,1.1962,1.0393,0.8986,0.7337,0.6268,0.5673,0.4418,0.3063,0.1709,0.232,0.1942,0.0935,0.1109,0.037,-0.1029,-0.206,-0.2356,-0.2086,0.0,0.0,0.0,0.0,-0.231,-0.3167,0.0,0.0,0.0,0.0,0.0,0.0,0.0,0.0201,0.0337,-0.0417,-0.0,0.0035,-0.0933,-0.0596,-0.009,0.0407,-0.009,-0.0173,0.0398,-0.0152,-0.0872,-0.1593,-0.1234,-0.0383,0.0929,0.0192,0.0197,0.1079,0.0876,0.0876,0.1147,0.0969,0.1245,0.1897,0.1703,0.1795,0.1984,0.2166,0.2407,0.2774,0.3276,0.4077,0.4979,0.5186,0.5809,0.6625,0.6385,0.663,0.7001,0.6519,0.0,0.0,0.0,0.0,0.0,0.0,0.0,0.0,0.0,0.0,0.0,0.0,0.0,0.0,0.0,0.0,0.0,0.0,0.0,0.0,0.0,0.0,0.0,0.0,1.7989,1.9437,2.0526,2.0635,2.0382,1.9946,2.0371,2.0741,2.0886,2.0138,1.9246,1.8514,1.7365,1.5927,1.413,1.3046,0.0,0.0,0.0,0.6773,0.4938,0.376,0.2604,0.1334,0.057,-0.0,-0.0287,-0.0953,-0.1143,-0.0859,-0.1238,-0.1524,-0.191,-0.45,-0.4496,-0.3045,-0.3168,-0.2956,-0.2856,-0.4064,-0.4574,-0.4752,0.0,0.0,0.0,0.0,0.0,0.0,0.0,0.0062,-0.0112,-0.061,-0.0451,-0.0421,-0.0661,-0.0723,-0.0544,-0.0047,-0.0044,-0.0042,0.0083,-0.037,-0.0663,-0.0667,-0.0939,-0.0653,0.0256,0.0066,0.0334,0.1076,0.1076,0.1211,0.1482,0.0761,0.0279,0.0069,0.1054,0.1225,0.082,0.1688,0.214,0.2256,0.2539,0.3218,0.4207,0.4671,0.5467,0.6369,0.6181,0.6734,0.752,0.7326,0.6817,0.634,0.6858,0.5967,0.0,0.0,0.0,0.0,0.0,0.0,0.0,0.0,0.0,0.0,0.0,0.0,0.0,0.0,0.0,0.0,0.0,0.0,0.0,1.8048,1.9259,2.0131,2.0362,2.0329,2.0492,2.1056,2.0093,1.9381,1.9353,1.8443,1.7106,1.5591,1.5022,1.358,1.0836,1.0348,0.9039,0.6586,0.5292,0.3939,0.2385,0.1563,0.0563,-0.0682,-0.1438,0.0,-0.2992,-0.3287,-0.3268,-0.3217,-0.336,-0.3847,-0.4586,-0.4882,-0.4975,-0.4951,-0.4966,-0.4894,-0.4787,-0.5668,-0.6157,-0.6425,0.0,0.0,0.0,0.0,0.0,0.0,0.0,-0.0119,-0.0201,-0.0461,-0.0717,-0.0733,-0.0434,-0.0662,-0.065,-0.0203,-0.0228,-0.0227,-0.0125,-0.0657,-0.0851,-0.0488,-0.0861,-0.055,0.0593,0.0334,0.0471,0.1076,0.1091,0.1167,0.1167,0.0635,-0.0071,-0.0842,-0.0216,-0.0,0.0074,0.0678,0.122,0.1542,0.2204,0.2881,0.3697,0.4354,0.5212,0.604,0.6474,0.6927,0.737,0.727,0.722,0.7115,0.6826,0.6288,0.5743,0.0,0.0,0.0,0.0,0.0,0.0,0.0,0.0,0.0,0.0,0.0,0.0,0.0,0.0,1.5794,1.6951,0.0,1.7081,1.7881,1.8594,1.9062,1.8922,1.8462,1.8547,1.9558,1.8282,1.7025,1.6498,1.5323,1.3971,1.2439,1.1426,0.9709,0.7121,0.6346,0.4944,0.2657,0.1686,0.0723,-0.028,-0.1121,-0.1908,-0.2483,-0.3313,-0.3922,-0.4334,-0.4604,-0.4592,-0.4474,-0.4724,-0.5027,-0.5567,-0.5862,-0.6415,-0.7021,-0.6816,-0.6236,-0.5705,-0.6739,-0.7037,-0.7126,0.0,0.0,0.0,0.0,0.0,0.0,0.0,-0.0341,-0.0285,-0.0446,-0.0774,-0.0805,-0.0361,-0.0487,-0.0492,-0.0232,-0.0291,-0.0312,-0.0208,-0.0659,-0.0776,-0.0453,-0.0649,-0.0249,0.0942,0.0741,0.074,0.1076,0.1175,0.1118,0.0834,0.0646,-0.0,-0.0983,-0.1179,-0.1043,-0.0515,-0.0077,0.0469,0.1176,0.1998,0.274,0.3415,0.4089,0.4904,0.583,0.6562,0.6841,0.6766,0.6894,0.7146,0.7211,0.6475,0.6365,0.6317,0.5618,0.5256,0.0,0.0,0.0,0.0,0.0,0.0,0.0,0.0,1.3283,1.3848,1.6523,1.6478,1.6122,1.6874,1.6798,1.6715,1.7083,1.7204,1.7159,1.704,1.607,1.5551,1.6157,1.539,1.431,1.3033,1.2126,1.0851,0.9099,0.7465,0.5643,0.3632,0.2576,0.1158,-0.0715,-0.1429,-0.2093,-0.2744,-0.3685,-0.4048,-0.3907,-0.4734,-0.5143,-0.5133,-0.5356,-0.5461,-0.5539,-0.5837,-0.5924,-0.6004,-0.6997,-0.7902,-0.8523,-0.8355,-0.7649,-0.6794,-0.7805,-0.7918,-0.7826,0.0,0.0,0.0,0.0,0.0,0.0,0.0,0.0,-0.0818,-0.1075,-0.0544,-0.0261,-0.0618,-0.0197,-0.0,-0.0187,0.0271,0.03,-0.0251,0.0135,0.0204,-0.0243,0.0063,0.0325,0.0472,0.101,0.1211,0.1076,0.1521,0.1523,0.1082,0.0854,0.0431,-0.0281,-0.0939,-0.1185,-0.1132,0.0076,0.1,0.1803,0.1801,0.2501,0.3431,0.3344,0.4298,0.5691,0.5672,0.5741,0.5852,0.6556,0.6049,0.5295,0.6436,0.5967,0.501,0.5391,0.5119,0.4767,0.5275,0.7028,0.9192,1.1255,1.1383,1.1724,0.0,1.4938,1.4907,1.5888,1.6387,1.6564,1.6256,1.5897,1.5728,1.6409,1.576,1.5184,1.4942,1.3598,1.2082,1.0499,1.1352,1.1352,0.9424,1.0034,0.8926,0.5119,0.3888,0.266,0.116,0.0535,-0.0536,-0.2238,-0.2952,-0.3619,-0.4171,-0.509,-0.5383,-0.4912,-0.5486,-0.593,-0.6234,-0.5824,-0.5922,-0.6631,-0.6936,-0.697,-0.6958,-0.7931,-0.8324,-0.8348,-0.9271,-0.9633,-0.9589,-0.949,-0.951,-0.9763,0.0,0.0,0.0,0.0,0.0,0.0,0.0,0.0,0.0,-0.0696,-0.0424,-0.0187,-0.0082,0.019,0.0524,0.0867,0.0579,0.0516,0.0956,0.0712,0.0652,0.0836,0.068,0.0706,0.0941,0.0875,0.0942,0.1076,0.1729,0.1742,0.1102,0.0987,0.0708,0.028,0.0213,-0.0143,-0.0435,0.0823,0.1218,0.1077,0.2108,0.2433,0.2265,0.2584,0.3304,0.4312,0.4878,0.5142,0.0,0.5762,0.5836,0.5726,0.605,0.6023,0.5838,0.5304,0.5221,0.5535,0.6635,0.7878,0.9349,1.1336,1.1739,1.2233,1.4458,1.4553,1.4659,1.6203,1.5921,1.5365,1.5604,1.4625,1.3751,1.3633,1.3114,1.2319,1.1439,1.0562,0.9151,0.6701,0.6486,0.6265,0.5553,0.5489,0.4435,0.1688,0.1169,0.0272,-0.1184,-0.1821,-0.2639,-0.3826,-0.4591,-0.5358,-0.6089,-0.6467,-0.6596,-0.6547,-0.668,-0.6813,-0.7129,-0.7245,-0.7743,-0.8414,-0.8136,-0.8351,-0.904,-0.9329,-0.9554,-0.9922,-1.0367,-1.0701,-1.084,-1.0932,-1.123,-1.1655,0.0,0.0,0.0,0.0,0.0,0.0,0.0,0.0,0.0,0.0,-0.0299,-0.007,0.0343,0.044,0.0722,0.1316,0.0972,0.0969,0.1568,0.1201,0.1117,0.1483,0.1202,0.1073,0.1195,0.0939,0.0942,0.1143,0.1867,0.1886,0.1317,0.1327,0.1117,0.0624,0.0908,0.077,0.0351,0.1177,0.1505,0.1441,0.2376,0.2239,0.1543,0.2044,0.2573,0.3201,0.404,0.4393,0.4525,0.4823,0.5239,0.5569,0.547,0.585,0.6152,0.5323,0.5526,0.6207,0.716,0.8193,0.9334,1.0976,1.1616,1.2358,1.3933,1.3894,1.3912,1.54,1.4582,1.3618,1.3774,1.2626,1.1431,1.0742,1.028,0.9535,0.8265,0.7598,0.6316,0.3811,0.2617,0.1847,0.1499,0.1155,0.0447,-0.0982,-0.155,-0.221,-0.3113,-0.3977,-0.4732,-0.553,-0.621,-0.6998,-0.7757,-0.8002,-0.8135,-0.8146,-0.8101,-0.8229,-0.8513,-0.9174,-0.9579,-0.9891,-0.9425,-0.9697,-1.058,-1.0565,-1.0815,-1.1331,-1.1745,-1.1984,-1.226,-1.2772,-1.2936,-1.2936,0.0,0.0,0.0,0.0,0.0,0.0,0.0,0.0,0.0,0.0,0.0,0.0,0.0,0.0406,0.043,0.0531,0.1585,0.1868,0.0976,0.1631,0.1849,0.133,0.1588,0.1504,0.1031,0.1592,0.1681,0.1277,0.1867,0.2076,0.1887,0.1939,0.152,0.0674,0.09,0.1051,0.1053,0.0866,0.1853,0.3565,0.2438,0.1928,0.1951,0.1878,0.2302,0.2951,0.3008,0.3049,0.3179,0.3911,0.3855,0.367,0.4709,0.5066,0.5228,0.5491,0.5982,0.6417,0.6055,0.7553,0.9414,1.0484,1.0979,1.1645,1.3213,1.3228,1.2814,1.2511,1.2081,1.1466,1.0282,0.9563,0.8896,0.8285,0.7629,0.6933,0.6228,0.4734,0.3208,0.1819,0.0426,-0.1018,-0.2773,-0.2211,-0.2059,-0.2777,-0.4387,-0.5134,-0.4569,-0.5578,-0.6491,-0.7269,-0.777,-0.8318,-0.8881,-0.9985,-1.009,-0.934,-0.9814,-1.0297,-1.0681,-1.1263,-1.1263,-1.0769,-1.1053,-1.1036,-1.093,-1.1346,-1.1734,-1.2112,-1.3209,-1.3886,-1.4391,-1.5228,-1.4629,-1.3451,0.0,0.0,0.0,0.0,0.0,0.0,0.0,0.0,0.0,0.0,0.0,0.0,0.0,0.0,0.0,0.0,0.0944,0.1051,0.0914,0.1316,0.1419,0.1139,0.1736,0.194,0.1577,0.1722,0.1831,0.1766,0.2221,0.2174,0.1681,0.2067,0.1848,0.111,0.1297,0.1304,0.126,0.1541,0.1936,0.2445,0.2029,0.1757,0.1643,0.2214,0.2383,0.2462,0.0,0.2764,0.304,0.3293,0.3331,0.338,0.418,0.4457,0.4692,0.5256,0.5779,0.6236,0.625,0.7517,0.8985,0.9857,1.0226,1.0626,1.1746,1.1335,1.0724,1.0805,0.9714,0.8598,0.7906,0.7026,0.6338,0.6051,0.5712,0.5426,0.5349,0.3879,0.2091,0.025,-0.1028,-0.243,-0.4077,-0.3545,-0.3437,-0.4202,-0.5285,-0.6004,-0.6135,-0.7143,-0.8016,-0.8428,-0.9017,-0.9713,-1.0524,-1.0591,-1.0862,-1.1333,-1.1216,-1.1322,-1.1853,-1.2145,-1.2446,-1.2533,-1.213,-1.2194,-1.2649,-1.2907,-1.343,-1.4099,-1.4866,-1.5538,-1.5959,-1.6296,-1.6363,-1.6398,0.0,0.0,0.0,0.0,0.0,0.0,0.0,0.0,0.0,0.0,0.0,0.0,0.0,0.0,0.0,0.0,0.0,0.0733,0.0801,0.11,0.121,0.0958,0.1413,0.169,0.1773,0.1573,0.1568,0.1724,0.2002,0.186,0.1455,0.1737,0.1598,0.1105,0.1281,0.135,0.1312,0.1897,0.1829,0.1358,0.183,0.168,0.1225,0.1782,0.1969,0.0,0.1759,0.2081,0.2549,0.2742,0.2985,0.3229,0.3738,0.4258,0.4636,0.456,0.5112,0.5747,0.5717,0.6712,0.7979,0.8492,0.8768,0.9043,0.9577,0.8923,0.817,0.8251,0.7094,0.5861,0.5184,0.4482,0.3897,0.3383,0.3121,0.2919,0.2858,0.149,-0.0087,-0.1751,-0.2737,-0.3898,-0.5349,-0.515,-0.5152,-0.562,-0.6184,-0.6933,-0.7859,-0.847,-0.925,-1.0186,-1.0519,-1.1081,-1.189,-1.2035,-1.2456,-1.3361,-1.3048,-1.3113,-1.3499,-1.3788,-1.4034,-1.4135,-1.3945,-1.3962,-1.4205,-1.4555,-1.5011,-1.5681,-1.6273,-1.6772,-1.7188,-1.735,-1.7917,-1.8443,0.0,0.0,0.0,0.0,0.0,0.0,0.0,0.0,0.0,0.0,0.0,0.0,0.0,0.0,0.0,0.0,0.0,0.0,0.06,0.0995,0.1125,0.0861,0.0723,0.0938,0.1461,0.1158,0.1067,0.12,0.1303,0.1301,0.1169,0.0944,0.0833,0.078,0.0919,0.1107,0.1287,0.1868,0.1488,0.0507,0.167,0.154,0.0709,0.0805,0.0987,0.1149,0.0776,0.1111,0.1797,0.2297,0.2753,0.318,0.3448,0.4325,0.4988,0.3688,0.4235,0.5115,0.4538,0.5425,0.6536,0.6556,0.677,0.6881,0.6623,0.6014,0.5341,0.4952,0.4351,0.3501,0.2169,0.1982,0.1529,0.032,-0.0082,-0.0505,-0.1204,-0.2247,-0.3199,-0.4136,-0.4584,-0.542,-0.6649,-0.7011,-0.707,-0.7031,-0.7361,-0.817,-0.9611,-0.9509,-1.0348,-1.2392,-1.2381,-1.2552,-1.3091,-1.4177,-1.4899,-1.5225,-1.5145,-1.5229,-1.5432,-1.6001,-1.5933,-1.5364,-1.6052,-1.6075,-1.5562,-1.6246,-1.6609,-1.6935,-1.735,-1.7755,-1.8238,-1.8656,-1.9204,-1.9511,0.0,0.0,0.0,0.0,0.0,0.0,0.0,0.0,0.0,0.0,0.0,0.0,0.0,0.0,0.0,0.0,0.0,0.0,0.0185,0.0319,0.0262,-0.006,0.0346,0.0637,0.0807,0.0906,0.0948,0.1058,0.0955,0.0853,0.0845,0.0628,0.0532,0.0497,0.0585,0.0639,0.0655,0.0891,0.0903,0.0774,0.091,0.083,0.0682,0.0999,0.1057,0.1027,0.1315,0.1779,0.2197,0.2036,0.2775,0.381,0.3888,0.4193,0.4502,0.4649,0.4972,0.5213,0.4845,0.5635,0.6351,0.5378,0.5377,0.5339,0.4573,0.391,0.3507,0.3649,0.305,0.2341,0.1409,0.0495,-0.0504,-0.1713,-0.1939,-0.2667,-0.4718,-0.464,-0.4741,-0.5768,-0.5966,-0.6548,-0.8021,-0.8315,-0.8848,-0.984,-0.9376,-0.9212,-0.9615,-1.092,-1.1936,-1.2572,-1.3282,-1.3717,-1.3853,-1.4595,-1.5279,-1.5805,-1.5957,-1.6158,-1.6298,-1.7037,-1.695,-1.6358,-1.6766,-1.7023,-1.7319,-1.7482,-1.8372,-1.9474,-1.9134,-1.9529,-2.0148,-2.007,-2.045,-2.0991,0.0,0.0,0.0,0.0,0.0,0.0,0.0,0.0,0.0,0.0,0.0,0.0,0.0,0.0,0.0,0.0,0.0,0.0,0.0,0.0189,0.01,0.0053,0.0112,0.0297,0.0595,0.0392,0.0341,0.0429,0.0331,0.0077,-0.0331,-0.0121,-0.0323,-0.0867,-0.0247,-0.0,-0.0043,0.0254,0.0515,0.0,0.0,0.0154,0.037,0.0506,0.0524,0.0461,0.089,0.1415,0.1914,0.2074,0.292,0.3799,0.3383,0.3816,0.4435,0.412,0.4518,0.4902,0.4385,0.4841,0.5183,0.4311,0.3662,0.3039,0.251,0.1666,0.1159,0.1606,0.1197,0.0612,-0.0065,-0.1058,-0.198,-0.263,-0.3313,-0.4281,-0.5688,-0.6002,-0.6359,-0.7165,-0.7346,-0.788,-0.9258,-0.9274,-0.9772,-1.123,-1.0289,-1.0124,-1.1127,-1.1932,-1.2796,-1.3611,-1.4203,-1.4739,-1.5228,-1.5546,-1.6133,-1.6899,-1.7124,-1.7454,-1.8056,-1.8519,-1.8415,-1.7881,-1.8335,-1.8557,-1.8668,-1.9181,-2.0041,-2.0904,-2.0469,-2.0702,-2.1308,-2.1497,-2.1876,-2.2424,0.0,0.0,0.0,0.0,0.0,0.0,0.0,0.0,0.0,0.0,0.0,0.0,0.0,0.0,0.0,0.0,0.0,0.0,0.0,0.0,0.0,0.0,-0.0084,-0.0104,0.0461,-0.0137,-0.0402,-0.0245,-0.0136,-0.055,-0.1392,-0.0713,-0.1007,-0.2028,-0.0896,-0.0458,-0.0493,-0.0037,0.0226,0.0336,-0.0178,-0.023,-0.0059,0.0,0.0,0.0,0.0126,0.0,0.0,0.0,0.3024,0.3584,0.2742,0.3517,0.4469,0.327,0.3718,0.439,0.3622,0.3694,0.3816,0.3239,0.1886,0.0735,0.0459,-0.0373,-0.0938,-0.0523,-0.0697,-0.1124,-0.165,-0.2366,-0.2916,-0.3033,-0.4367,-0.541,-0.5428,-0.6746,-0.7827,-0.8251,-0.8628,-0.9244,-1.0289,-1.012,-1.0458,-1.1821,-1.0971,-1.1147,-1.3112,-1.2825,-1.3401,-1.494,-1.5218,-1.5748,-1.673,-1.6622,-1.7134,-1.8221,-1.8338,-1.8954,-1.9985,-2.0167,-2.0043,-1.9667,-2.0319,-2.0338,-2.0086,-2.0947,-2.1538,-2.1766,-2.1441,-2.1669,-2.2199,-2.2892,-2.3408,-2.3806,0.0,0.0,0.0,0.0,0.0,0.0,0.0,0.0,0.0,0.0,0.076,-0.0057,0.0,0.0,0.0,0.0,0.0,0.0,0.0,0.0,0.0,0.0,-0.0689,-0.0587,-0.0144,-0.0264,-0.0211,0.0023,0.037,0.0388,0.0133,0.0474,0.0488,0.0229,0.0465,0.0469,0.0294,0.0327,0.0262,0.0166,0.0219,0.0052,-0.0215,0.0,0.0,0.0,0.0,0.0,0.0,0.0,0.2585,0.3887,0.3928,0.4116,0.4339,0.4582,0.4475,0.4193,0.3849,0.4135,0.3955,0.1501,0.0474,-0.0313,-0.1629,-0.1669,-0.1376,-0.1191,-0.1519,-0.189,-0.1929,-0.2576,-0.3383,-0.4066,-0.4962,-0.5832,-0.6664,-0.7793,-0.8535,-0.8558,-0.957,-1.0458,-1.1068,-1.1408,-1.2015,-1.3045,-1.2942,-1.3033,-1.358,-1.3899,-1.4664,-1.6058,-1.635,-1.6648,-1.7057,-1.7204,-1.7729,-1.8715,-1.9462,-1.9948,-2.0283,-2.1427,-2.1641,-2.1062,-2.1575,-2.2049,-2.2475,-2.2095,-2.2521,-2.3434,-2.2883,-2.3158,-2.3975,-2.4264,-2.4672,-2.5228,0.0,0.0,0.0,0.0,0.0,0.0,0.0,0.1094,0.1429,0.2715,0.1539,0.0874,0.1655,0.0838,0.0,0.0,0.0,0.0,0.0,0.0,0.0,0.0,0.0,0.0,-0.0254,-0.0452,-0.0513,-0.0423,0.0,0.009,-0.0376,0.0328,0.0335,-0.0173,0.0349,0.045,0.025,0.055,0.0612,0.0569,0.0475,0.0302,0.0,0.0,0.0,0.0,0.0,0.0,0.0,0.0,0.2054,0.3207,0.3184,0.3692,0.4158,0.3869,0.3558,0.3366,0.3027,0.2605,0.1902,0.0314,-0.0853,-0.1813,-0.2693,-0.2451,-0.1978,-0.1567,-0.1847,-0.2082,-0.2061,-0.2991,-0.3826,-0.4247,-0.5369,-0.6388,-0.6891,-0.8066,-0.8941,-0.9326,-1.0066,-1.0982,-1.21,-1.2357,-1.3039,-1.4307,-1.4552,-1.4461,-1.4203,-1.4894,-1.5658,-1.6394,-1.6566,-1.6894,-1.7375,-1.7861,-1.8387,-1.9022,-2.0309,-2.1061,-2.148,-2.2406,-2.2737,-2.2678,-2.2922,-2.3268,-2.3572,-2.3481,-2.3877,-2.4545,-2.4319,-2.4564,-2.5122,-2.5869,-2.6202,-2.6488,0.0,0.0,0.0,0.0,0.0,0.0,0.0,0.1293,0.1479,0.2481,0.2164,0.2081,0.2729,0.1618,0.0944,0.0,0.0,0.0,0.0,0.0,0.0,0.0,0.0,0.0,0.0,0.0,0.0,-0.069,-0.0156,0.0,0.0,0.0,0.0,0.0,0.0356,0.0581,0.04,0.0911,0.1114,0.0,0.0,0.0714,0.0,0.0,0.0,0.0,0.0,0.0,0.0,0.0,0.1552,0.2052,0.1958,0.2722,0.3539,0.2911,0.2598,0.2407,0.2239,0.1091,-0.0156,-0.0782,-0.2066,-0.3237,-0.3621,-0.3179,-0.2589,-0.2305,-0.228,-0.2311,-0.243,-0.3352,-0.4255,-0.4452,-0.5616,-0.6752,-0.7419,-0.8435,-0.9493,-1.0329,-1.081,-1.1585,-1.296,-1.33,-1.3971,-1.5144,-1.565,-1.565,-1.5235,-1.6072,-1.6656,-1.6722,-1.6976,-1.7383,-1.7951,-1.8505,-1.9021,-1.9424,-2.0882,-2.1894,-2.2405,-2.3189,-2.3647,-2.3943,-2.4252,-2.4466,-2.4637,-2.4968,-2.5315,-2.5619,-2.5696,-2.5889,-2.6114,-2.7178,-2.7577,-2.7644,0.0,0.0,0.0,0.0,0.0,0.0,0.0,0.0433,0.1106,0.1899,0.2497,0.3105,0.37,0.2114,0.1032,0.0,0.0,0.0,0.0,0.0,0.0,0.0,0.0,0.0,0.0,0.0,0.0,-0.0,0.031,0.0,0.0,0.0,0.0,0.0,0.0,0.1623,0.1557,0.1727,0.0,0.0,0.0,0.0,0.0,0.0,0.0,0.0,0.0,0.164,0.1019,0.1736,0.13,0.051,0.0908,0.1326,0.1888,0.3159,0.2665,0.1829,0.1953,0.0999,-0.0468,-0.2338,-0.3323,-0.4035,-0.5155,-0.3872,-0.2821,-0.3777,-0.341,-0.3047,-0.3404,-0.3791,-0.4396,-0.5543,-0.5864,-0.6793,-0.9057,-0.9514,-1.0195,-1.1524,-1.2181,-1.2705,-1.3307,-1.4328,-1.4831,-1.4734,-1.5726,-1.6476,-1.6886,-1.7708,-1.8031,-1.7619,-1.8201,-1.854,-1.862,-1.8993,-1.9503,-2.0079,-2.1313,-2.1987,-2.2169,-2.3961,-2.4594,-2.4467,-2.5665,-2.6189,-2.6223,-2.6612,-2.6772,-2.69,-2.718,-2.7339,-2.739,-2.8026,-2.8403,-2.8776,0.0,0.0,0.0,0.0,0.0,0.0,-0.0111,0.0277,0.0936,0.1774,0.2714,0.3532,0.4143,0.3269,0.2102,0.0,0.0,0.0,0.0,0.0,0.0,0.0,0.0,0.0,0.0,0.0,-0.0455,-0.0494,-0.0021,0.0,0.0,0.0,0.0,0.0,0.0,0.1755,0.1997,0.2098,0.0,0.0,0.0,0.0,0.0,0.0,0.0,0.0,0.0,0.0,0.0961,0.1263,0.1136,0.0751,0.0519,0.0436,0.0664,0.1919,0.1479,0.0357,-0.0512,-0.1518,-0.2579,-0.3744,-0.422,-0.4433,-0.4719,-0.369,-0.2839,-0.3363,-0.315,-0.2996,-0.3504,-0.4094,-0.4722,-0.5424,-0.6275,-0.7254,-0.8625,-0.9395,-1.0194,-1.1325,-1.2191,-1.2997,-1.3944,-1.4901,-1.5658,-1.6139,-1.6886,-1.7375,-1.7456,-1.7781,-1.8023,-1.8095,-1.8514,-1.8834,-1.9073,-1.9854,-2.0536,-2.105,-2.2372,-2.3156,-2.3429,-2.4566,-2.52,-2.5359,-2.6151,-2.6473,-2.663,-2.6952,-2.7225,-2.7475,-2.7738,-2.8133,-2.8675,-2.9345,-2.9827,-3.0194,0.0,0.0,0.0,0.0,0.0,0.0634,-0.0179,-0.0602,-0.0365,0.0907,0.1983,0.2955,0.3731,0.3057,0.1983,0.0535,0.0,0.0,0.0,0.0,0.0,0.0,0.0,0.0,0.0,0.0,-0.0302,-0.0507,-0.0086,0.0066,0.0,0.0,0.1336,0.1311,0.0,0.0,0.0,0.0,0.0,0.0,0.0,0.0,0.0,0.0,0.0,0.0,0.0,0.0,0.0,0.0,0.0,0.1451,0.0,0.0,0.0,0.0,0.0568,-0.068,-0.1407,-0.2715,-0.3953,-0.4589,-0.4792,-0.4804,-0.4458,-0.3957,-0.3587,-0.3675,-0.3656,-0.3767,-0.4172,-0.4674,-0.5171,-0.5686,-0.6569,-0.7629,-0.8782,-0.9472,-1.033,-1.1554,-1.2254,-1.3127,-1.4462,-1.565,-1.6746,-1.7538,-1.8103,-1.8425,-1.8576,-1.8487,-1.8416,-1.8345,-1.8816,-1.9134,-1.939,-2.0605,-2.137,-2.169,-2.308,-2.4016,-2.4498,-2.5217,-2.5863,-2.6302,-2.7162,-2.7425,-2.7323,-2.799,-2.8336,-2.8473,-2.8716,-2.9104,-2.9685,-3.0404,-3.0763,-3.0984,0.0,0.0,0.0,0.0,0.0,0.0,-0.0681,-0.2585,-0.3214,-0.1155,-0.0,0.109,0.2293,0.0945,0.0065,0.037,0.0,0.0,0.0,0.0,0.0,0.0,0.0,0.0,0.0,0.0,0.0646,0.0378,0.04,0.049,0.069,0.1036,0.1235,0.1319,0.0,0.0,0.0,0.0,0.0,0.0,0.0,0.0,0.0,0.0,0.0,0.0,0.0,0.0,0.0,0.0,0.0,0.0,0.0,0.0,0.0,0.0,0.0343,-0.1123,0.0132,-0.1642,-0.3949,-0.464,-0.5101,-0.5336,-0.4972,-0.5166,-0.5365,-0.5274,-0.5548,-0.5771,-0.5787,-0.562,-0.5781,-0.6633,-0.6817,-0.7688,-1.0112,-1.027,-1.0782,-1.2583,-1.2641,-1.3196,-1.4853,-1.6812,-1.8198,-1.8665,-1.9063,-1.9696,-2.0489,-2.0323,-1.9618,-1.8442,-1.9362,-1.9756,-1.9566,-2.1135,-2.1908,-2.1928,-2.2971,-2.4136,-2.5223,-2.6095,-2.6741,-2.7267,-2.9135,-2.9441,-2.8762,-3.0381,-3.0692,-3.0137,-3.0559,-3.0583,-3.0372,-3.0851,-3.0896,-3.0955,0.0,0.0,0.0,0.0,0.0,0.0,0.0,-0.0931,-0.0873,-0.1315,0.0089,0.129,0.1598,0.0596,-0.007,-0.0023,0.0,0.0,0.0,0.0,0.0,0.0,0.0,0.0,0.0,0.0,0.0663,0.0668,0.0585,0.0886,0.1532,0.1528,0.192,0.26,0.2395,0.2617,0.0,0.0,0.0,0.0,0.0,0.0,0.1759,0.0,0.0,0.0,0.0,0.0,0.0,0.0,0.0,0.0,0.0,0.0,0.0,0.2495,0.0903,-0.1128,-0.1643,-0.2774,-0.3985,-0.4675,-0.4862,-0.4792,-0.4501,-0.431,-0.431,-0.4803,-0.5079,-0.5407,-0.5973,-0.6592,-0.7218,-0.7814,-0.8065,-0.8878,-1.0743,-1.0963,-1.1514,-1.2924,-1.4582,-1.6121,-1.7365,-1.8726,-1.9182,-1.8514,-1.9134,-1.9371,-1.9143,-1.9381,-1.9618,-1.9715,-2.0167,-2.0401,-2.0479,-2.1403,-2.2315,-2.3244,-2.4407,-2.5498,-2.6528,-2.738,-2.8107,-2.8608,-2.926,-2.9503,-2.9405,-2.9984,-3.0251,-3.0221,-3.0589,-3.1146,-3.1766,-3.213,-3.2461,-3.2803,0.0,0.0,0.0,0.0,0.0,0.0,0.0,0.0651,0.0475,-0.0766,0.0026,0.0578,0.0248,-0.0476,-0.0877,-0.0776,0.0,0.0,0.0,0.0,0.0,0.0,0.0,0.0,0.0,0.1052,0.1113,0.1624,0.1364,0.1761,0.2763,0.2769,0.2861,0.3038,0.2928,0.296,0.0,0.0,0.0,0.0,0.0,0.0,0.2167,0.0,0.0,0.0,0.0,0.0,0.0,0.0,0.0,0.0,0.0,0.0,0.0,0.0,0.1584,-0.0335,-0.1759,-0.2767,-0.3566,-0.4324,-0.4747,-0.5043,-0.5092,-0.5236,-0.5385,-0.5487,-0.6038,-0.6518,-0.6429,-0.7258,-0.7937,-0.8057,-0.8567,-0.9256,-1.0257,-1.1177,-1.2327,-1.3869,-1.5878,-1.7454,-1.8285,-1.9515,-1.9953,-1.9222,-1.9687,-1.9854,-1.9469,-1.9932,-2.0469,-2.1001,-2.1165,-2.1098,-2.1031,-2.2324,-2.3547,-2.4513,-2.5754,-2.694,-2.798,-2.8636,-2.915,-2.958,-3.0238,-3.044,0.0,-3.0717,-3.092,-3.0896,-3.1405,-3.2043,-3.2749,-3.3108,-3.3511,-3.3834,0.0,0.0,0.0,0.0,0.0,0.0,0.0,0.0,0.0908,0.0379,-0.0023,-0.0552,-0.1265,-0.1817,-0.1994,-0.1619,0.0,0.0,0.0,0.0,0.0,0.0,0.0,0.0,0.1938,0.1633,0.1977,0.3035,0.2675,0.3138,0.4361,0.4517,0.4036,0.3032,0.3424,0.3108,0.2315,0.3099,0.3407,0.3354,0.3461,0.3235,0.0,0.0,0.0,0.0,0.0,0.0,0.0,0.0,0.0,0.0,0.0,0.0,0.0,0.0,0.0,0.0,0.0,-0.1722,-0.2847,-0.3504,-0.4665,-0.576,-0.6275,-0.7213,0.0,-0.6931,-0.7931,-0.8525,-0.7198,-0.7609,-0.8074,-0.7729,-0.8473,-0.9137,-0.9407,-1.1267,-1.3315,-1.5438,-1.6698,-1.7526,-1.7804,-1.9422,-2.0362,-2.0391,-2.0547,-2.0799,-2.1128,-2.1655,-2.208,-2.2339,-2.2349,-2.1993,-2.1349,-2.3846,-2.5286,-2.5761,-2.698,-2.8245,-2.949,-2.9807,-3.0014,-3.0302,-3.1695,-3.2027,-3.1602,-3.2275,-3.2316,-3.2094,-3.2749,-3.3145,-3.3339,-3.3869,-3.4137,-3.4268,0.0,0.0,0.0,0.0,0.0,0.0,0.0,0.0,0.0,0.0,0.1149,0.1048,0.1,0.0036,-0.0607,0.0,0.0,0.0,0.0,0.0,0.0,0.0,0.0,0.0,0.2362,0.2876,0.3217,0.3383,0.4041,0.4821,0.5745,0.5717,0.5519,0.5164,0.4755,0.4276,0.3778,0.3827,0.3844,0.3817,0.3591,0.3342,0.0,0.0,0.0,0.0,0.3526,0.3873,0.0,0.0,0.0,0.0,0.0,0.0,0.0,0.0,0.3845,0.28,0.1978,0.0,-0.1794,-0.2483,-0.3143,-0.3764,0.0,-0.5169,-0.6092,-0.6311,-0.6848,-0.7502,-0.82,-0.771,-0.7726,-0.9309,-0.9503,-1.0181,-1.2311,-1.4181,-1.585,-1.7072,-1.8152,-1.877,-1.8523,-2.011,-2.0722,-1.9687,-2.076,-2.1231,-2.0799,-2.2403,-2.3073,-2.2606,-2.3841,-2.4059,-2.2936,-2.3982,-2.4989,-2.5984,-2.787,-2.9293,-3.0309,-3.1429,-3.1951,-3.1903,-3.2147,-3.2222,-3.2024,-3.2085,-3.2154,-3.2342,-3.3071,-3.3716,-3.4268,-3.4464,-3.4958,-3.5414,0.0,0.0,0.0,0.0,0.0,0.0,0.0,0.0,0.0,0.0,0.0,0.0,0.0,0.0,0.0,0.0,0.0,0.0,0.0,0.0,0.0,0.0,0.0,0.3072,0.2783,0.297,0.3294,0.3774,0.4422,0.5377,0.6604,0.6669,0.6385,0.5755,0.4743,0.408,0.373,0.4149,0.3998,0.3531,0.3994,0.0,0.0,0.0,0.0,0.0,0.4193,0.4223,0.0,0.512,0.4726,0.4148,0.0,0.0,0.0,0.0,0.4182,0.2936,0.2082,0.0374,-0.1379,-0.2189,-0.285,-0.3709,-0.5309,0.0,0.0,0.0,0.0,0.0,-0.844,-0.8931,-0.9478,-0.9714,-1.0514,-1.1807,-1.3876,-1.5182,-1.6405,-1.762,-1.8453,-1.8825,-1.8745,-2.0148,-2.0847,-2.0294,-2.1211,-2.1821,-2.2048,-2.2988,-2.3722,-2.4241,-2.5264,-2.5193,-2.3829,-2.4886,-2.5851,-2.6871,-2.8728,-2.9907,-3.0554,-3.1811,-3.2176,-3.1804,-3.2313,-3.2571,-3.2688,-3.2717,-3.2854,-3.314,-3.3764,-3.4301,-3.4721,-3.5161,-3.5776,-3.6316,0.0,0.0,0.0,0.0,0.0,0.0,0.0,0.0,0.0,0.0,0.0,0.0,0.0,0.0,0.0,0.0,0.0,0.0,0.0,0.0,0.0,0.0,0.0,0.3266,0.3354,0.2873,0.3167,0.4264,0.4734,0.58,0.7384,0.7794,0.7323,0.6036,0.4615,0.3773,0.3481,0.4429,0.4239,0.3389,0.4565,0.0,0.0,0.0,0.0,0.0,0.0,0.0,0.0,0.5189,0.4794,0.4147,0.5501,0.0,0.0,0.0,0.0,0.0,0.1269,-0.0126,-0.1362,-0.2187,-0.2996,-0.432,-0.719,0.0,0.0,0.0,0.0,0.0,0.0,-1.0139,-1.1228,-0.9745,-1.1519,-1.3471,-1.4725,-1.5352,-1.6146,-1.7365,-1.8212,-1.8603,-1.8567,-1.9894,-2.0894,-2.1211,-2.1821,-2.2649,-2.3745,-2.3868,-2.4648,-2.6202,-2.6557,-2.6146,-2.4886,-2.6183,-2.7216,-2.7924,-2.9386,-3.0261,-3.075,-3.1748,-3.1885,-3.1431,-3.2477,-3.3054,-3.3336,-3.3575,-3.3789,-3.4084,-3.4626,-3.4944,-3.5174,-3.5864,-3.6557,-3.7073,0.0,0.0,0.0,0.0,0.0,0.0,0.0,0.0,0.0,0.0,0.0,0.0,0.0,0.0,0.0,0.0,0.0,0.0,0.0,0.0,0.0,0.5477,0.4339,0.3964,0.4523,0.4243,0.4392,0.5028,0.6701,0.792,0.8651,1.0106,0.9766,0.7837,0.6419,0.5603,0.5297,0.5417,0.5295,0.5031,0.5128,0.0,0.0,0.0,0.0,0.0,0.0,0.0,0.0,0.5465,0.5011,0.4483,0.5061,0.0,0.0,0.0,0.0,0.0,0.113,-0.0694,-0.1893,-0.1988,-0.2502,-0.3591,-0.5699,0.0,0.0,0.0,0.0,0.0,0.0,-0.9394,-0.9338,-1.0608,-1.2469,-1.4283,-1.5738,-1.6263,-1.6627,-1.6806,-1.8512,-1.9294,-1.8212,-2.0216,-2.1328,-2.0692,-2.2553,-2.3745,-2.3818,-2.5857,-2.6989,-2.6803,-2.771,-2.8103,-2.8023,-2.7894,-2.8,-2.846,-2.9694,-3.0751,-3.1751,-3.2715,-3.3128,-3.3036,-3.3324,-3.3414,-3.3293,-3.343,-3.3917,-3.4638,-3.522,-3.5786,-3.6264,-3.6409,-3.6992,-3.7739,0.0,0.0,0.0,0.0,0.0,0.0,0.0,0.0,0.0,0.0,0.0,0.0,0.0,0.0,0.0,0.0,0.0,0.0,0.0,0.0,0.0,0.6092,0.5012,0.4504,0.4733,0.512,0.5696,0.6499,0.842,0.9631,1.0123,0.9666,0.9117,0.8427,0.6162,0.5103,0.5019,0.5427,0.5427,0.522,0.0,0.0,0.0,0.0,0.0,0.0,0.0,0.0,0.0,0.0,0.5356,0.5068,0.6403,0.0,0.0,0.0,0.0,0.0,0.052,-0.0694,-0.1463,-0.3537,-0.4815,-0.6057,-0.7923,-0.8766,0.0,0.0,0.0,0.0,0.0,-1.0759,-1.236,-1.4212,-1.4711,-1.528,-1.6447,-1.7011,-1.7078,-1.67,-1.7917,-1.8455,-1.7891,-1.9816,-2.0981,-2.0817,-2.284,-2.4325,-2.4909,-2.6364,-2.7324,-2.7657,-2.8454,-2.9156,-2.9676,-2.9442,-2.9429,-2.9603,-3.0157,-3.0899,-3.1809,-3.2532,-3.2857,-3.2873,-3.3439,-3.3767,-3.3905,-3.4268,-3.4752,-3.534,-3.5732,-3.6105,-3.6475,-3.6677,-3.7091,-3.7548,0.0,0.0,0.0,0.0,0.0,0.0,0.0,0.0,0.0,0.0,0.0,0.0,0.0,0.0,0.0,0.0,0.0,0.0,0.0,0.0,0.4563,0.6196,0.5561,0.5291,0.5579,0.6142,0.7317,0.9119,1.0358,1.1241,1.1737,0.9417,0.8558,0.8843,0.6165,0.4945,0.4905,0.5273,0.5345,0.5236,0.0,0.0,0.0,0.0,0.0,0.0,0.0,0.0,0.0,0.0,0.0,0.0,0.0,0.0,0.0,0.544,0.5116,0.4133,0.0663,-0.0206,-0.0969,-0.4417,0.0,-0.7912,-0.9589,-1.0184,-1.0713,0.0,0.0,0.0,-0.9831,-1.2269,-1.4989,-1.6523,-1.6234,-1.6104,-1.6863,-1.7334,-1.7421,-1.6887,-1.7473,-1.79,-1.8052,-1.9492,-2.0575,-2.1038,-2.2977,-2.4469,-2.5417,-2.6296,-2.7311,-2.8376,-2.903,-2.9771,-3.0646,-3.0866,-3.0808,-3.0437,-3.0606,-3.1066,-3.186,-3.2364,-3.2716,-3.3002,-3.3662,-3.4251,-3.4719,-3.5178,-3.5694,-3.6114,-3.6308,-3.6441,-3.6615,-3.7029,-3.7271,-3.7437,0.0,0.0,0.0,0.0,0.0,0.0,0.0,0.0,0.0,0.0,0.0,0.0,0.0,0.0,0.0,0.0,0.0,0.0,0.0,0.0,0.4647,0.5526,0.5805,0.6645,0.8189,0.7679,0.9438,1.3634,1.2954,1.294,1.3467,1.0999,0.9787,0.9639,0.7798,0.6758,0.6291,0.5345,0.5249,0.5721,0.5552,0.0,0.0,0.0,0.0,0.0,0.0,0.0,0.0,0.0,0.0,0.0,0.0,0.0,0.7163,0.6134,0.6083,0.5697,0.2706,0.0873,-0.0721,-0.285,-0.4895,-0.6761,-0.8138,-0.9266,0.0,-1.0698,0.0,-1.1903,-1.1859,-1.3009,-1.4167,-1.4877,-1.568,-1.6386,-1.6793,-1.709,-1.7295,-1.7311,-1.7904,-1.8572,-1.914,-1.9825,-2.044,-2.0857,-2.2903,-2.4158,-2.4181,-2.6283,-2.7894,-2.8856,-2.9289,-3.0012,-3.1049,-3.1975,-3.181,-3.0526,-3.0925,-3.1546,-3.2284,-3.2848,-3.3697,-3.4625,-3.4771,-3.5021,-3.5459,-3.561,-3.619,-3.7013,-3.7111,-3.7077,-3.7124,-3.7655,-3.7819,-3.7873,0.0,0.0,0.0,0.0,0.0,0.0,0.0,0.0,0.0,0.0,0.0,0.0,0.0,0.0,0.0,0.0,0.0,0.0,0.0,0.4377,0.4565,0.5578,0.6229,0.6853,0.7487,0.8732,1.1177,1.4837,1.5356,1.487,1.3474,1.1321,1.0066,0.9574,0.7077,0.6163,0.6385,0.4648,0.4351,0.5058,0.513,0.5497,0.0,0.0,0.0,0.0,0.0,0.0,0.0,0.0,0.7286,0.8144,0.721,0.8115,0.9231,0.7892,0.7752,0.7247,0.3833,0.2645,0.1448,-0.2342,-0.3667,0.0,0.0,-1.0262,-1.1519,-1.3034,-1.2815,-1.2726,-1.432,-1.3134,-1.305,-1.6484,-1.6149,-1.5843,-1.6776,-1.7069,-1.7134,-1.6978,-1.7931,-1.89,-1.9783,-2.0887,-2.1725,-2.2264,-2.4218,-2.5451,-2.5673,-2.7105,-2.8152,-2.8806,-2.9099,-2.9587,-3.0365,-3.1145,-3.1451,-3.1223,-3.1779,-3.2376,-3.3029,-3.2876,-3.3582,-3.5052,-3.4975,-3.5448,-3.618,-3.5925,-3.6204,-3.6791,-3.6735,-3.6507,-3.6261,-3.6633,-3.6823,-3.6963,0.0,0.0,0.0,0.0,0.0,0.0,0.0,0.0,0.0,0.0,0.0,0.0,0.0,0.0,0.0,0.0,0.0,0.0,0.4961,0.442,0.4566,0.5674,0.615,0.6861,0.7855,0.9652,1.191,1.4677,1.628,1.598,1.3828,1.1723,1.0488,0.9933,0.7354,0.6526,0.6938,0.4803,0.4128,0.4503,0.4782,0.5102,0.0,0.0,0.0,0.0,0.0,0.0,0.0,0.0,0.7903,0.894,0.8169,0.9032,1.0239,0.9725,0.9723,0.9279,0.6322,0.5234,0.4053,0.0439,0.0,0.0,-0.748,-0.9768,-1.1592,-1.3883,-1.4067,-1.4179,-1.5452,-1.3579,-1.2983,-1.6408,-1.5821,-1.5489,-1.6874,-1.7009,-1.7012,-1.7184,-1.7842,-1.8712,-1.9742,-2.1008,-2.2029,-2.2633,-2.4495,-2.5669,-2.5921,-2.7012,-2.7852,-2.8429,-2.874,-2.9247,-3.0043,-3.1084,-3.1621,-3.1534,-3.2503,-3.3178,-3.36,-3.3226,-3.3779,-3.5062,-3.5028,-3.5445,-3.6207,-3.5918,-3.6152,-3.662,-3.6589,-3.6302,-3.5929,-3.614,-3.6266,-3.6466,0.0,0.0,0.0,0.0,0.0,0.0,0.0,0.0,0.0,0.0,0.0,0.0,0.0,0.0,0.0,0.0,0.0,0.0,0.4394,0.428,0.4672,0.574,0.5484,0.6766,0.989,1.0421,1.1546,1.3306,1.5519,1.6009,1.4812,1.2358,1.1129,1.0913,0.918,0.8374,0.8169,0.6085,0.4825,0.4257,0.4586,0.4391,0.4142,0.0,0.0,0.0,0.0,0.0,0.0,0.0,0.6728,0.7493,0.8346,0.908,0.9934,1.1448,1.2003,1.1831,1.047,0.8638,0.691,0.596,0.0,0.0,-0.4201,-0.716,-1.0057,-1.2413,-1.4841,-1.6219,-1.5033,-1.4496,-1.418,-1.3878,-1.444,-1.5453,-1.6954,-1.6793,-1.7,-1.8213,-1.7834,-1.7924,-1.9102,-2.0,-2.0827,-2.1574,-2.3334,-2.4413,-2.4333,-2.5734,-2.6863,-2.7709,-2.8295,-2.9147,-3.0291,-3.221,-3.2517,-3.1227,-3.3107,-3.3917,-3.38,-3.4059,-3.4426,-3.4818,-3.4955,-3.5142,-3.5411,-3.5628,-3.6057,-3.6614,-3.6881,-3.6709,-3.631,-3.6435,-3.6573,-3.6723,0.0,0.0,0.0,0.0,0.0,0.0,0.0,0.0,0.0,0.0,0.0,0.0,0.0,0.0,0.0,0.0,0.0,0.0,0.4933,0.4617,0.4553,0.4875,0.6094,0.662,0.6282,0.8617,1.1243,1.4077,1.5527,1.4972,1.2489,1.2319,1.1551,1.0259,0.976,0.92,0.8507,0.6429,0.5827,0.6218,0.6036,0.5817,0.5687,0.0,0.0,0.0,0.0,0.0,0.0,0.0,0.0,0.0,0.9757,1.0951,1.2263,1.1431,1.2323,1.3133,1.1013,1.023,0.9518,0.7526,0.0,0.0,0.0,-0.534,0.0,-1.3556,-1.4195,-1.4469,-1.537,-1.354,-1.258,-1.4754,-1.2785,-1.2289,-1.5756,-1.4538,-1.4124,-1.6237,-1.7036,-1.7993,-1.9494,-2.1777,-2.3203,-2.3185,-2.5499,-2.6693,-2.6232,-2.7045,-2.7847,-2.8591,-2.8958,-2.9562,-3.0455,-3.1271,-3.1819,-3.2004,-3.3078,-3.3661,-3.3881,-3.3913,-3.4485,-3.5498,-3.5353,-3.5605,-3.6104,-3.5907,-3.5784,-3.5699,-3.5835,-3.5849,-3.5823,-3.5958,-3.6028,-3.6144,0.0,0.0,0.0,0.0,0.0,0.0,0.0,0.0,0.0,0.0,0.0,0.0,0.0,0.0,0.0,0.0,0.0,0.0,0.0,0.4753,0.471,0.5193,0.6084,0.6338,0.5824,0.8675,1.0911,1.246,1.4159,1.3935,1.1901,1.2283,1.1872,1.0819,1.1272,1.0859,0.9763,0.8695,0.7582,0.6561,0.6692,0.6565,0.6301,0.0,0.0,0.0,0.0,0.0,0.0,0.0,0.0,0.0,1.0135,1.1415,1.2968,1.253,1.3627,1.4806,1.4195,1.3663,0.0,1.2071,0.9829,0.593,-0.1475,-0.6245,-1.0187,-1.3879,-1.3908,-1.3473,-1.4212,-1.253,-1.1622,-1.3352,-1.1653,-1.143,-1.5324,-1.3968,-1.3534,-1.6149,-1.7069,-1.7892,-1.9049,-2.2173,-2.399,-2.3547,-2.6242,-2.7569,-2.6817,-2.7588,-2.8299,-2.8808,-2.946,-3.0119,-3.0898,-3.1433,-3.2021,-3.2706,-3.3356,-3.378,-3.4066,-3.4079,-3.4522,-3.5328,-3.5254,-3.5442,-3.5856,-3.5742,-3.5586,-3.5438,-3.5488,-3.5579,-3.5688,-3.5799,-3.5846,-3.5911,0.0,0.0,0.0,0.0,0.0,0.0,0.0,0.0,0.0,0.0,0.0,0.0,0.0,0.0,0.0,0.0,0.0,0.0,0.0,0.0,0.506,0.6214,0.5827,0.6251,0.7663,0.9882,1.0512,0.9501,1.1911,1.2788,1.22,1.2117,1.2019,1.1986,1.3079,1.2766,1.1449,1.1687,0.9516,0.5982,0.7051,0.7005,0.6249,0.5753,0.0,0.0,0.0,0.0,0.0,0.0,0.0,0.0,0.9939,1.1048,1.2641,1.4099,1.533,1.6608,1.8419,1.7896,1.7087,1.8128,1.5221,0.8843,-0.3921,-0.7214,-0.895,-1.3786,-1.3918,-1.2877,-1.2101,-1.1514,-1.1061,-1.0672,-1.0695,-1.1932,-1.512,-1.4253,-1.4188,-1.6766,-1.7254,-1.7558,-1.8066,-2.1506,-2.3527,-2.3116,-2.6013,-2.744,-2.661,-2.7748,-2.8538,-2.8701,-2.9815,-3.0825,-3.1669,-3.2355,-3.2901,-3.3343,-3.385,-3.4136,-3.4288,-3.4409,-3.4517,-3.4604,-3.4832,-3.5018,-3.5164,-3.534,-3.5591,-3.5852,-3.5747,-3.5791,-3.5937,-3.5914,-3.5916,-3.5903,0.0,0.0,0.0,0.0,0.0,0.0,0.0,0.0,0.0,0.0,0.0,0.0,0.0,0.0,0.0,0.0,0.0,0.0,0.0,0.0,0.5249,0.6025,0.7144,0.8199,0.9206,0.9536,0.9611,0.9424,1.0866,1.1024,1.0015,1.1214,1.1685,1.1541,1.2115,1.2086,1.1536,1.012,0.865,0.7457,0.9489,0.871,0.6448,0.7758,0.6473,0.0,0.0,0.0,0.0,0.0,0.0,0.0,1.0774,1.2144,1.3489,1.3277,1.5061,1.7047,1.6694,1.7932,0.0,1.9564,1.7681,1.3796,0.6211,0.5035,0.1156,-1.4426,-1.4426,-1.1584,-1.1403,-1.0792,-1.0296,-0.9995,-0.941,-0.9634,-1.1583,-1.1397,-1.1454,-1.2396,-1.4281,-1.6043,-1.7338,-2.0443,-2.2984,-2.4319,-2.7107,-2.8462,-2.772,-2.8857,-2.9576,-2.9691,-3.0791,-3.19,-3.2911,-3.3226,-3.3506,-3.3707,-3.4221,-3.434,-3.408,-3.4148,-3.4321,-3.4548,-3.5015,-3.5599,-3.622,-3.574,-3.6415,-3.7594,-3.6287,-3.6234,-3.6816,-3.6216,-3.5951,-3.5895,0.0,0.0,0.0,0.0,0.0,0.0,0.0,0.0,0.0,0.0,0.0,0.0,0.0,0.0,0.0,0.0,0.0,0.0,0.0,0.0,0.5123,0.6145,0.7506,0.8373,0.8603,0.8397,0.8243,0.8107,0.8699,0.9007,0.9054,1.1323,1.1973,1.1334,1.2951,1.26,1.0745,1.016,0.8553,0.6556,0.8231,0.761,0.5754,0.6366,0.5667,0.452,0.5833,0.0,0.0,0.0,0.0,0.0,0.0,0.0,1.3316,1.3245,1.52,1.7472,1.8087,1.9573,0.0,2.112,1.9595,1.648,1.0445,0.9005,0.5502,-0.6507,-0.6549,-0.5053,-0.7107,-0.7718,-0.7972,-0.8144,-0.8627,-1.0019,-1.2964,-0.9853,-0.9122,-1.4024,-1.3212,-1.3611,-1.6958,-2.0634,-2.342,-2.4847,-2.757,-2.9032,-2.8715,-2.9884,-3.0499,-3.054,-3.1669,-3.2512,-3.3075,-3.3668,-3.3956,-3.3842,-3.4274,-3.4101,-3.3499,-3.4184,-3.4526,-3.4674,-3.5181,-3.5661,-3.6092,-3.626,-3.69,-3.7734,-3.7264,-3.7386,-3.7717,-3.6913,-3.6581,-3.6461,0.0,0.0,0.0,0.0,0.0,0.0,0.0,0.0,0.0,0.0,0.0,0.0,0.0,0.0,0.0,0.0,0.0,0.0,0.0,0.0,0.0,0.6104,0.7224,0.7657,0.7307,0.7218,0.7068,0.6814,0.688,0.7459,0.8566,1.1772,1.2626,1.1584,1.3721,1.2962,1.0065,1.0302,0.8322,0.5155,0.6259,0.6028,0.4977,0.4597,0.5066,0.5837,0.5298,0.6796,0.8904,0.8126,0.0,0.0,0.0,0.0,1.2382,1.3186,1.5058,1.7343,1.9477,2.1186,2.2452,2.289,2.1785,1.9211,1.3927,1.1777,0.9631,0.5103,0.3447,0.1808,-0.1563,-0.3314,-0.4647,-0.5876,-0.7256,-0.9767,-1.4496,-0.9094,-0.7628,-1.5673,-1.3017,-1.2349,-1.703,-2.126,-2.4243,-2.5494,-2.7781,-2.9179,-2.9399,-3.0389,-3.0985,-3.1023,-3.2166,-3.2871,-3.3033,-3.3981,-3.4259,-3.3883,-3.3911,-3.3556,-3.2863,-3.415,-3.4698,-3.4642,-3.5254,-3.5596,-3.5794,-3.6573,-3.718,-3.7698,-3.8121,-3.8467,-3.8613,-3.7632,-3.7248,-3.7077,0.0,0.0,0.0,0.0,0.0,0.0,0.0,0.0,0.0,0.0,0.0,0.0,0.0,0.0,0.0,0.0,0.0,0.0,0.4244,0.0,0.0,0.5175,0.617,0.6765,0.6887,0.7033,0.7172,0.7306,0.7606,0.7704,0.7753,1.1989,1.3645,1.3034,1.1925,1.1267,1.0863,0.8547,0.667,0.5425,0.7226,0.6817,0.5213,0.6271,0.6515,0.6321,0.6359,0.7038,0.8004,0.8684,0.9341,0.0,0.0,0.0,1.0606,1.1851,1.3613,1.5424,1.6725,0.0,2.4364,0.0,2.558,2.5203,2.3288,2.2257,2.0511,1.6226,0.8585,0.2721,0.2983,0.1874,-0.0371,-0.4293,-0.3409,-0.4224,-0.9901,-0.888,-0.8156,-0.9497,-1.2811,-1.5909,-1.8414,-2.1551,-2.4661,-2.7499,-2.8247,-2.8706,-2.8983,-2.9688,-3.0241,-3.0644,-3.1719,-3.2847,-3.3995,-3.4504,-3.4396,-3.3732,-3.2883,-3.2485,-3.2504,-3.3599,-3.4021,-3.3901,-3.5072,-3.6024,-3.6676,-3.6246,-3.7401,-3.932,-3.7979,-3.8359,-3.9427,-3.7803,-3.7214,-3.7079,0.0,0.0,0.0,0.0,0.0,0.0,0.0,0.0,0.0,0.0,0.0,0.0,0.0,0.0,0.0,0.5039,0.4927,0.4503,0.3703,0.4118,0.4385,0.4388,0.5055,0.5711,0.6283,0.5722,0.5703,0.6279,0.5342,0.6461,0.9563,1.2191,1.3589,1.3801,1.2504,1.1349,1.0221,0.7326,0.5457,0.4494,0.4898,0.4444,0.3617,0.4483,0.4532,0.4361,0.5888,0.6614,0.7054,0.8296,0.885,0.9094,0.9619,0.0,0.0,0.0,1.2704,1.4787,1.7241,2.0139,2.2692,0.0,2.4399,2.4668,2.3128,2.3233,2.2781,1.9809,1.5183,1.0911,0.8447,0.0618,-0.5225,-0.448,-0.6625,-0.8309,-0.7976,-0.7209,-0.7054,-0.8254,-1.0609,-1.4419,-2.0279,-2.3201,-2.5844,-2.8558,-2.8975,-2.9489,-3.0319,-3.0633,-3.08,-3.0812,-3.1678,-3.2177,-3.2291,-3.318,-3.3661,-3.3703,-3.276,-3.2651,-3.3264,-3.3886,-3.4091,-3.4039,-3.5214,-3.5924,-3.6304,-3.6523,-3.7333,-3.8378,-3.8083,-3.8424,-3.8928,-3.761,-3.715,-3.6445,0.0,0.0,0.0,0.0,0.0,0.0,0.0,0.0,0.0,0.0,0.0,0.0,0.0,0.0,0.0,0.0,0.4824,0.4336,0.3384,0.3514,0.361,0.3573,0.3954,0.4519,0.5272,0.4474,0.4341,0.4941,0.4015,0.5945,1.0523,1.209,1.3376,1.4287,1.35,1.182,0.9478,0.6928,0.5305,0.438,0.3731,0.3402,0.3384,0.424,0.4383,0.4358,0.6101,0.6885,0.7229,0.8011,0.8454,0.8824,0.9485,0.9717,0.0,0.0,0.0,1.4082,1.737,0.0,2.0187,2.1094,2.2019,2.2362,2.0974,2.1907,2.2553,2.075,1.826,1.5908,1.4214,0.4235,-0.3118,-0.1249,-0.5604,-0.8833,-0.7678,-0.7616,-0.8459,-1.0493,-1.1962,-1.5496,-2.23,-2.515,-2.7394,-2.9323,-2.7888,-2.8095,-3.0776,-2.7802,-2.7505,-3.0712,-2.9894,-2.9978,-3.114,-3.202,-3.2883,-3.3699,-3.2752,-3.2775,-3.372,-3.4186,-3.4365,-3.4389,-3.5366,-3.5666,-3.5548,-3.6458,-3.5821,-3.4529,-3.7103,-3.7306,-3.6203,-3.6814,-3.7183,-3.622,0.0,0.0,0.0,0.0,0.0,0.0,0.0,0.0,0.0,0.0,0.0,0.0,0.5577,0.5116,0.4804,0.4814,0.4688,0.4263,0.3448,0.3059,0.2807,0.2675,0.288,0.0,0.3614,0.3816,0.3846,0.3693,0.557,0.7292,0.8885,1.1442,1.334,1.4663,1.4212,1.2245,0.9137,0.7701,0.6753,0.6147,0.5913,0.5884,0.621,0.8134,0.886,0.8757,0.8144,0.8651,0.9438,0.8302,0.8773,0.9801,0.9727,0.9529,0.9433,0.0,0.0,0.0,1.5503,1.6809,0.0,1.9081,1.9608,1.9714,1.9301,2.0597,2.1521,2.0264,1.4608,1.2256,2.0093,1.8861,1.4682,0.8642,0.5536,0.0585,-0.8885,-1.2434,-1.4728,-1.6609,-2.0302,-2.3156,-2.438,-2.7011,-2.9009,-2.9897,-2.3569,-2.2477,-2.897,-1.7752,-1.6992,-2.9843,-2.4905,-2.5283,-3.2057,-3.1941,-3.2499,-3.3773,-3.2522,-3.2346,-3.3177,-3.4209,-3.4686,-3.4722,-3.5477,-3.5327,-3.4632,-3.5505,-3.1971,-2.6747,-3.4177,-3.4058,-3.0268,-3.5122,-3.7433,-3.6858,0.0,0.0,0.0,0.0,0.0,0.0,0.0,0.0,0.0,0.0,0.0,0.0,0.0,0.5269,0.5039,0.4697,0.444,0.3864,0.289,0.2929,0.2726,0.2112,0.2327,0.2639,0.3037,0.3277,0.3496,0.3736,0.4608,0.6167,0.8346,0.9579,1.0541,1.127,1.1927,1.1832,1.0942,0.7902,0.674,0.6893,0.6349,0.6084,0.6181,0.7717,0.7463,0.6479,0.7742,0.8193,0.8256,0.8606,0.9033,0.942,0.958,0.9618,0.9711,1.0156,1.1085,1.214,0.0,0.0,1.603,1.5915,1.7366,1.8444,1.6989,1.8885,2.0599,1.9539,1.8722,1.9391,2.3359,1.4788,0.8052,1.0964,0.7357,0.4145,0.3998,-0.4802,-0.8257,-0.0217,-0.944,-1.6023,-1.4836,-1.8784,-2.2875,-2.6322,-2.5725,-2.6425,-2.9232,-2.5308,-2.5086,-2.9725,-2.8188,-2.8493,-3.1022,-3.0819,-3.1622,-3.3412,-3.2396,-3.2959,-3.4893,-3.4761,-3.2666,-2.9369,-3.3906,-3.5369,-3.455,-3.4309,-3.0298,-2.459,-2.7399,-2.4802,-1.9788,-2.1492,-2.5299,-2.7766,0.0,0.0,0.0,0.0,0.0,0.0,0.0,0.0,0.0,0.0,0.0,0.0,0.0,0.0,0.4991,0.4389,0.3878,0.3263,0.248,0.2554,0.2366,0.1761,0.1864,0.2143,0.2583,0.2735,0.293,0.3187,0.3821,0.5081,0.6906,0.7711,0.8537,0.9353,0.9478,1.0054,1.0685,0.8021,0.6873,0.6792,0.6435,0.6119,0.6003,0.7555,0.7297,0.6335,0.8186,0.8535,0.82,0.8978,0.936,0.9534,0.9719,0.9557,0.9458,1.0239,1.0897,0.0,1.2056,0.0,0.0,1.4659,1.5432,1.6088,1.6205,1.7542,1.8654,1.8131,1.996,2.2033,2.3327,1.5344,1.0481,1.6404,1.1783,0.7892,0.9172,-0.0195,-0.384,0.5161,-0.3579,-0.9273,-0.6529,-1.2201,-1.7702,-2.1705,-2.3783,-2.6322,-2.9661,-2.5878,-2.453,-2.6512,-2.9118,-3.0604,-3.0821,-3.0474,-3.1293,-3.3223,-3.267,-3.3314,-3.4954,-3.2764,-3.0729,-2.889,-2.8679,-2.8343,-2.8074,-2.9889,-2.5152,-1.699,-1.953,-1.6476,-1.0851,-1.2778,-1.6674,-1.9286,0.0,0.0,0.0,0.0,0.0,0.0,0.0,0.0,0.0,0.7606,0.0,0.0,0.0,0.0,0.0,0.388,0.3105,0.2545,0.2302,0.1918,0.1672,0.1584,0.1463,0.1647,0.2171,0.2191,0.2138,0.2025,0.3468,0.4275,0.4506,0.5959,0.7586,0.9155,0.7171,0.6937,0.8073,0.8008,0.7215,0.5993,0.6322,0.6141,0.5912,0.8069,0.8831,0.8832,0.9708,0.9836,0.9572,0.9426,0.9819,1.0313,1.0188,0.9325,0.8652,1.0171,1.0495,0.0,0.0,0.0,0.0,1.5412,1.3831,1.2643,1.6925,1.6677,1.574,1.6236,1.7689,1.9172,2.0172,2.222,2.4099,2.5281,1.9627,1.2622,0.5636,0.0537,-0.2385,-0.2142,-0.4195,-0.4135,-0.0334,-0.7827,-1.3906,-1.6301,-1.7025,-2.1194,-2.9998,-1.8198,-1.4096,-2.0483,-2.7069,-3.0867,-3.1661,-3.1008,-3.1553,-3.3273,-3.3314,-3.3335,-3.3173,-2.8188,-2.8995,-3.359,-2.0078,-1.4292,-1.4968,-2.207,-1.6249,-0.3599,-1.1049,-0.9555,-0.3952,-0.988,-1.2609,-1.2212,0.0,0.0,0.0,0.0,0.0,0.0,0.0,0.756,0.7236,0.0,0.0,0.0,0.5142,0.4968,0.471,0.4279,0.4072,0.3403,0.2022,0.1924,0.1643,0.1046,0.1222,0.1468,0.1765,0.2005,0.2276,0.2585,0.3327,0.3745,0.3879,0.4907,0.5522,0.572,0.5603,0.5457,0.5239,0.5323,0.6076,0.7118,0.6109,0.551,0.5499,0.7645,0.7891,0.7389,0.9858,1.0132,0.9598,1.0906,1.1369,1.1373,1.1007,1.0413,0.9955,1.0624,1.1357,0.0,1.2783,0.0,0.0,0.0,0.0,0.0,1.4674,1.5468,1.6163,1.7195,1.9248,2.1046,2.1584,2.3145,2.3986,2.2828,2.3088,2.2068,1.8121,1.0362,0.7288,1.326,0.6278,0.4007,1.1771,0.668,-0.1044,-1.0559,-1.321,-1.879,-2.8882,-2.6331,-2.5447,-2.7354,-2.9284,-3.0481,-3.0889,-3.0779,-3.1282,-3.2438,-3.1854,-3.2518,-3.4004,-2.7113,-2.556,-2.7791,-1.8778,-1.2132,-0.8084,-1.3435,-1.0262,-0.2296,-0.4854,-0.1333,0.4795,0.2311,-0.1639,-0.472,0.0,0.0,0.0,0.0,0.0,0.0,0.7752,0.7262,0.6769,0.0,0.0,0.0,0.5083,0.4772,0.4456,0.4099,0.3774,0.2961,0.1476,0.1516,0.1276,0.058,0.0874,0.1155,0.1389,0.1743,0.1888,0.1802,0.2584,0.2708,0.2237,0.3108,0.3657,0.3882,0.3768,0.3979,0.4339,0.3619,0.4207,0.5556,0.5029,0.4509,0.4235,0.6323,0.6652,0.6405,0.9124,1.0077,1.0168,1.1296,1.1902,1.2038,1.1344,1.0771,1.0451,1.0883,1.1553,0.0,0.0,0.0,0.0,1.2213,0.0,0.0,1.4065,1.4424,1.4849,1.6412,1.8541,2.0334,2.1144,2.2849,2.3844,2.308,2.4655,2.4875,2.1616,1.6448,1.4966,2.0296,1.467,1.2947,1.9574,1.4772,0.7417,-0.1828,-0.631,-1.3362,-2.4244,-2.8249,-3.0171,-3.0009,-3.0279,-3.0474,-3.0633,-3.0703,-3.1028,-3.1561,-3.1823,-3.25,-3.3317,-2.7116,-2.597,-2.8203,-1.5949,-0.9748,-0.8119,-0.5175,-0.1575,0.2041,0.1789,0.4395,0.8383,0.7911,0.5333,0.2676,0.0,0.0,0.0,0.8237,0.7969,0.7694,0.7438,0.6914,0.6436,0.0,0.5621,0.5342,0.5468,0.4743,0.4081,0.3724,0.2906,0.1988,0.1025,0.0986,0.0796,0.0326,0.0586,0.0865,0.1119,0.1551,0.1389,0.0598,0.1788,0.1711,0.0475,0.133,0.2195,0.2961,0.0,0.0,0.4302,0.264,0.2203,0.2668,0.3494,0.338,0.2926,0.4599,0.538,0.5934,0.8099,0.973,1.095,1.1124,1.1743,1.2312,1.1429,1.0813,1.0563,1.1257,1.1533,0.0,0.0,0.0,0.0,1.417,1.2646,0.0,1.4278,1.3561,1.2869,1.465,1.6496,1.8158,1.9426,2.1415,2.3227,2.4358,2.4409,2.3164,1.9869,1.9664,2.0284,2.1327,2.0393,2.0786,2.3582,1.8518,1.2873,0.764,0.1058,-0.7147,-1.7336,-2.5253,-2.9327,-2.8925,-3.0067,-3.0682,-3.0703,-3.0771,-3.08,-3.0817,-3.1746,-3.1777,-3.084,-2.5736,-2.624,-3.0056,-1.1385,-0.6541,-1.0982,0.188,0.7266,0.7347,0.6576,0.7183,0.844,0.7884,0.8115,0.8775,0.0,0.0,0.0,0.8171,0.795,0.7576,0.7424,0.6662,0.6127,0.6171,0.5618,0.5279,0.5414,0.4844,0.4409,0.4328,0.3574,0.2762,0.1978,0.1398,0.104,0.0937,0.1036,0.1152,0.1263,0.1913,0.2128,0.1853,0.2901,0.2722,0.1442,0.2205,0.2084,0.1222,0.1415,0.1678,0.1995,0.2156,0.2128,0.2019,0.2517,0.3354,0.4324,0.4211,0.5143,0.6648,0.8085,0.9338,1.048,1.1303,1.1858,1.2151,1.208,1.1703,1.1487,1.2637,1.272,1.2638,1.3402,1.3381,1.3317,1.423,1.2936,0.0,1.3041,1.3331,1.3401,1.3767,1.5647,1.7266,1.733,1.8501,1.9943,2.1456,2.115,2.098,2.1788,2.1051,2.0332,1.996,1.9339,2.0,2.2775,2.1711,1.7841,1.0563,0.0134,-0.7344,-1.0685,-1.7888,-2.2208,-2.2808,-2.7831,-3.0623,-3.0777,-3.0797,-3.0798,-3.0749,-2.6665,-2.4739,-2.447,-1.3552,-1.2292,-1.7862,-0.2649,0.0324,-0.4912,0.3696,0.7475,0.7338,0.0935,0.268,0.8078,0.144,0.3013,0.8456,0.0,0.0,0.0,0.0,0.7366,0.7164,0.7456,0.6554,0.5899,0.6021,0.5263,0.4722,0.4784,0.4299,0.3868,0.3659,0.3008,0.2298,0.155,0.113,0.0824,0.0659,0.0875,0.1006,0.0996,0.163,0.1749,0.1352,0.2332,0.2271,0.1261,0.1906,0.1895,0.1352,0.1344,0.1449,0.162,0.1842,0.182,0.1621,0.1907,0.2275,0.2641,0.2526,0.326,0.4565,0.6042,0.8062,1.0082,1.0776,1.0864,1.0838,1.1575,1.2025,1.233,1.2698,1.2935,1.3015,1.294,1.3153,1.3428,1.3324,1.3076,0.0,0.0,1.3076,1.3323,1.3512,1.4909,1.6263,1.6816,1.7492,1.8435,1.9777,1.919,1.8883,1.9704,2.0115,2.0137,1.9622,1.9478,1.9982,2.1516,2.2207,2.0508,1.556,0.4888,-0.196,-0.3243,-1.0687,-1.6743,-2.0721,-2.4202,-2.7553,-3.0779,-3.08,-2.9314,-2.6385,-2.4129,-2.1496,-1.8568,-1.6139,-1.6481,-1.8382,-0.837,-0.7189,-1.1484,-0.1485,0.3025,0.3538,0.2621,0.47,0.7286,0.0392,0.2127,0.7507,0.6862,0.0,0.0,0.0,0.6439,0.639,0.7064,0.6179,0.54,0.5365,0.4549,0.3942,0.3853,0.3276,0.2784,0.2561,0.1928,0.1314,0.0841,0.0684,0.0547,0.0401,0.0699,0.087,0.0877,0.1328,0.1268,0.0677,0.1649,0.1714,0.0924,0.1494,0.1703,0.1612,0.1295,0.1331,0.1617,0.1805,0.1676,0.1382,0.1533,0.1152,0.0489,0.0833,0.1403,0.2276,0.4209,0.6788,0.9335,0.9978,0.9758,0.9516,1.0935,1.1942,1.2544,1.2294,1.2662,1.3024,1.2352,1.2941,1.3501,1.2473,1.2981,1.3565,0.0,0.0,0.0,1.3427,1.4376,1.5477,1.6432,1.6889,1.7364,1.8216,1.7848,1.7262,1.6757,1.8392,1.9505,1.9185,1.9476,1.979,2.0016,2.0957,2.0906,1.9342,1.1223,0.5676,0.4155,-0.3399,-1.1008,-1.8277,-2.0387,-2.4328,-3.044,-3.0693,-2.7835,-2.203,-2.1749,-1.8331,-1.2453,-1.758,-1.892,-1.6992,-1.223,-1.2186,-1.4773,-0.5659,-0.0826,0.1059,0.3614,0.5738,0.6698,0.1086,0.2652,0.6971,0.5513,0.5264,0.0,0.0,0.5208,0.5074,0.5571,0.4961,0.4188,0.3417,0.3235,0.302,0.266,0.1642,0.1191,0.1622,0.0766,0.0376,0.0772,0.0511,0.0572,0.1064,0.1135,0.1266,0.1491,0.1673,0.1612,0.1293,0.2414,0.2405,0.1349,0.2,0.1593,0.0334,0.0818,0.0859,0.0676,0.226,0.2273,0.1266,0.1553,0.1104,0.0246,0.0462,0.1254,0.2507,0.4891,0.641,0.7536,0.914,0.9422,0.9395,1.114,1.1405,1.1292,1.2037,1.2309,1.2414,1.2707,1.2822,1.2796,1.267,1.2491,1.2399,1.2728,0.0,1.3491,1.3078,0.0,1.533,1.4966,0.0,0.0,1.5711,1.6538,1.6795,1.5794,1.6984,1.7854,1.7516,1.7933,1.828,1.8375,1.8038,1.7849,1.7913,1.5891,1.343,1.0689,0.4293,-0.2874,-1.0769,-1.7503,-2.3713,-2.9411,-3.0308,-2.7854,-2.2111,-1.7165,-1.1498,-0.53,-0.0916,0.1488,0.2335,0.3558,0.3942,0.3442,-0.0343,0.1594,0.5939,-0.4992,-0.2126,0.7364,0.0738,0.2481,0.8117,0.4718,0.4658,0.0,0.0,0.446,0.4312,0.4969,0.4159,0.3262,0.2689,0.236,0.2069,0.1696,0.1517,0.1338,0.1057,0.0523,0.0286,0.0557,0.0297,0.0142,0.021,0.0929,0.0953,0.0167,0.1008,0.1149,0.0525,0.1668,0.1942,0.141,0.1923,0.1884,0.1368,0.1201,0.0966,0.0717,0.1171,0.0975,0.028,-0.0121,-0.0591,-0.0975,-0.0584,0.032,0.1598,0.3485,0.4402,0.5019,0.6839,0.8022,0.8857,0.9461,1.0259,1.0937,1.1251,1.1621,1.1985,1.2073,1.2256,1.2331,1.1699,1.1633,1.1855,1.243,1.2685,1.3023,1.3744,0.0,0.0,0.0,0.0,0.0,0.0,1.5242,1.5143,1.4597,1.5385,1.6025,1.6045,1.6498,1.703,1.7694,1.662,1.6463,1.7722,1.5831,1.4041,1.2769,0.924,0.3672,-0.4147,-1.0941,-1.7659,-2.4358,-2.446,-2.1872,-1.6608,-1.0986,-0.5128,0.0757,-0.0864,-0.092,0.0247,0.0243,-0.1156,-0.3286,-0.1901,0.0565,0.2909,-0.2198,0.0753,0.7132,0.1576,0.3155,0.756,0.3604,0.0,0.0,0.0,0.3305,0.3188,0.3589,0.2908,0.2228,0.179,0.1309,0.0917,0.0746,0.0745,0.0574,0.0,-0.0233,-0.0391,-0.042,-0.0273,-0.0234,-0.0365,0.0447,0.045,-0.0559,0.0383,0.0521,-0.0203,0.0883,0.137,0.1294,0.161,0.1728,0.1642,0.1087,0.068,0.0392,0.0272,-0.0107,-0.0639,-0.1176,-0.1629,-0.1911,-0.143,-0.0439,0.0837,0.1831,0.2554,0.3348,0.482,0.6339,0.7632,0.7936,0.9046,1.0236,1.0279,1.0779,1.13,1.1242,1.1459,1.1471,1.0644,1.0753,1.1196,1.1895,1.213,1.2646,1.4012,1.4127,0.0,0.0,0.0,1.447,1.4719,0.0,1.4207,1.3898,1.4384,1.4796,1.4906,1.5117,1.5515,1.6182,1.5077,1.5046,1.6825,1.5131,1.3729,1.309,1.2301,0.7488,-0.2132,-0.6967,-1.3656,-2.2539,-2.2455,-1.9153,-1.2788,-0.8721,-0.2767,0.4335,-0.0798,-0.2347,-0.0886,-0.1217,-0.3025,-0.5397,-0.2239,0.0337,0.2245,0.1308,0.3703,0.7229,0.3927,0.481,0.7081,0.1742,0.1901,0.0,0.148,0.1436,0.1302,0.08,0.0937,0.0905,0.0413,-0.0209,-0.0519,-0.0281,-0.1464,-0.2158,-0.1939,-0.1971,-0.2162,-0.2483,-0.1281,-0.0423,-0.0036,-0.0235,-0.0146,0.0241,0.0118,-0.0134,-0.0496,0.0461,0.0951,0.1015,0.1086,0.0752,0.0066,-0.002,-0.0355,-0.0775,0.0107,-0.0207,-0.1224,-0.0822,-0.1284,-0.2138,-0.1756,-0.0632,0.067,0.0391,0.1504,0.3152,0.3641,0.4429,0.5598,0.7108,0.8022,0.86,0.9263,0.9725,1.0143,1.0535,1.0367,1.0034,0.9872,0.9917,1.0241,1.0953,1.1797,1.2597,1.3373,1.4287,1.4855,1.4566,1.4442,1.4359,1.4169,1.449,0.0,0.0,1.4349,1.4521,1.4265,1.3825,1.3448,1.3074,1.2767,1.3133,1.4522,1.4873,1.4114,1.197,1.3297,0.7493,-0.691,-0.8005,-1.4347,-2.6884,-2.7869,-2.3224,-1.3174,-1.2855,-0.6641,0.4564,0.4146,0.4731,0.6048,0.584,0.6408,0.6958,0.126,0.2513,0.7555,0.2493,0.3621,0.8127,0.8299,0.7836,0.7181,0.0,0.0,0.0,0.0991,0.0936,0.0665,0.0035,-0.043,-0.0761,-0.0946,-0.103,-0.1109,-0.1104,-0.0949,-0.1332,-0.2472,-0.1518,-0.1111,-0.1758,-0.0753,-0.0502,-0.1337,0.0,0.0063,-0.1514,0.0115,0.036,-0.0973,0.029,0.0895,0.086,0.0893,0.0572,-0.0024,-0.0302,-0.088,-0.1601,-0.1439,-0.1498,-0.1761,-0.1868,-0.2401,-0.306,-0.2288,-0.1315,-0.0391,-0.0504,0.0165,0.1131,0.1532,0.2429,0.3444,0.3876,0.5207,0.6676,0.6916,0.7659,0.8488,0.9153,0.9146,0.8985,0.9054,0.903,0.9117,0.9606,1.0671,1.16,1.1796,1.2983,1.3879,1.3531,1.3583,1.3685,1.36,1.3516,1.3327,0.0,1.2926,1.2583,1.1608,1.1749,1.1905,1.1914,1.1375,1.1845,1.3765,1.3136,1.2494,1.2079,1.2328,0.9632,0.344,-0.0081,-0.4666,-1.048,-1.0311,-0.8998,-0.6548,-0.2599,0.1523,0.555,0.4688,0.4821,0.5679,0.562,0.6277,0.7216,0.5675,0.6731,0.9148,0.7535,0.7731,0.9007,0.9248,0.8667,0.7776,0.0239,-0.0121,-0.0303,0.0148,-0.0031,-0.046,-0.106,-0.1449,-0.1755,-0.1936,-0.1864,-0.1854,-0.1973,-0.1542,-0.1783,-0.3103,-0.1939,-0.1446,-0.225,-0.124,-0.1006,-0.1965,-0.0604,-0.046,-0.1882,-0.0102,0.0235,-0.0997,0.0278,0.084,0.0713,0.0413,0.0224,0.0103,-0.0915,-0.1457,-0.168,-0.2467,-0.2626,-0.2386,-0.2817,-0.338,-0.3907,-0.2963,-0.2066,-0.1227,-0.1231,-0.0718,-0.0054,0.0213,0.0781,0.1479,0.1882,0.3214,0.4652,0.5043,0.5882,0.6921,0.7824,0.7932,0.7926,0.8348,0.843,0.8497,0.8842,0.9843,1.0714,1.0775,1.1925,1.2833,1.2715,1.2679,1.2698,1.2782,1.2375,1.2067,0.0,1.1896,1.1387,1.0436,1.0808,1.089,1.0195,1.0046,1.0676,1.2288,1.1937,1.1554,1.1304,1.1667,0.9813,0.5246,0.2221,-0.1231,-0.5247,-0.4893,-0.4271,-0.3364,0.0469,0.3484,0.5683,0.4818,0.4752,0.5276,0.5087,0.574,0.7033,0.7499,0.8362,0.9399,0.9767,0.965,0.9264,0.9422,0.8907,0.7977,-0.1159,-0.1189,-0.1167,-0.106,-0.1429,-0.1913,-0.2402,-0.2172,-0.2127,-0.2611,-0.2806,-0.2905,-0.2993,-0.3211,-0.3468,-0.3804,-0.3157,-0.3044,-0.3899,-0.2595,-0.1842,-0.1864,-0.192,-0.1612,-0.0895,-0.0539,-0.0469,-0.0623,0.0357,0.0754,0.0576,-0.0268,-0.0335,0.0184,-0.1772,-0.2091,-0.1238,-0.2993,-0.3486,-0.3142,-0.3479,-0.4076,-0.4577,-0.3802,-0.2843,-0.1889,-0.1843,-0.1173,-0.0277,-0.0376,-0.0425,-0.0212,0.1114,0.2012,0.2699,0.3658,0.4541,0.5528,0.6641,0.6828,0.6854,0.7703,0.8084,0.83,0.8622,0.9338,1.0011,1.024,1.107,1.1827,1.2088,1.1658,1.1361,1.1708,1.1146,1.0913,1.1586,1.1321,1.0957,1.0649,1.0959,1.0299,0.8014,0.8848,0.9734,1.022,1.1375,1.1335,0.9701,1.1322,0.8116,-0.0863,-0.0538,-0.3537,-1.0459,-1.0831,-0.8448,-0.3423,-0.3361,-0.0405,0.5017,0.4622,0.4683,0.5074,0.4414,0.5074,0.6658,0.6711,0.7418,0.8456,0.9098,0.9117,0.886,0.9101,0.8596,0.7847,-0.1352,-0.1864,-0.22,-0.1856,-0.1423,-0.1338,-0.1977,-0.2569,-0.3075,-0.3423,-0.3729,-0.396,-0.4118,-0.3791,-0.374,-0.4277,-0.3415,-0.2927,-0.3162,-0.2399,-0.1863,-0.1668,-0.1393,-0.1435,-0.1855,-0.0635,-0.039,-0.1132,-0.0306,0.028,0.0674,0.01,-0.0609,-0.1388,-0.1637,-0.2228,-0.3135,-0.396,-0.4302,-0.4326,-0.4312,-0.4365,-0.4519,-0.4401,-0.3956,-0.3347,-0.2685,-0.1984,-0.1352,-0.1648,-0.1547,-0.1184,-0.0706,0.0484,0.1796,0.2565,0.3776,0.5068,0.6063,0.6195,0.6125,0.6639,0.6752,0.6925,0.7345,0.8244,0.8965,0.9062,0.9854,1.0429,1.0112,1.0112,1.0166,1.0054,1.0214,1.0244,1.0052,1.0391,1.0379,0.9607,0.9584,0.9131,0.777,0.8992,0.9869,0.9849,1.0778,1.0975,1.0073,1.0184,0.8643,0.5221,0.5009,0.3599,0.0683,0.0526,0.0885,0.1765,0.1645,0.2389,0.385,0.246,0.1931,0.2129,0.1664,0.2262,0.3595,0.4259,0.5404,0.6713,0.6768,0.7263,0.7879,0.8222,0.8209,0.796,-0.1805,-0.2371,-0.2731,-0.232,-0.2188,-0.2284,-0.2623,-0.293,-0.3387,-0.4191,-0.4378,-0.4489,-0.4728,-0.4355,-0.4232,-0.465,-0.3907,-0.343,-0.354,-0.2858,-0.2447,-0.2352,-0.1994,-0.1883,-0.2012,-0.1216,-0.0826,-0.1006,-0.0455,-0.0097,0.0067,-0.0636,-0.1265,-0.1848,-0.2431,-0.2958,-0.3434,-0.4034,-0.4502,-0.4748,-0.4288,-0.4277,0.0,-0.4294,-0.4076,-0.3747,-0.3249,-0.2711,-0.2237,-0.2225,-0.2235,-0.2177,-0.1661,-0.0981,-0.0054,0.1284,0.2397,0.353,0.482,0.522,0.5352,0.6,0.6103,0.6207,0.6506,0.7071,0.7549,0.7501,0.8074,0.8582,0.8679,0.8423,0.8159,0.8062,0.8667,0.906,0.8735,0.8966,0.8952,0.8417,0.8009,0.751,0.6869,0.8036,0.8753,0.8607,0.9288,0.9264,0.8312,0.8354,0.7659,0.5992,0.552,0.4879,0.3999,0.3595,0.3273,0.3026,0.2873,0.2607,0.2212,0.1239,0.0592,0.0266,-0.0067,0.0599,0.1866,0.2531,0.3786,0.5311,0.5798,0.6286,0.6687,0.6749,0.7242,0.7791,-0.2523,-0.2959,-0.323,-0.2768,-0.323,-0.377,-0.4023,-0.3605,-0.3634,-0.4771,-0.4944,-0.5069,-0.5166,-0.5054,-0.5074,-0.5236,-0.469,-0.4367,-0.4449,-0.3698,-0.3189,-0.3081,-0.2963,-0.2536,-0.1874,-0.1883,-0.1465,-0.0676,-0.0415,-0.0414,-0.0682,-0.1646,-0.197,-0.1833,-0.3398,-0.3711,-0.314,-0.3789,-0.4372,-0.4828,-0.4075,-0.4066,-0.4408,-0.4024,-0.3749,-0.3638,-0.3749,-0.3411,-0.285,-0.2462,-0.2685,-0.2965,-0.2137,-0.2039,-0.1915,0.006,0.097,0.169,0.3472,0.4146,0.4544,0.5408,0.5606,0.5665,0.5747,0.5864,0.5951,0.5992,0.6158,0.6556,0.7359,0.6628,0.6002,0.6053,0.6979,0.7644,0.7431,0.7399,0.7351,0.7205,0.64,0.0,0.5643,0.6619,0.723,0.7132,0.7549,0.7279,0.6033,0.6433,0.5962,0.4283,0.3495,0.296,0.2681,0.2023,0.1707,0.1769,0.1754,0.1182,0.0128,0.0064,-0.0453,-0.1332,-0.1467,-0.0733,0.0599,0.0999,0.2192,0.3794,0.5066,0.5453,0.5126,0.4678,0.5656,0.6973,-0.3804,-0.4295,-0.4616,-0.4276,-0.355,-0.3671,-0.5758,-0.5399,-0.4931,-0.5116,-0.6289,-0.6821,-0.6233,-0.6759,-0.7131,-0.6977,-0.6507,-0.5796,-0.4793,-0.4247,-0.3384,-0.213,-0.2406,-0.2458,-0.2109,-0.1862,-0.1536,-0.1106,-0.0897,-0.0643,-0.0398,-0.1112,-0.1865,-0.2596,-0.2527,-0.3113,-0.4149,-0.4219,-0.4659,-0.525,-0.4908,-0.4545,-0.4304,-0.5014,-0.4684,-0.4021,-0.4515,-0.3959,-0.3019,-0.285,-0.3019,-0.3205,-0.2429,-0.1967,-0.1396,0.0062,0.0888,0.1721,0.3183,0.3482,0.3549,0.402,0.4217,0.4403,0.4558,0.4614,0.4764,0.5282,0.4949,0.4773,0.5171,0.5229,0.5129,0.4919,0.6138,0.674,0.5553,0.6569,0.7064,0.6097,0.5475,0.4983,0.4744,0.6178,0.6987,0.6641,0.7173,0.7332,0.6981,0.5764,0.504,0.4939,0.3331,0.2182,0.1563,0.1216,0.0715,-0.0061,-0.0245,-0.1073,-0.232,-0.3101,-0.3637,-0.3949,-0.3941,-0.3274,-0.2009,-0.1338,-0.0268,0.1142,0.2707,0.303,0.2417,0.2164,0.2652,0.3563,-0.5096,-0.5139,-0.5026,-0.4879,-0.4672,-0.4845,-0.5742,-0.6126,-0.6337,-0.6421,-0.6541,-0.6579,-0.6644,-0.7216,-0.7356,-0.6915,-0.6869,-0.6528,-0.5827,-0.4914,-0.3946,-0.2985,-0.3327,-0.3327,-0.2889,-0.2801,-0.2619,-0.2453,-0.1677,-0.156,-0.205,-0.1903,-0.2254,-0.3017,-0.3,-0.3556,-0.4567,-0.4819,-0.5074,-0.5309,-0.5157,-0.4812,-0.4522,-0.5014,-0.4739,-0.4135,-0.4574,-0.4242,-0.3633,-0.3519,-0.3463,-0.3304,-0.2677,-0.24,-0.1906,-0.037,0.0251,0.0697,0.1923,0.2281,0.2417,0.2753,0.2887,0.2952,0.3284,0.3418,0.3508,0.3731,0.361,0.3526,0.3793,0.4305,0.4554,0.4108,0.5004,0.5424,0.4414,0.4987,0.5333,0.477,0.4135,0.3736,0.3635,0.4223,0.4666,0.4815,0.5551,0.5788,0.5263,0.4418,0.3959,0.3962,0.263,0.1683,0.1203,0.0594,-0.0243,-0.1355,-0.1688,-0.2617,-0.3991,-0.4513,-0.4948,-0.5292,-0.4951,-0.435,-0.342,-0.2347,-0.1273,-0.0269,0.0967,0.1117,0.0562,0.0815,0.0905,0.1135,-0.624,-0.5927,-0.552,-0.5592,-0.5962,-0.6092,-0.5672,-0.6535,-0.7354,-0.7512,-0.6871,-0.659,-0.7107,-0.7649,-0.7751,-0.7192,-0.737,-0.7321,-0.6894,-0.5691,-0.4735,-0.4125,-0.4244,-0.4133,-0.3599,-0.3634,-0.3614,-0.3646,-0.2454,-0.2462,-0.3486,-0.2789,-0.2764,-0.3351,-0.3715,-0.4362,-0.5168,-0.5277,-0.5424,-0.553,-0.5314,-0.5039,-0.4857,-0.4997,-0.4768,-0.4359,-0.4574,-0.4467,-0.4249,-0.4079,-0.3685,-0.3236,-0.2736,-0.2597,-0.2305,-0.0728,-0.0372,-0.0253,0.0863,0.121,0.1412,0.1681,0.1748,0.1746,0.22,0.2341,0.238,0.2366,0.2326,0.2378,0.2619,0.3294,0.3664,0.307,0.375,0.4113,0.3364,0.3451,0.354,0.3326,0.2789,0.2358,0.2164,0.2246,0.2422,0.2662,0.3565,0.3876,0.3332,0.3041,0.2764,0.2562,0.168,0.1058,0.0697,-0.0121,-0.1174,-0.2427,-0.2925,-0.3862,-0.5176,-0.5272,-0.5539,-0.5822,-0.5422,-0.4885,-0.422,-0.2815,-0.1942,-0.1407,-0.0412,-0.0346,-0.0766,-0.0146,-0.0299,-0.0603,-0.7,-0.7029,-0.6967,-0.7146,-0.6681,-0.6398,-0.6795,-0.6983,-0.7164,-0.7296,-0.8326,-0.878,-0.8044,-0.9015,-0.9679,-0.9673,-0.9424,-0.8776,-0.757,-0.658,-0.5597,-0.4484,-0.4082,-0.3898,-0.3935,-0.3545,-0.35,-0.38,-0.2946,-0.2626,-0.2891,-0.2927,-0.3213,-0.3761,-0.405,-0.5059,-0.6544,-0.5369,-0.5456,-0.6319,-0.5754,-0.5422,-0.5262,-0.5588,-0.5265,-0.4688,-0.4959,-0.4853,-0.4577,-0.4135,-0.3633,-0.3019,-0.2406,-0.2041,-0.1589,-0.0614,-0.0384,-0.0267,0.094,0.0874,0.0605,0.121,0.1143,0.1068,0.1692,0.165,0.1521,0.1746,0.1386,0.117,0.1405,0.1778,0.1911,0.1383,0.2621,0.3197,0.1951,0.2467,0.2661,0.1827,0.1601,0.1135,0.01,0.1433,0.1916,0.0752,0.1665,0.2472,0.3025,0.205,0.1465,0.1464,0.074,0.0052,-0.0507,-0.1135,-0.2178,-0.3585,-0.3967,-0.4739,-0.5796,-0.5841,-0.5732,-0.5617,-0.555,-0.5153,-0.4492,-0.3153,-0.2686,-0.2686,-0.1277,-0.1145,-0.1694,-0.1254,-0.1288,-0.1616,-0.7428,-0.6965,-0.6706,-0.7127,-0.7115,-0.7348,-0.8359,-0.7947,-0.7865,-0.8746,-0.8746,-0.8623,-0.8559,-0.9128,-0.9402,-0.9157,-0.8618,-0.8165,-0.7816,-0.6986,-0.6159,-0.5437,-0.5391,-0.5233,-0.4911,-0.4684,-0.4758,-0.5101,-0.3696,-0.3364,-0.3985,-0.331,-0.3409,-0.4111,-0.4409,-0.5054,-0.5837,-0.5818,-0.6011,-0.6246,-0.6114,-0.5852,-0.5521,-0.5819,-0.552,-0.4963,-0.5073,-0.4849,-0.4463,-0.363,-0.3186,-0.286,-0.2058,-0.1525,-0.1088,-0.0501,-0.0445,-0.058,-0.0333,-0.0398,-0.0461,-0.0268,-0.0269,-0.0201,0.0331,0.04,0.0531,0.1149,0.1278,0.1171,0.0867,0.0836,0.0845,0.0585,0.1381,0.195,0.1628,0.1833,0.1894,0.161,0.0973,0.0392,-0.0067,0.0486,0.0766,0.0418,0.1577,0.2193,0.195,0.1485,0.1077,0.073,0.0,-0.0574,-0.1063,-0.1848,-0.272,-0.3755,-0.4261,-0.4858,-0.5468,-0.5593,-0.5527,-0.5488,-0.545,-0.516,-0.4628,-0.3825,-0.3491,-0.3422,-0.2681,-0.2614,-0.2829,-0.2423,-0.2207,-0.212,-0.7507,-0.7583,-0.7949,-0.8345,-0.8896,-0.9475,-1.0034,-0.9,-0.8603,-0.9913,-0.9241,-0.8765,-0.8882,-0.921,-0.9145,-0.8705,-0.8318,-0.8034,-0.7955,-0.7559,-0.7062,-0.6495,-0.6677,-0.6553,-0.6077,-0.5802,-0.5886,-0.6349,-0.4665,-0.4242,-0.4945,-0.3976,-0.3872,-0.4471,-0.4873,-0.5242,-0.5625,-0.594,-0.6162,-0.6335,-0.6228,-0.6,-0.5736,-0.5958,-0.5669,-0.5128,-0.5018,-0.4739,-0.4181,-0.3186,-0.2701,-0.2334,-0.1514,-0.1005,-0.0663,-0.0315,-0.0316,-0.0568,-0.1051,-0.1178,-0.1167,-0.1268,-0.1412,-0.1271,-0.0592,-0.0528,-0.0264,0.0776,0.1044,0.0943,0.0535,0.0282,0.0106,-0.0051,0.0541,0.1049,0.1101,0.1099,0.1052,0.1005,0.0378,-0.0179,-0.0414,-0.0096,0.0063,-0.0102,0.1137,0.1602,0.087,0.0616,0.0197,-0.0498,-0.0828,-0.1252,-0.1842,-0.2538,-0.3227,-0.3994,-0.4519,-0.4951,-0.5271,-0.5275,-0.5398,-0.5583,-0.5359,-0.5098,-0.4904,-0.4348,-0.4028,-0.3825,-0.3625,-0.3489,-0.3364,-0.309,-0.2829,-0.2555,-0.7085,-0.9486,-1.1538,-1.1538,-1.2614,-1.3038,-1.1758,-0.9958,-0.9198,-1.0428,-1.0117,-0.9606,-0.9227,-0.9402,-0.9332,-0.9017,-0.928,-0.907,-0.8171,-0.8473,-0.8369,-0.7596,-0.7661,-0.7607,-0.7369,-0.6576,-0.6534,-0.7192,-0.5829,-0.5217,-0.5293,-0.4941,-0.4795,-0.4801,-0.5365,-0.5937,-0.6406,-0.5492,-0.5809,-0.6815,-0.6102,-0.5901,-0.6023,-0.6054,-0.5784,-0.5242,-0.4857,-0.4405,-0.3898,-0.3021,-0.2175,-0.141,-0.0824,-0.0542,-0.037,0.0,0.0063,-0.0129,-0.0644,-0.1159,-0.1557,-0.1335,-0.1813,-0.205,-0.0624,-0.082,-0.0902,0.0579,0.043,0.0119,0.0367,0.0059,-0.0329,-0.0715,0.0151,0.0696,0.0096,0.0138,0.0088,-0.0338,-0.0347,-0.0616,-0.1414,-0.0164,0.0129,-0.1186,-0.0172,0.0349,-0.0078,-0.0702,-0.1497,-0.245,-0.1876,-0.2085,-0.3174,-0.3342,-0.3752,-0.4418,-0.4911,-0.5275,-0.551,-0.5083,-0.5328,-0.6073,-0.5199,-0.5014,-0.5212,-0.4578,-0.4164,-0.3961,-0.3629,-0.3362,-0.3159,-0.3025,-0.2924,-0.2842,-0.9392,-0.9867,-1.018,-1.018,-1.0149,-1.0128,-1.0168,-0.9837,-0.9773,-1.011,-1.0308,-1.0244,-0.9919,-0.9652,-0.9454,-0.9332,-0.9215,-0.885,-0.8326,-0.8442,-0.8389,-0.8103,-0.8103,-0.7979,-0.7682,-0.7223,-0.6899,-0.6712,-0.5822,-0.5214,-0.4902,-0.4969,-0.5038,-0.5179,-0.5977,-0.6171,-0.5905,-0.5958,-0.599,-0.5987,-0.5958,-0.6009,-0.6123,-0.6073,-0.5843,-0.5576,-0.4912,-0.4353,-0.3738,-0.2968,-0.2463,-0.2008,-0.1327,-0.0795,-0.0432,-0.0555,-0.0612,-0.0793,-0.1679,-0.2,-0.2204,-0.2724,-0.2915,-0.2808,-0.2232,-0.1361,-0.0579,-0.0451,0.0061,0.0235,-0.029,-0.0614,-0.0847,-0.0933,-0.0388,0.0048,-0.0138,0.0088,0.0043,-0.0589,-0.0637,-0.0689,-0.0801,-0.0468,-0.0285,-0.0419,-0.0693,-0.0932,-0.1035,-0.0989,-0.1569,-0.2951,-0.2693,-0.2849,-0.3554,-0.3823,-0.4024,-0.4267,-0.4773,-0.5057,-0.5057,-0.4944,-0.5052,-0.5357,-0.5275,-0.5075,-0.4826,-0.4572,-0.4295,-0.4028,-0.403,-0.4033,-0.3907,-0.3635,-0.367,-0.3715,-0.9792,-0.9414,-0.9291,-0.9798,-0.9157,-0.8899,-0.9977,-1.0522,-1.0711,-1.0296,-1.0555,-1.0555,-0.997,-0.9518,-0.932,-0.9518,-0.9274,-0.9018,-0.8726,-0.8669,-0.8663,-0.8688,-0.8749,-0.8621,-0.8371,-0.7747,-0.7291,-0.6997,-0.61,-0.5411,-0.494,-0.5287,-0.5318,-0.5182,-0.6024,-0.6095,-0.5622,-0.5837,-0.5887,-0.5828,-0.5778,-0.5891,-0.6119,-0.5786,-0.5563,-0.5289,-0.4574,-0.394,-0.3408,-0.2697,-0.2329,-0.2132,-0.1819,-0.1354,-0.0939,-0.0988,-0.1033,-0.1201,-0.2117,-0.2505,-0.2793,-0.3516,-0.3685,-0.3606,-0.3073,-0.178,-0.0685,-0.0747,-0.0363,-0.0175,-0.0733,-0.0926,-0.1045,-0.123,-0.0827,-0.0434,-0.0423,-0.0272,-0.0307,-0.0647,-0.1009,-0.1108,-0.0804,-0.1091,-0.1183,-0.0948,-0.1387,-0.1782,-0.2062,-0.1806,-0.235,-0.3809,-0.3484,-0.3576,-0.4314,-0.4176,-0.4166,-0.4304,-0.4509,-0.4727,-0.4901,-0.4734,-0.4837,-0.5243,-0.5286,-0.5175,-0.4938,-0.4748,-0.4495,-0.4295,-0.43,-0.4233,-0.4175,-0.3971,-0.3992,-0.3953,-0.8705,-0.8517,-0.8899,-1.0308,-0.9408,-0.9092,-1.0975,-1.1703,-1.172,-1.0701,-1.094,-1.0737,-0.9646,-0.9064,-0.9005,-0.953,-0.946,-0.932,-0.9175,-0.9069,-0.9081,-0.9274,-0.9414,-0.9414,-0.9274,-0.8115,-0.7568,-0.7715,-0.6529,-0.5732,-0.5297,-0.5732,-0.5559,-0.4952,-0.5555,-0.5723,-0.5508,-0.5234,-0.5513,-0.6064,-0.5559,-0.5614,-0.5946,-0.5399,-0.5011,-0.4673,-0.3901,-0.3416,-0.3029,-0.2267,-0.1971,-0.1973,-0.217,-0.2097,-0.1862,-0.143,-0.1293,-0.1469,-0.2259,-0.2773,-0.3224,-0.3702,-0.4202,-0.4232,-0.3072,-0.2116,-0.1241,-0.0591,-0.0824,-0.1104,-0.1009,-0.0868,-0.0996,-0.1512,-0.1099,-0.0698,-0.075,-0.0871,-0.0887,-0.0634,-0.1353,-0.1731,-0.1324,-0.1867,-0.2341,-0.2478,-0.2231,-0.2328,-0.2952,-0.3041,-0.3614,-0.4796,-0.4151,-0.422,-0.5222,-0.446,-0.4187,-0.4463,-0.4304,-0.4467,-0.4897,-0.4467,-0.4688,-0.5529,-0.5251,-0.5332,-0.554,-0.5104,-0.4897,-0.4827,-0.4498,-0.4231,-0.4028,-0.3971,-0.3968,-0.3862,-0.9291,-0.8835,-0.8776,-0.9606,-0.9092,-0.9219,-1.1482,-1.047,-0.9688,-1.0467,-1.1122,-1.0996,-0.9664,-0.9075,-0.9233,-1.0238,-0.9186,-0.856,-0.8635,-0.8765,-0.8964,-0.9221,-0.928,-0.9274,-0.9081,-0.8471,-0.7712,-0.6716,-0.5785,-0.5179,-0.5011,-0.5234,-0.5179,-0.4952,-0.5614,-0.5614,-0.5007,-0.5445,-0.5563,-0.5517,-0.5508,-0.5677,-0.5845,-0.5786,-0.5618,-0.5285,-0.4401,-0.3694,-0.3161,-0.254,-0.258,-0.2931,-0.2767,-0.3037,-0.3224,-0.275,-0.2301,-0.215,-0.3151,-0.3119,-0.3098,-0.4025,-0.4208,-0.3946,-0.3236,-0.2704,-0.2331,-0.2268,-0.1822,-0.1443,-0.1577,-0.1255,-0.09,-0.0748,-0.063,-0.0534,-0.0505,-0.0668,-0.0975,-0.1585,-0.1643,-0.1751,-0.2027,-0.2012,-0.2038,-0.211,-0.255,-0.2756,-0.2616,-0.3386,-0.4029,-0.4442,-0.4351,-0.4429,-0.468,-0.4463,-0.4298,-0.4132,-0.4411,-0.4684,-0.4897,-0.4688,-0.4691,-0.4927,-0.5483,-0.557,-0.5358,-0.5807,-0.5811,-0.5352,-0.4885,-0.4622,-0.4436,-0.3986,-0.4102,-0.4421,-0.9098,-0.8969,-0.9167,-0.9802,-0.9242,-0.9426,-1.1491,-1.0579,-1.0012,-1.0946,-1.0807,-1.0364,-0.9612,-0.8431,-0.8252,-0.9497,-0.8727,-0.8102,-0.8071,-0.8425,-0.8705,-0.8894,-0.9215,-0.9157,-0.8593,-0.8346,-0.7497,-0.6072,-0.5793,-0.5365,-0.4794,-0.5014,-0.4959,-0.4736,-0.512,-0.5175,-0.4956,-0.5281,-0.5449,-0.5622,-0.5508,-0.5622,-0.5795,-0.5622,-0.5395,-0.5117,-0.4453,-0.3993,-0.3653,-0.3208,-0.3329,-0.3713,-0.3455,-0.3607,-0.3794,-0.3378,-0.2893,-0.2587,-0.3251,-0.3225,-0.3235,-0.4027,-0.4009,-0.3753,-0.3361,-0.3061,-0.2819,-0.2845,-0.2395,-0.2061,-0.2094,-0.162,-0.1182,-0.1001,-0.085,-0.0665,-0.0524,-0.0751,-0.1089,-0.1324,-0.1691,-0.1971,-0.2012,-0.2499,-0.2734,-0.2591,-0.3265,-0.3497,-0.3103,-0.3791,-0.4239,-0.4285,-0.4331,-0.4522,-0.4794,-0.4629,-0.4408,-0.4024,-0.4408,-0.4574,-0.4515,-0.4467,-0.4619,-0.4978,-0.5399,-0.5559,-0.553,-0.5841,-0.5749,-0.5488,-0.4954,-0.4758,-0.4637,-0.4165,-0.4324,-0.4614,-0.904,-0.9421,-0.9939,-1.0398,-0.9758,-0.97,-1.1243,-1.1339,-1.1338,-1.1468,-1.0162,-0.9221,-0.9221,-0.7591,-0.7073,-0.8252,-0.8117,-0.7962,-0.7832,-0.8151,-0.8447,-0.8624,-0.9151,-0.9053,-0.8261,-0.8048,-0.7269,-0.5827,-0.6138,-0.5741,-0.4743,-0.4963,-0.4904,-0.4625,-0.4574,-0.4739,-0.5069,-0.4956,-0.5285,-0.5782,-0.5391,-0.5399,-0.5681,-0.5348,-0.5011,-0.4732,-0.4421,-0.4286,-0.4161,-0.3912,-0.4064,-0.4304,-0.407,-0.408,-0.4143,-0.3851,-0.3366,-0.3024,-0.3182,-0.3353,-0.3535,-0.3828,-0.3811,-0.369,-0.3501,-0.324,-0.3087,-0.3072,-0.2909,-0.2781,-0.2683,-0.202,-0.1528,-0.1557,-0.1244,-0.087,-0.0558,-0.0995,-0.1232,-0.0815,-0.1686,-0.2241,-0.1998,-0.3013,-0.3579,-0.334,-0.3868,-0.4075,-0.3711,-0.4046,-0.4207,-0.4184,-0.4277,-0.4522,-0.5014,-0.4743,-0.4356,-0.3968,-0.4242,-0.4298,-0.4024,-0.4104,-0.4512,-0.5104,-0.5171,-0.5388,-0.5784,-0.5625,-0.5491,-0.5359,-0.5027,-0.4764,-0.4697,-0.4367,-0.4431,-0.4579,-1.095,-1.106,-1.1051,-1.0867,-1.0473,-1.0485,-1.1312,-1.1795,-1.184,-1.1035,-0.9136,-0.7782,-0.7782,-0.7526,-0.7396,-0.7657,-0.7857,-0.8371,-0.9139,-0.8376,-0.8252,-0.9028,-0.9087,-0.9,-0.8896,-0.8253,-0.7404,-0.6309,-0.6209,-0.5745,-0.5018,-0.4853,-0.4904,-0.5171,-0.4794,-0.4739,-0.4956,-0.5014,-0.5014,-0.4908,-0.4956,-0.5066,-0.5234,-0.5559,-0.5395,-0.503,-0.4989,-0.4653,-0.4191,-0.3926,-0.4209,-0.4644,-0.4495,-0.4809,-0.509,-0.4604,-0.4308,-0.408,-0.3811,-0.3955,-0.403,-0.3579,-0.3617,-0.3801,-0.387,-0.387,-0.3929,-0.424,-0.3824,-0.3353,-0.329,-0.2377,-0.1542,-0.1093,-0.1031,-0.078,-0.0177,-0.0988,-0.1624,-0.1534,-0.2115,-0.2722,-0.3078,-0.3145,-0.3243,-0.3523,-0.3767,-0.3711,-0.3292,-0.3764,-0.3884,-0.3562,-0.4328,-0.4736,-0.4574,-0.4298,-0.3968,-0.3638,-0.3968,-0.4135,-0.4141,-0.4026,-0.4143,-0.4523,-0.4914,-0.5174,-0.5269,-0.594,-0.6009,-0.555,-0.5219,-0.4761,-0.4367,-0.4097,-0.4164,-0.437,-1.2114,-1.1633,-1.1057,-1.0751,-1.0309,-1.0331,-1.1709,-1.2111,-1.1985,-1.1068,-1.0101,-0.9198,-0.8625,-0.8247,-0.8052,-0.8052,-0.8182,-0.8641,-0.942,-0.8905,-0.8646,-0.884,-0.9092,-0.9215,-0.9017,-0.8395,-0.7721,-0.7002,-0.7029,-0.6519,-0.5538,-0.5599,-0.5489,-0.5281,-0.4904,-0.4794,-0.4897,-0.4956,-0.5011,-0.5066,-0.5289,-0.5454,-0.5618,-0.5891,-0.5896,-0.569,-0.5545,-0.5239,-0.4886,-0.4813,-0.4816,-0.4845,-0.4982,-0.5156,-0.5127,-0.465,-0.4423,-0.4243,-0.3985,-0.398,-0.3993,-0.3803,-0.3878,-0.4085,-0.4278,-0.4225,-0.4273,-0.4534,-0.4121,-0.3658,-0.337,-0.2655,-0.2004,-0.1722,-0.1241,-0.0973,-0.0968,-0.1437,-0.1765,-0.185,-0.237,-0.2859,-0.3178,-0.3364,-0.3577,-0.3913,-0.413,-0.4146,-0.3767,-0.4097,-0.4103,-0.3715,-0.4152,-0.4349,-0.4242,-0.4076,-0.3858,-0.3585,-0.3758,-0.3786,-0.3678,-0.3736,-0.3945,-0.4262,-0.4631,-0.4858,-0.5,-0.5519,-0.5415,-0.502,-0.4891,-0.4691,-0.4428,-0.4095,-0.4231,-0.45,-1.2625,-1.1803,-1.0968,-1.0995,-1.029,-1.0296,-1.1754,-1.2003,-1.1855,-1.1335,-1.1186,-1.0641,-0.9527,-0.8899,-0.8511,-0.8382,-0.8447,-0.8711,-0.9239,-0.9168,-0.8969,-0.8646,-0.9034,-0.9157,-0.8823,-0.8318,-0.7798,-0.7387,-0.7454,-0.701,-0.601,-0.6137,-0.6001,-0.5563,-0.5089,-0.4959,-0.512,-0.512,-0.5254,-0.5448,-0.5639,-0.5839,-0.6072,-0.6151,-0.6151,-0.6082,-0.5976,-0.5697,-0.5467,-0.5453,-0.5248,-0.5077,-0.5349,-0.5304,-0.512,-0.4615,-0.4312,-0.4135,-0.3851,-0.3737,-0.3732,-0.3906,-0.4014,-0.4235,-0.4552,-0.4489,-0.444,-0.4598,-0.4224,-0.3745,-0.3424,-0.2834,-0.2397,-0.2295,-0.1687,-0.135,-0.1778,-0.1994,-0.2098,-0.2113,-0.2626,-0.2993,-0.3181,-0.3519,-0.3799,-0.4027,-0.4304,-0.4304,-0.4027,-0.419,-0.4147,-0.3901,-0.3872,-0.3913,-0.3965,-0.3913,-0.3802,-0.3638,-0.3639,-0.3579,-0.335,-0.342,-0.365,-0.399,-0.421,-0.4407,-0.4561,-0.4824,-0.4758,-0.4492,-0.4495,-0.4492,-0.4361,-0.4056,-0.4268,-0.4473,-1.241,-1.1689,-1.1341,-1.2063,-1.1283,-1.0686,-1.1095,-1.1186,-1.1335,-1.1632,-1.1335,-1.0563,-0.9196,-0.9022,-0.8694,-0.7912,-0.8247,-0.8528,-0.8565,-0.8727,-0.8899,-0.9163,-0.8776,-0.8441,-0.8236,-0.7767,-0.737,-0.6921,-0.6565,-0.6342,-0.6248,-0.5836,-0.5947,-0.6383,-0.581,-0.5622,-0.574,-0.574,-0.5776,-0.58,-0.5456,-0.5762,-0.6333,-0.6086,-0.5956,-0.5953,-0.6129,-0.5839,-0.5347,-0.5126,-0.5216,-0.5387,-0.5389,-0.547,-0.5431,-0.4836,-0.4433,-0.405,-0.352,-0.338,-0.3513,-0.3773,-0.383,-0.4041,-0.4741,-0.4734,-0.4571,-0.4687,-0.421,-0.3767,-0.3589,-0.2947,-0.2383,-0.2223,-0.2203,-0.215,-0.2004,-0.2528,-0.2799,-0.2605,-0.3009,-0.3347,-0.3355,-0.3413,-0.3469,-0.3638,-0.3641,-0.3638,-0.3469,-0.3583,-0.3634,-0.351,-0.3583,-0.3691,-0.3796,-0.3577,-0.3577,-0.3799,-0.3587,-0.3643,-0.3823,-0.331,-0.3213,-0.3549,-0.3579,-0.3689,-0.3892,-0.4231,-0.4231,-0.4095,-0.4231,-0.4161,-0.3837,-0.3868,-0.3906,-0.3906,-1.2047,-1.1943,-1.1826,-1.1868,-1.1173,-1.0692,-1.1022,-1.0663,-1.0443,-1.0588,-1.0663,-1.0501,-0.9886,-0.9331,-0.8975,-0.8894,-0.8436,-0.8257,-0.8468,-0.8447,-0.863,-0.9087,-0.8506,-0.8179,-0.8222,-0.7643,-0.7245,-0.7071,-0.6837,-0.6556,-0.6358,-0.6167,-0.6172,-0.6358,-0.5708,-0.5584,-0.5854,-0.5733,-0.5785,-0.5878,-0.5861,-0.6108,-0.645,-0.636,-0.6294,-0.6267,-0.6041,-0.584,-0.556,-0.5174,-0.51,-0.52,-0.5243,-0.5198,-0.5024,-0.436,-0.4124,-0.3992,-0.3491,-0.3503,-0.3724,-0.3978,-0.4057,-0.421,-0.4593,-0.4768,-0.476,-0.4377,-0.4142,-0.3735,-0.3152,-0.2804,-0.2572,-0.2409,-0.2357,-0.2456,-0.2835,-0.2936,-0.2997,-0.3068,-0.3332,-0.3527,-0.3527,-0.358,-0.3688,-0.3744,-0.3744,-0.3635,-0.3413,-0.3424,-0.3367,-0.317,-0.3309,-0.3462,-0.3634,-0.3562,-0.3562,-0.3634,-0.3396,-0.3299,-0.3301,-0.2859,-0.2779,-0.3043,-0.3211,-0.3293,-0.3357,-0.3696,-0.3696,-0.356,-0.3894,-0.3892,-0.383,-0.4076,-0.414,-0.4057,-1.2108,-1.2093,-1.1909,-1.1397,-1.094,-1.0698,-1.093,-1.0259,-0.9874,-1.0053,-1.0222,-1.028,-1.0294,-0.9553,-0.9102,-0.9168,-0.8624,-0.8177,-0.7977,-0.8107,-0.8371,-0.8829,-0.8247,-0.7981,-0.8138,-0.7366,-0.6979,-0.7131,-0.6712,-0.6465,-0.6446,-0.6265,-0.6278,-0.6392,-0.5854,-0.5789,-0.6023,-0.6002,-0.6134,-0.6348,-0.6392,-0.6529,-0.669,-0.6506,-0.6397,-0.629,-0.5834,-0.567,-0.5689,-0.5189,-0.5034,-0.5068,-0.5098,-0.4911,-0.4653,-0.4159,-0.3987,-0.3855,-0.3589,-0.3694,-0.3893,-0.4162,-0.4259,-0.442,-0.4505,-0.4743,-0.4738,-0.4122,-0.3986,-0.3732,-0.2981,-0.2802,-0.2834,-0.279,-0.2692,-0.2863,-0.3445,-0.3341,-0.332,-0.3461,-0.3527,-0.3583,-0.3527,-0.3635,-0.3744,-0.3796,-0.3741,-0.3593,-0.3408,-0.3282,-0.3221,-0.31,-0.3221,-0.3342,-0.3461,-0.3527,-0.3566,-0.3584,-0.3308,-0.3155,-0.3093,-0.2589,-0.2421,-0.2621,-0.2822,-0.2889,-0.2824,-0.3228,-0.3226,-0.3092,-0.3424,-0.3558,-0.3567,-0.3837,-0.3887,-0.3718,-1.2436,-1.2058,-1.1373,-1.0751,-1.0624,-1.0624,-1.0624,-0.9989,-0.974,-1.0294,-1.0014,-0.9921,-1.0184,-0.9616,-0.9012,-0.8528,-0.8694,-0.8231,-0.6902,-0.7652,-0.8257,-0.8511,-0.7992,-0.7792,-0.7982,-0.6944,-0.656,-0.6897,-0.6048,-0.5935,-0.6593,-0.6032,-0.6115,-0.6598,-0.6401,-0.6315,-0.6329,-0.6648,-0.703,-0.7379,-0.6932,-0.6973,-0.7158,-0.6516,-0.6246,-0.6036,-0.5568,-0.5498,-0.5517,-0.4979,-0.4951,-0.5068,-0.5065,-0.4777,-0.4418,-0.4543,-0.4183,-0.3734,-0.3786,-0.387,-0.3929,-0.4167,-0.4349,-0.456,-0.4653,-0.4688,-0.4522,-0.3907,-0.3796,-0.363,-0.3186,-0.3019,-0.3019,-0.3357,-0.3413,-0.3524,-0.3741,-0.3796,-0.3744,-0.3638,-0.3585,-0.3527,-0.3413,-0.3527,-0.3635,-0.3796,-0.3524,-0.3352,-0.3287,-0.3211,-0.3265,-0.339,-0.3265,-0.3265,-0.3388,-0.3466,-0.3584,-0.3698,-0.3441,-0.3286,-0.329,-0.2525,-0.2288,-0.2424,-0.2418,-0.242,-0.2423,-0.2824,-0.2889,-0.2753,-0.2889,-0.3025,-0.3046,-0.3145,-0.301,-0.2822,-1.1747,-1.0933,-1.0244,-1.0561,-1.0624,-1.0624,-1.0624,-1.018,-0.9835,-0.9758,-0.9775,-0.9725,-0.9752,-0.9321,-0.8902,-0.8705,-0.8236,-0.7717,-0.7316,-0.7195,-0.733,-0.7787,-0.7265,-0.7006,-0.7058,-0.6176,-0.5751,-0.582,-0.5831,-0.5891,-0.6125,-0.6193,-0.6455,-0.6812,-0.6491,-0.6482,-0.673,-0.6703,-0.6782,-0.7015,-0.6876,-0.6894,-0.6971,-0.6528,-0.6371,-0.6177,-0.5337,-0.5057,-0.4994,-0.4624,-0.4719,-0.4928,-0.4578,-0.4271,-0.3994,-0.3691,-0.3696,-0.3803,-0.3765,-0.4035,-0.4303,-0.4085,-0.4274,-0.4473,-0.4241,-0.4278,-0.4193,-0.3749,-0.358,-0.3411,-0.3019,-0.3019,-0.3074,-0.3188,-0.3466,-0.3744,-0.391,-0.3965,-0.391,-0.3858,-0.3858,-0.3802,-0.3583,-0.3635,-0.3688,-0.3524,-0.3258,-0.3143,-0.3315,-0.3099,-0.2985,-0.3048,-0.3177,-0.321,-0.3079,-0.3413,-0.362,-0.3638,-0.3384,-0.3255,-0.3187,-0.2547,-0.2221,-0.2288,-0.2356,-0.2287,-0.2087,-0.2423,-0.2622,-0.2691,-0.2814,-0.2975,-0.3197,-0.3166,-0.3079,-0.2891,-1.0891,-1.0314,-0.9798,-1.0117,-1.018,-1.018,-1.018,-0.9856,-0.96,-0.9536,-0.9443,-0.9389,-0.946,-0.9003,-0.8631,-0.8576,-0.7847,-0.7396,-0.7521,-0.7199,-0.7068,-0.7195,-0.6806,-0.6689,-0.6898,-0.6058,-0.5723,-0.5994,-0.5921,-0.6046,-0.6301,-0.6228,-0.6476,-0.6908,-0.6538,-0.6613,-0.6908,-0.692,-0.6912,-0.6894,-0.6957,-0.6858,-0.6689,-0.6369,-0.6235,-0.6104,-0.5111,-0.4875,-0.4991,-0.4559,-0.4609,-0.4787,-0.439,-0.4153,-0.4004,-0.3693,-0.3709,-0.3819,-0.3954,-0.4161,-0.4313,-0.415,-0.4356,-0.4519,-0.4301,-0.4356,-0.4249,-0.3694,-0.358,-0.3411,-0.2965,-0.291,-0.2965,-0.3074,-0.3411,-0.3688,-0.3802,-0.3968,-0.4024,-0.3858,-0.3913,-0.3802,-0.3527,-0.3688,-0.3708,-0.3478,-0.3212,-0.3162,-0.3343,-0.3191,-0.3128,-0.3157,-0.3322,-0.3296,-0.3072,-0.3423,-0.3519,-0.335,-0.3257,-0.3107,-0.2893,-0.2423,-0.2087,-0.1951,-0.2154,-0.2018,-0.1817,-0.2087,-0.2287,-0.2359,-0.2356,-0.2521,-0.2675,-0.263,-0.2524,-0.2468,-1.0034,-1.0079,-0.9919,-0.9484,-0.9356,-0.935,-0.9356,-0.9151,-0.9081,-0.9326,-0.9079,-0.8942,-0.9174,-0.87,-0.8281,-0.8192,-0.7526,-0.7265,-0.7456,-0.7391,-0.7134,-0.6675,-0.6482,-0.6613,-0.7138,-0.6258,-0.6113,-0.6809,-0.6199,-0.6203,-0.6872,-0.6256,-0.6331,-0.694,-0.6561,-0.6624,-0.6949,-0.7316,-0.7265,-0.6881,-0.7073,-0.6876,-0.633,-0.6129,-0.5994,-0.5727,-0.4945,-0.4927,-0.5224,-0.4599,-0.4565,-0.4748,-0.4485,-0.4314,-0.4284,-0.4296,-0.398,-0.3804,-0.4246,-0.429,-0.4253,-0.4228,-0.447,-0.4636,-0.4632,-0.4632,-0.4415,-0.3749,-0.3691,-0.3577,-0.3026,-0.2858,-0.2856,-0.3077,-0.3299,-0.3469,-0.3638,-0.3971,-0.4082,-0.3694,-0.3747,-0.3744,-0.3469,-0.3641,-0.3704,-0.349,-0.3437,-0.3354,-0.3427,-0.3515,-0.3522,-0.3563,-0.3517,-0.3387,-0.3234,-0.3385,-0.3319,-0.3039,-0.3053,-0.2824,-0.2423,-0.2288,-0.1951,-0.1614,-0.1817,-0.1817,-0.1614,-0.1817,-0.1955,-0.1963,-0.1741,-0.1761,-0.1776,-0.1792,-0.1798,-0.1773,-1.0314,-1.0498,-1.011,-0.8899,-0.8312,-0.8047,-0.8312,-0.8511,-0.8571,-0.8495,-0.8733,-0.8885,-0.8711,-0.856,-0.8304,-0.7862,-0.7269,-0.7012,-0.7012,-0.6548,-0.6284,-0.6482,-0.628,-0.628,-0.6548,-0.572,-0.5501,-0.5894,-0.5864,-0.6128,-0.649,-0.6513,-0.6772,-0.714,-0.6885,-0.6945,-0.714,-0.7246,-0.7068,-0.6741,-0.6806,-0.6609,-0.6183,-0.5934,-0.5697,-0.5434,-0.5085,-0.4893,-0.4852,-0.4618,-0.458,-0.4565,-0.4273,-0.4256,-0.4235,-0.3956,-0.4045,-0.4206,-0.4154,-0.4364,-0.4596,-0.4619,-0.447,-0.4249,-0.4021,-0.4076,-0.4024,-0.3694,-0.3527,-0.3413,-0.3132,-0.319,-0.3246,-0.3302,-0.3635,-0.3858,-0.3913,-0.4082,-0.4138,-0.3913,-0.4024,-0.3971,-0.3583,-0.3721,-0.3687,-0.3335,-0.3707,-0.3771,-0.3462,-0.3616,-0.3685,-0.3533,-0.3351,-0.3149,-0.2861,-0.288,-0.3015,-0.3398,-0.3218,-0.3025,-0.2824,-0.2423,-0.1951,-0.1614,-0.1817,-0.1817,-0.1614,-0.1817,-0.2113,-0.2301,-0.1861,-0.2048,-0.2466,-0.2005,-0.1942,-0.2089,-0.9402,-0.9862,-0.9862,-0.9092,-0.8571,-0.8177,-0.8052,-0.8187,-0.8317,-0.8236,-0.8371,-0.8441,-0.8122,-0.8122,-0.7862,-0.7269,-0.6745,-0.635,-0.628,-0.6218,-0.6086,-0.6017,-0.6148,-0.6148,-0.6017,-0.555,-0.555,-0.5951,-0.5818,-0.5951,-0.628,-0.6148,-0.628,-0.6671,-0.6412,-0.6412,-0.6675,-0.6675,-0.6474,-0.621,-0.628,-0.6218,-0.599,-0.5675,-0.5577,-0.5504,-0.4982,-0.4776,-0.4796,-0.4941,-0.4874,-0.4647,-0.4281,-0.4177,-0.4142,-0.4014,-0.4069,-0.4255,-0.4256,-0.4369,-0.4523,-0.4381,-0.4232,-0.4103,-0.4144,-0.4021,-0.3855,-0.3583,-0.3302,-0.3077,-0.2854,-0.2968,-0.3079,-0.3132,-0.3574,-0.391,-0.391,-0.4132,-0.4245,-0.4024,-0.4138,-0.4092,-0.3923,-0.38,-0.3673,-0.353,-0.3649,-0.3638,-0.3496,-0.3629,-0.356,-0.3362,-0.3228,-0.3025,-0.2686,-0.282,-0.2956,-0.3228,-0.3092,-0.2822,-0.2487,-0.2287,-0.1951,-0.148,-0.1749,-0.1748,-0.148,-0.1884,-0.2053,-0.211,-0.195,-0.2,-0.2202,-0.187,-0.1886,-0.2042,-0.8433,-0.8961,-0.9356,-0.9356,-0.9092,-0.87,-0.8182,-0.8057,-0.8057,-0.7912,-0.7917,-0.7857,-0.7661,-0.7661,-0.7335,-0.6741,-0.6214,-0.5888,-0.5683,-0.6083,-0.6148,-0.5749,-0.6214,-0.6214,-0.5683,-0.5749,-0.5885,-0.6284,-0.5749,-0.5679,-0.6013,-0.5488,-0.5557,-0.6009,-0.5683,-0.5749,-0.6079,-0.6079,-0.5881,-0.5617,-0.5752,-0.5822,-0.5807,-0.5453,-0.5438,-0.5535,-0.4895,-0.4771,-0.4877,-0.5197,-0.5088,-0.4741,-0.4445,-0.4256,-0.4209,-0.4146,-0.4182,-0.4221,-0.4362,-0.4393,-0.436,-0.4112,-0.4021,-0.4112,-0.4399,-0.4051,-0.3685,-0.3469,-0.3132,-0.2852,-0.2687,-0.2745,-0.2863,-0.2986,-0.3477,-0.3805,-0.3769,-0.4144,-0.4353,-0.4021,-0.4143,-0.4171,-0.4081,-0.3872,-0.3742,-0.3692,-0.3513,-0.3429,-0.3563,-0.3563,-0.3496,-0.3228,-0.3226,-0.3023,-0.2686,-0.2889,-0.2956,-0.2956,-0.2753,-0.2485,-0.2017,-0.2085,-0.1884,-0.1345,-0.1681,-0.1614,-0.1344,-0.1884,-0.1989,-0.1769,-0.188,-0.1857,-0.1833,-0.1708,-0.1801,-0.1963,-0.8494,-0.859,-0.8646,-0.8646,-0.8582,-0.8511,-0.8447,-0.7987,-0.7396,-0.6745,-0.7269,-0.7661,-0.7526,-0.7396,-0.7138,-0.6741,-0.6346,-0.6083,-0.5888,-0.6083,-0.621,-0.6145,-0.6478,-0.6478,-0.6145,-0.6214,-0.6083,-0.5683,-0.5352,-0.5352,-0.5683,-0.5156,-0.5156,-0.5683,-0.5491,-0.5624,-0.5954,-0.5954,-0.5818,-0.5617,-0.5617,-0.5554,-0.5477,-0.5253,-0.5182,-0.5197,-0.5125,-0.5068,-0.5038,-0.4981,-0.4895,-0.4741,-0.4586,-0.4516,-0.4513,-0.4339,-0.4374,-0.4495,-0.4353,-0.4411,-0.4565,-0.4366,-0.4275,-0.4215,-0.4258,-0.3845,-0.3469,-0.3413,-0.3244,-0.313,-0.3246,-0.3416,-0.3449,-0.343,-0.3704,-0.3893,-0.3713,-0.4038,-0.419,-0.4024,-0.4143,-0.4088,-0.3695,-0.4041,-0.4024,-0.3334,-0.382,-0.403,-0.3758,-0.3894,-0.3763,-0.3498,-0.3159,-0.2889,-0.2686,-0.2753,-0.2753,-0.2753,-0.2686,-0.2686,-0.2552,-0.2151,-0.1817,-0.1547,-0.1614,-0.148,-0.1344,-0.1749,-0.2012,-0.2033,-0.1602,-0.1726,-0.2104,-0.1839,-0.1928,-0.219,-0.7966,-0.7957,-0.7792,-0.74,-0.7661,-0.7871,-0.7709,-0.7541,-0.7414,-0.7046,-0.7149,-0.7204,-0.7068,-0.6675,-0.6416,-0.6284,-0.5951,-0.569,-0.5624,-0.5752,-0.5881,-0.5881,-0.6083,-0.6148,-0.5881,-0.5951,-0.5815,-0.5617,-0.5484,-0.5484,-0.5617,-0.5027,-0.496,-0.5286,-0.509,-0.5027,-0.5156,-0.5156,-0.5156,-0.502,-0.502,-0.5024,-0.5087,-0.4957,-0.4864,-0.4844,-0.5054,-0.4998,-0.4875,-0.5009,-0.4885,-0.4653,-0.4601,-0.4523,-0.4442,-0.4316,-0.4415,-0.4543,-0.4352,-0.4415,-0.4511,-0.4316,-0.4162,-0.4148,-0.42,-0.3854,-0.3523,-0.335,-0.3288,-0.3244,-0.313,-0.3411,-0.3562,-0.3508,-0.3829,-0.4041,-0.3768,-0.4161,-0.4423,-0.4219,-0.4227,-0.4085,-0.3743,-0.3823,-0.3777,-0.3556,-0.3828,-0.3894,-0.3627,-0.3828,-0.3694,-0.3228,-0.3159,-0.3023,-0.2889,-0.3025,-0.3092,-0.2956,-0.2956,-0.2755,-0.2421,-0.2153,-0.1951,-0.1751,-0.205,-0.1978,-0.1683,-0.2187,-0.2253,-0.2115,-0.197,-0.1957,-0.204,-0.2172,-0.2177,-0.2193]},{"header":{"parameterUnit":"m.s-1","parameterCategory":1,"la1":30.6,"la2":28.766,"lo1":-90.7593,"lo2":-88.6598,"dy":0.0162,"dx":0.0183,"nx":116,"ny":114,"refTime":"2023-09-22T00:00:00:Z","depth":0,"parameterNumber":3,"parameterNumberName":"V-component_of_WINDS"},"data":[0.0,0.0,0.0,0.0,0.0,0.0,0.0,0.0,0.0,0.0,0.0,0.0,0.0,0.0,0.0,0.0,0.0,0.0,0.0,0.0,0.0,0.0,0.0,0.0,0.0,0.0,0.0,0.0,0.0,0.0,0.0,0.0,0.0,0.0,0.0,0.0,0.0,0.0,0.0,0.0,0.0,0.0,0.0,0.0,0.0,0.0,0.0,0.0,0.0,0.0,0.0,0.0,0.0,0.0,0.0,0.0,0.0,0.0,0.0,0.0,0.0,0.0,0.0,0.0,0.0,0.0,0.0,0.0,0.0,0.0,0.0,0.0,0.0,0.0,0.0,0.0,0.0,0.0,0.0,0.0,0.0,0.0,0.0,0.0,0.0,0.0,0.0,0.0,0.0,0.0,0.0,0.0,0.0,0.0,0.0,0.0,0.0,0.0,0.0,0.0,0.0,0.0,0.0,0.0,0.0,0.0,0.0,0.0,0.0,0.0,0.0,0.0,0.0,0.0,0.0,0.0,0.0,0.0,0.0,0.0,0.0,0.0,0.0,0.0,0.0,0.0,0.0,0.0,0.0,0.0,0.0,0.0,0.0,0.0,0.0,0.0,0.0,0.0,0.0,0.0,0.0,0.0,0.0,0.0,0.0,0.0,0.0,0.0,0.0,0.0,0.0,0.0,0.0,0.0,0.0,0.0,0.0,0.0,0.0,0.0,0.0,0.0,0.0,0.0,0.0,0.0,0.0,0.0,0.0,0.0,0.0,0.0,0.0,0.0,0.0,0.0,0.0,0.0,0.0,0.0,0.0,0.0,0.0,0.0,0.0,0.0,0.0,0.0,0.0,0.0,0.0,0.0,0.0,0.0,0.0,0.0,0.0,0.0,0.0,0.0,0.0,0.0,0.0,0.0,0.0,0.0,0.0,0.0,0.0,0.0,0.0,0.0,0.0,0.0,0.0,0.0,0.0,0.0,0.0,0.0,0.0,0.0,0.0,0.0,0.0,0.0,0.0,0.0,0.0,0.0,0.0,0.0,0.0,0.0,0.0,0.0,0.0,0.0,0.0,0.0,0.0,0.0,0.0,0.0,0.0,0.0,0.0,0.0,0.0,0.0,0.0,0.0,0.0,0.0,0.0,0.0,0.0,0.0,0.0,0.0,0.0,0.0,0.0,0.0,0.0,0.0,0.0,0.0,0.0,0.0,0.0,0.0,0.0,0.0,0.0,0.0,0.0,0.0,0.0,0.0,0.0,0.0,0.0,0.0,0.0,0.0,0.0,0.0,0.0,0.0,0.0,0.0,0.0,0.0,0.0,0.0,0.0,0.0,0.0,0.0,0.0,0.0,0.0,0.0,0.0,0.0,0.0,0.0,0.0,0.0,0.0,0.0,0.0,0.0,0.0,0.0,0.0,0.0,0.0,0.0,0.0,0.0,0.0,0.0,0.0,0.0,0.0,0.0,0.0,0.0,0.0,0.0,0.0,0.0,0.0,0.0,0.0,0.0,0.0,0.0,0.0,0.0,0.0,0.0,0.0,0.0,0.0,0.0,0.0,0.0,0.0,0.0,0.0,0.0,0.0,0.0,0.0,0.0,0.0,0.0,0.0,0.0,0.0,0.0,0.0,0.0,0.0,0.0,0.0,0.0,0.0,0.0,0.0,0.0,0.0,0.0,0.0,0.0,0.0,0.0,0.0,0.0,0.0,0.0,0.0,0.0,0.0,0.0,0.0,0.0,0.0,0.0,0.0,0.0,0.0,0.0,0.0,0.0,0.0,0.0,0.0,0.0,0.0,0.0,0.0,0.0,0.0,0.0,0.0,0.0,0.0,0.0,0.0,0.0,0.0,0.0,0.0,0.0,0.0,0.0,0.0,0.0,0.0,0.0,0.0,0.0,0.0,0.0,0.0,0.0,0.0,0.0,0.0,0.0,0.0,0.0,0.0,0.0,0.0,0.0,0.0,0.0,0.0,0.0,0.0,0.0,0.0,0.0,0.0,0.0,0.0,0.0,0.0,0.0,0.0,0.0,0.0,0.0,0.0,0.0,0.0,0.0,0.0,0.0,0.0,0.0,0.0,0.0,0.0,0.0,0.0,0.0,0.0,0.0,0.0,0.0,0.0,0.0,0.0,0.0,0.0,0.0,0.0,0.0,0.0,0.0,0.0,0.0,0.0,0.0,0.0,0.0,0.0,0.0,0.0,0.0,0.0,0.0,0.0,0.0,0.0,0.0,0.0,0.0,0.0,0.0,0.0,0.0,0.0,0.0,0.0,0.0,0.0,0.0,0.0,0.0,0.0,0.0,0.0,0.0,0.0,0.0,0.0,0.0,0.0,0.0,0.0,0.0,0.0,0.0,0.0,0.0,0.0,0.0,0.0,0.0,0.0,0.0,0.0,0.0,0.0,0.0,0.0,0.0,0.0,0.0,0.0,0.0,0.0,0.0,0.0,0.0,0.0,0.0,0.0,0.0,0.0,0.0,0.0,0.0,0.0,0.0,0.0,0.0,0.0,0.0,0.0,0.0,0.0,0.0,0.0,0.0,0.0,0.0,0.0,0.0,0.0,0.0,0.0,0.0,0.0,0.0,0.0,0.0,0.0,0.0,0.0,0.0,0.0,0.0,0.0,0.0,0.0,0.0,0.0,0.0,0.0,0.0,0.0,0.0,0.0,0.0,0.0,0.0,0.0,0.0,0.0,0.0,0.0,0.0,0.0,0.0,0.0,0.0,0.0,0.0,0.0,0.0,0.0,0.0,0.0,0.0,0.0,0.0,0.0,0.0,0.0,0.0,0.0,0.0,0.0,0.0,0.0,0.0,0.0,0.0,0.0,0.0,0.0,0.0,0.0,0.0,0.0,0.0,0.0,0.0,0.0,0.0,0.0,0.0,0.0,0.0,0.0,0.0,0.0,0.0,0.0,0.0,0.0,0.0,0.0,0.0,0.0,0.0,0.0,0.0,0.0,0.0,0.0,0.0,0.0,0.0,0.0,0.0,0.0,0.0,0.0,0.0,0.0,0.0,0.0,0.0,0.0,0.0,0.0,0.0,0.0,0.0,0.0,0.0,0.0,0.0,0.0,0.0,0.0,0.0,0.0,0.0,0.0,0.0,0.0,0.0,0.0,0.0,0.0,0.0,0.0,0.0,0.0,0.0,0.0,0.0,0.0,0.0,0.0,0.0,0.0,0.0,0.0,0.0,0.0,0.0,0.0,0.0,0.0,0.0,0.0,0.0,0.0,0.0,0.0,0.0,0.0,0.0,0.0,0.0,0.0,0.0,0.0,0.0,0.0,0.0,0.0,0.0,0.0,0.0,0.0,0.0,0.0,0.0,0.0,0.0,0.0,0.0,0.0,0.0,0.0,0.0,0.0,0.0,0.0,0.0,0.0,0.0,0.0,0.0,0.0,0.0,0.0,0.0,0.0,0.0,0.0,0.0,0.0,0.0,0.0,0.0,0.0,0.0,0.0,0.0,0.0,0.0,0.0,0.0,0.0,0.0,0.0,0.0,0.0,0.0,0.0,0.0,0.0,0.0,0.0,0.0,0.0,0.0,0.0,0.0,0.0,0.0,0.0,0.0,0.0,0.0,0.0,0.0,0.0,0.0,0.0,0.0,0.0,0.0,0.0,0.0,0.0,0.0,0.0,0.0,0.0,0.0,0.0,0.0,0.0,0.0,0.0,0.0,0.0,0.0,0.0,0.0,0.0,0.0,0.0,0.0,0.0,0.0,0.0,0.0,0.0,0.0,0.0,0.0,0.0,0.0,0.0,0.0,0.0,0.0,0.0,0.0,0.0,0.0,0.0,0.0,0.0,0.0,0.0,0.0,0.0,0.0,0.0,0.0,0.0,0.0,0.0,0.0,0.0,0.0,0.0,0.0,0.0,0.0,0.0,0.0,0.0,0.0,0.0,0.0,0.0,0.0,0.0,0.0,0.0,0.0,0.0,0.0,0.0,0.0,0.0,0.0,0.0,0.0,0.0,0.0,0.0,0.0,0.0,0.0,0.0,0.0,0.0,0.0,0.0,0.0,0.0,0.0,0.0,0.0,0.0,0.0,0.0,0.0,0.0,0.0,0.0,0.0,0.0,0.0,0.0,0.0,0.0,0.0,0.0,0.0,0.0,0.0,0.0,0.0,0.0,0.0,0.0,0.0,0.0,0.0,0.0,0.0,0.0,0.0,0.0,0.0,0.0,0.0,0.0,0.0,0.0,0.0,0.0,0.0,0.0,0.0,0.0,0.0,0.0,0.0,0.0,0.0,0.0,0.0,0.0,0.0,0.0,0.0,0.0,0.0,0.0,0.0,0.0,0.0,0.0,0.0,0.0,0.0,0.0,0.0,0.0,0.0,0.0,0.0,0.0,0.0,0.0,0.0,0.0,0.0,0.0,0.0,0.0,0.0,0.0,0.0,0.0,0.0,0.0,0.0,0.0,0.0,0.0,0.0,0.0,0.0,0.0,0.0,0.0,0.0,0.0,0.0,0.0,0.0,0.0,0.0,0.0,0.0,0.0,0.0,0.0,0.0,0.0,0.0,0.0,0.0,0.0,0.0,0.0,0.0,0.0,0.0,0.0,0.0,0.0,0.0,0.0,0.0,0.0,0.0,0.0,0.0,0.0,0.0,0.0,0.0,0.0,0.0,0.0,0.0,0.0,0.0,0.0,0.0,0.0,0.0,0.0,0.0,0.0,0.0,0.0,0.0,0.0,0.0,0.0,0.0,0.0,0.0,0.0,0.0,0.0,0.0,0.0,0.0,0.0,0.0,0.0,0.0,0.0,0.0,0.0,0.0,0.0,0.0,0.0,0.0,0.0,0.0,0.0,0.0,0.0,0.0,0.0,0.0,0.0,0.0,0.0,0.0,0.0,0.0,0.0,0.0,0.0,0.0,0.0,0.0,0.0,0.0,0.0,0.0,0.0,0.0,0.0,0.0,0.0,0.0,0.0,0.0,0.0,0.0,0.0,0.0,0.0,0.0,0.0,0.0,0.0,0.0,0.0,0.0,0.0,0.0,0.0,0.0,0.0,0.0,0.0,0.0,0.0,0.0,0.0,0.0,0.0,0.0,0.0,0.0,0.0,0.0,0.0,0.0,0.0,0.0,0.0,0.0,0.0,0.0,0.0,0.0,0.0,0.0,0.0,0.0,0.0,0.0,0.0,0.0,0.0,0.0,0.0,0.0,0.0,0.0,0.0,0.0,0.0,0.0,0.0,0.0,0.0,0.0,0.0,0.0,0.0,0.0,0.0,0.0,0.0,0.0,0.0,0.0,0.0,0.0,0.0,0.0,0.0,0.0,0.0,0.0,0.0,0.0,0.0,0.0,0.0,0.0,0.0,0.0,0.0,0.0,0.0,0.0,0.0,0.0,0.0,0.0,0.0,0.0,0.0,0.0,0.0,0.0,0.0,0.0,0.0,0.0,0.0,0.0,0.0,0.0,0.0,0.0,0.0,0.0,0.0,0.0,0.0,0.0,0.0,0.0,0.0,0.0,0.0,0.0,0.0,0.0,0.0,0.0,0.0,0.0,0.0,0.0,0.0,0.0,0.0,0.0,0.0,0.0,0.0,0.0,0.0,0.0,0.0,0.0,0.0,0.0,0.0,0.0,0.0,0.0,0.0,0.0,0.0,0.0,0.0,0.0,0.0,0.0,0.0,0.0,0.0,0.0,0.0,0.0,0.0,0.0,0.0,0.0,0.0,0.0,0.0,0.0,0.0,0.0,0.0,0.0,0.0,0.0,0.0,0.0,0.0,0.0,0.0,0.0,0.0,0.0,0.0,0.0,0.0,0.0,0.0,0.0,0.0,0.0,0.0,0.0,0.0,0.0,0.0,0.0,0.0,0.0,0.0,0.0,0.0,0.0,0.0,0.0,0.0,0.0,0.0,0.0,0.0,0.0,0.0,0.0,0.0,0.0,0.0,0.0,0.0,0.0,0.0,0.0,0.0,0.0,0.0,0.0,0.0,0.0,0.0,0.0,0.0,0.0,0.0,0.0,0.0,0.0,0.0,0.0,0.0,0.0,0.0,0.0,0.0,0.0,0.0,0.0,0.0,0.0,0.0,0.0,0.0,0.0,0.0,0.0,0.0,0.0,0.0,0.0,0.0,0.0,0.0,0.0,-1.5584,-1.4143,0.0,0.0,0.0,0.0,0.0,0.0,0.0,0.0,0.0,0.0,0.0,0.0,0.0,0.0,0.0,0.0,0.0,0.0,0.0,0.0,0.0,0.0,0.0,0.0,0.0,0.0,0.0,0.0,0.0,0.0,0.0,0.0,0.0,0.0,0.0,0.0,0.0,0.0,-0.8454,-1.0374,-1.3266,-1.2817,-1.1706,-1.0094,0.0,0.0,0.0,0.0,0.0,0.0,0.0,0.0,0.0,0.0,0.0,0.0,0.0,0.0,0.0,0.0,0.0,0.0,0.0,0.0,0.0,0.0,0.0,0.0,0.0,0.0,0.0,0.0,0.0,0.0,0.0,0.0,0.0,0.0,0.0,0.0,0.0,0.0,0.0,0.0,0.0,0.0,0.0,0.0,0.0,0.0,0.0,0.0,0.0,0.0,0.0,0.0,0.0,0.0,0.0,0.0,0.0,0.0,0.0,0.0,0.0,0.0,0.0,0.0,0.0,0.0,0.0,0.0,0.0,0.0,-1.8516,-1.7098,0.0,0.0,0.0,0.0,0.0,0.0,0.0,0.0,0.0,0.0,0.0,0.0,0.0,0.0,0.0,0.0,0.0,0.0,0.0,0.0,0.0,0.0,0.0,0.0,-0.629,-0.6335,-0.629,-0.6338,0.0,0.0,0.0,0.0,0.0,0.0,0.0,0.0,0.0,0.0,-1.1581,-1.4159,-1.7064,-1.7359,-1.5984,-1.3236,-1.2813,0.0,0.0,0.0,0.0,0.0,0.0,0.0,0.0,0.0,0.0,0.0,0.0,0.0,0.0,0.0,0.0,0.0,0.0,0.0,0.0,0.0,0.0,0.0,0.0,0.0,0.0,0.0,0.0,0.0,0.0,0.0,0.0,0.0,0.0,0.0,0.0,0.0,0.0,0.0,0.0,0.0,0.0,0.0,0.0,0.0,0.0,0.0,0.0,0.0,0.0,0.0,0.0,0.0,0.0,0.0,0.0,0.0,0.0,0.0,0.0,0.0,0.0,0.0,-2.2405,-2.2637,-2.2422,-2.4061,-2.4888,-2.491,-2.1975,-2.0923,-2.119,-1.8982,0.0,0.0,0.0,0.0,0.0,0.0,0.0,0.0,0.0,0.0,0.0,0.0,0.0,0.0,0.0,0.0,0.0,0.0,0.0,0.0,0.0,-0.6818,-0.7311,-0.7312,-0.731,-0.7335,0.0,0.0,0.0,0.0,0.0,0.0,0.0,-0.6343,-0.7986,-1.126,-1.5215,-1.7722,-1.8892,-2.041,-2.0813,-2.0173,-1.8028,-1.7247,-1.7442,0.0,0.0,0.0,0.0,0.0,0.0,0.0,0.0,0.0,0.0,0.0,0.0,0.0,0.0,0.0,0.0,0.0,0.0,0.0,0.0,0.0,0.0,0.0,0.0,0.0,0.0,0.0,0.0,0.0,0.0,0.0,0.0,0.0,0.0,0.0,0.0,0.0,0.0,0.0,0.0,0.0,-1.7299,-1.8306,0.0,0.0,0.0,0.0,0.0,0.0,0.0,0.0,0.0,0.0,0.0,0.0,0.0,-2.2173,-2.3429,-2.5261,-2.5918,-2.5493,-2.7425,-2.7875,-2.7028,-2.7679,-2.8198,-2.8525,-2.8273,0.0,-2.4698,-2.3041,0.0,0.0,0.0,0.0,0.0,0.0,0.0,0.0,0.0,0.0,0.0,0.0,0.0,0.0,0.0,0.0,0.0,0.0,0.0,0.0,0.0,-0.8416,-0.9151,-0.9604,-1.0127,-1.0038,-0.9116,-0.8631,0.0,0.0,0.0,0.0,-0.7122,-0.8535,-1.1697,-1.6668,-1.9948,-2.225,-2.3595,-2.4287,-2.4865,-2.526,-2.4135,-2.2178,-1.9612,-1.7491,0.0,0.0,0.0,0.0,0.0,0.0,0.0,0.0,0.0,0.0,0.0,0.0,0.0,0.0,0.0,0.0,0.0,0.0,0.0,0.0,0.0,0.0,0.0,0.0,0.0,0.0,0.0,0.0,0.0,0.0,0.0,0.0,0.0,0.0,0.0,0.0,0.0,0.0,0.0,-1.8002,-2.0035,-1.9412,-2.0044,-1.9799,0.0,0.0,0.0,0.0,0.0,0.0,0.0,0.0,0.0,-2.3649,-2.4324,-2.5094,-2.5997,-2.7366,-2.7947,-2.7776,-2.9023,-2.9473,-2.9254,-3.0666,-3.1214,-3.1129,-3.2364,-3.1728,-2.9554,-2.6597,-2.449,-2.2904,0.0,0.0,0.0,0.0,-2.1324,-2.1708,0.0,0.0,0.0,0.0,0.0,0.0,0.0,0.0,0.0,0.0,0.0,0.0,-0.9191,-1.0409,-1.1443,-1.2272,-1.2773,-1.2616,-1.16,-1.0595,0.0,0.0,0.0,-0.7792,-0.832,-1.1734,-1.5929,-2.0905,-2.3659,-2.5792,-2.7308,-2.7435,-2.7857,-2.8514,-2.869,-2.6475,-2.2487,-2.026,-1.8505,-1.6888,0.0,0.0,0.0,0.0,0.0,0.0,0.0,0.0,0.0,0.0,0.0,0.0,0.0,0.0,0.0,0.0,0.0,0.0,0.0,0.0,0.0,0.0,0.0,0.0,0.0,0.0,0.0,0.0,0.0,0.0,0.0,0.0,0.0,0.0,0.0,0.0,0.0,-2.0456,-2.2383,-2.0782,-2.2521,-2.2584,0.0,0.0,0.0,0.0,0.0,0.0,-2.3073,-2.3714,-2.4751,-2.6367,-2.7126,-2.7902,-2.8661,-2.961,-3.0259,-3.0628,-3.1173,-3.1533,-3.1874,-3.3432,-3.3994,-3.374,-3.525,-3.5281,-3.3976,-3.0012,-2.786,-2.6866,-2.4995,-2.4379,-2.4685,-2.5783,-2.6489,-2.7053,0.0,0.0,0.0,0.0,0.0,0.0,0.0,0.0,0.0,0.0,0.0,-1.0349,-1.127,-1.2871,-1.4257,-1.5128,-1.4477,-1.4342,-1.5089,-1.2025,-1.0524,-1.1289,-0.8984,-0.8437,-1.0032,-1.5878,-1.9841,-2.1743,-2.5187,-2.7303,-2.8164,-2.8985,-2.9353,-2.9383,-3.0205,-2.9865,-2.8444,-2.5164,-2.3185,-2.1857,-1.7715,0.0,0.0,0.0,0.0,0.0,0.0,0.0,0.0,0.0,0.0,0.0,0.0,0.0,0.0,0.0,0.0,0.0,0.0,0.0,0.0,0.0,0.0,0.0,0.0,0.0,0.0,0.0,0.0,0.0,0.0,0.0,0.0,0.0,0.0,0.0,0.0,0.0,0.0,-2.3139,-2.4495,0.0,0.0,0.0,0.0,-2.2902,-2.4128,-2.5313,-2.632,-2.7199,-2.8157,-2.9349,-2.9796,-3.0679,-3.2043,-3.3052,-3.4033,-3.5004,-3.552,-3.592,-3.6198,-3.6217,-3.6451,-3.6764,-3.6955,-3.7183,-3.7192,-3.3392,-3.1517,-3.0918,-2.9975,-3.0174,-3.0978,-3.1218,-3.1821,-3.253,0.0,0.0,0.0,0.0,0.0,0.0,0.0,0.0,-0.6462,-0.6979,-0.8887,-1.0948,-1.2906,-1.4198,-1.5507,-1.6898,-1.7231,-1.7052,-1.6298,-1.4509,-1.3647,-1.3984,-1.202,-1.2502,-1.5912,-1.9217,-2.2304,-2.5155,-2.7508,-2.9076,-2.9877,-3.0189,-3.0314,-3.0302,-3.058,-3.0484,-2.9939,-2.6975,-2.4841,-2.317,-1.9471,-1.6903,0.0,0.0,0.0,0.0,0.0,0.0,0.0,0.0,0.0,0.0,0.0,0.0,0.0,0.0,0.0,0.0,0.0,0.0,0.0,0.0,0.0,0.0,0.0,0.0,0.0,0.0,0.0,0.0,0.0,0.0,0.0,0.0,0.0,0.0,0.0,0.0,0.0,-2.5808,-2.752,0.0,-2.5698,-2.6286,-2.6975,-2.7339,-2.8075,-2.8955,-3.0073,-3.0683,-3.1295,-3.1984,-3.2446,-3.2943,-3.3385,-3.4128,-3.482,-3.5452,-3.6049,-3.6541,-3.6914,-3.7671,-3.7871,-3.7677,-3.8316,-3.8378,-3.7931,-3.6665,-3.563,-3.4769,-3.3935,-3.3823,-3.4176,-3.4294,-3.4845,-3.5396,0.0,0.0,0.0,0.0,0.0,0.0,0.0,0.0,-0.7117,-0.8231,-1.0212,-1.2381,-1.4655,-1.5974,-1.7265,-1.8685,-1.9072,-1.889,-1.8037,-1.6322,-1.5477,-1.5818,-1.4692,-1.5807,-1.959,-2.1933,-2.4531,-2.7441,-2.9173,-3.0292,-3.0794,-3.0801,-3.0806,-3.0793,-3.0728,-3.0691,-3.0574,-2.8711,-2.6901,-2.5034,-2.1838,-1.9802,-1.8428,0.0,0.0,0.0,0.0,0.0,0.0,0.0,0.0,0.0,0.0,0.0,0.0,0.0,0.0,0.0,0.0,0.0,0.0,0.0,0.0,0.0,0.0,0.0,0.0,0.0,0.0,0.0,0.0,0.0,0.0,0.0,0.0,0.0,0.0,-2.6296,-2.8183,-2.7775,-2.9759,-3.0343,-2.8265,-2.9257,-3.0162,-3.0476,-3.1021,-3.1732,-3.2553,-3.2969,-3.3271,-3.3522,-3.409,-3.4579,-3.4957,-3.5576,-3.6259,-3.6951,-3.7549,-3.8,-3.8341,-3.9176,-3.9345,-3.9011,-3.9615,-3.9575,-3.9121,-3.9238,-3.8868,-3.811,-3.7007,-3.677,-3.7025,-3.7094,-3.7642,-3.8158,0.0,0.0,0.0,0.0,0.0,0.0,0.0,-0.7148,-0.8319,-1.0068,-1.2512,-1.4765,-1.6513,-1.8202,-1.9589,-2.0523,-1.9818,-1.9656,-2.0402,-1.7301,-1.5838,-1.6692,-1.683,-1.8104,-2.0703,-2.406,-2.6621,-2.834,-3.0057,-3.0852,-3.0799,-3.0798,-3.0798,-3.0804,-3.0734,-3.0717,-3.0739,-3.0595,-2.9564,-2.7778,-2.5034,-2.3862,-2.3332,0.0,0.0,0.0,0.0,0.0,0.0,0.0,0.0,0.0,0.0,0.0,0.0,0.0,0.0,0.0,0.0,0.0,0.0,0.0,0.0,0.0,0.0,0.0,0.0,0.0,0.0,0.0,0.0,0.0,0.0,0.0,0.0,0.0,-2.5623,-2.858,-3.0348,-2.8999,-3.107,-3.1715,-2.9486,-3.0858,-3.2018,-3.2193,-3.3009,-3.3575,-3.37,-3.4026,-3.4172,-3.4108,-3.4765,-3.5687,-3.6856,-3.7596,-3.861,-3.985,-4.0241,-4.054,-4.0796,-4.0787,-4.0859,-4.0927,-4.0848,-4.0859,-4.096,-4.1012,-4.1069,-4.0921,-3.9234,-3.9013,-3.9645,-3.9715,-4.0257,-4.0848,0.0,0.0,0.0,0.0,0.0,0.0,0.0,-0.71,-0.8255,-0.9991,-1.248,-1.4765,-1.6503,-1.8242,-1.9609,-2.0444,-2.0316,-2.0018,-1.9654,-1.7519,-1.6682,-1.7593,-2.0025,-2.2271,-2.4243,-2.6463,-2.8125,-2.9238,-3.0302,-3.0838,-3.088,-3.0817,-3.0794,-3.0807,-3.0784,-3.112,-3.1719,-3.1625,-3.1319,-3.0642,-2.7816,-2.5543,-2.3599,0.0,0.0,0.0,0.0,0.0,0.0,0.0,0.0,0.0,0.0,0.0,0.0,0.0,0.0,0.0,0.0,0.0,0.0,0.0,0.0,0.0,0.0,0.0,0.0,0.0,0.0,0.0,0.0,0.0,0.0,0.0,-2.8235,-2.9861,-2.923,-3.0973,-3.229,-3.2247,-3.3458,-3.398,-3.311,-3.415,-3.4865,-3.4857,-3.5121,-3.5471,-3.5885,-3.6173,-3.637,-3.6577,-3.7297,-3.7908,-3.8385,-3.9033,-3.9945,-4.1113,-4.0758,-4.1362,-4.2696,-4.1432,-4.1285,-4.1953,-4.1298,-4.1354,-4.193,-4.1982,-4.236,-4.2714,-4.0991,-4.0464,-4.0683,-4.0659,-4.0386,-4.0039,0.0,0.0,0.0,0.0,0.0,0.0,0.0,-0.7077,-0.8369,-1.0508,-1.3047,-1.5312,-1.705,-1.8788,-2.0,-2.0503,-2.0541,-2.0032,-1.8839,-1.7433,-1.7362,-1.8974,-2.1645,-2.4252,-2.6738,-2.8144,-2.9277,-3.0132,-3.0611,-3.086,-3.0919,-3.122,-3.1152,-3.084,-3.1523,-3.1948,-3.2127,-3.2416,-3.2544,-3.2364,-3.0324,-2.8327,-2.6381,-2.4812,-2.3747,-2.2873,-2.0847,-1.9982,-1.9611,-1.8379,0.0,0.0,0.0,0.0,0.0,0.0,0.0,0.0,0.0,0.0,0.0,0.0,0.0,0.0,0.0,0.0,0.0,0.0,0.0,0.0,0.0,0.0,0.0,0.0,-3.0367,-3.2315,-3.2622,-3.3447,-3.4045,-3.4023,-3.4738,-3.5084,-3.488,-3.5545,-3.6011,-3.6105,-3.634,-3.6733,-3.7217,-3.7521,-3.7867,-3.8239,-3.8824,-3.9475,-4.0119,-4.0572,-4.1324,-4.2376,-4.2034,-4.2468,-4.3501,-4.2495,-4.2358,-4.2861,-4.2368,-4.2401,-4.2859,-4.288,-4.3158,-4.3426,0.0,0.0,0.0,0.0,-4.0677,-4.0247,0.0,0.0,0.0,0.0,0.0,0.0,0.0,-0.7087,-0.8568,-1.1242,-1.3809,-1.6055,-1.7808,-1.9503,-2.0566,-2.0719,-2.0566,-1.9784,-1.8238,-1.7421,-1.8163,-2.0818,-2.2603,-2.5075,-2.8364,-2.9296,-3.0116,-3.0899,-3.0886,-3.0886,-3.0916,-3.1723,-3.1694,-3.1016,-3.2494,-3.2881,-3.2439,-3.3054,-3.337,-3.3381,-3.2531,-3.1495,-3.0158,-2.7643,-2.7039,-2.7072,-2.3827,-2.2562,-2.2204,-2.0676,0.0,0.0,0.0,0.0,0.0,0.0,0.0,0.0,0.0,0.0,0.0,0.0,0.0,0.0,0.0,0.0,0.0,0.0,0.0,0.0,0.0,0.0,0.0,0.0,-3.2122,-3.4355,-3.5374,-3.574,-3.5661,-3.4897,-3.5284,-3.5566,-3.5458,-3.5776,-3.6197,-3.6533,-3.7029,-3.7521,-3.8047,-3.8432,0.0,0.0,0.0,-4.0472,-4.172,-4.1921,-4.2577,-4.3651,-4.3551,-4.3652,-4.3886,-4.3681,-4.3657,-4.3741,-4.3635,-4.3645,-4.3747,-4.3734,-4.3695,-4.3546,-4.2636,-4.2279,-4.2169,-4.1265,-4.0937,-4.0916,0.0,0.0,0.0,0.0,0.0,0.0,0.0,-0.709,-0.8534,-1.1175,-1.3782,-1.6069,-1.782,-1.9498,-2.0794,-2.1504,-2.0273,-1.9336,-1.8984,-1.8864,-2.0243,-2.3506,-2.5315,-2.7219,-2.9296,-3.0156,-3.0643,-3.0821,-3.0821,-3.0816,-3.0843,-3.171,-3.201,-3.1855,-3.219,-3.3024,-3.415,-3.361,-3.378,-3.4418,-3.4164,-3.2674,-3.0414,-2.908,-2.8126,-2.7314,-2.5994,-2.5351,-2.4987,-2.3964,-2.2649,-2.1405,-2.1265,-1.9825,0.0,0.0,0.0,0.0,0.0,0.0,0.0,0.0,0.0,0.0,0.0,0.0,0.0,0.0,0.0,0.0,0.0,0.0,0.0,-3.2559,-3.4924,-3.6317,-3.5807,-3.7055,-3.7545,-3.6287,-3.6249,-3.6259,-3.6207,-3.6591,-3.7106,-3.7641,-3.7893,-3.835,-3.9072,-3.9305,-3.9546,-3.989,-4.02,-4.0904,-4.2003,-4.2119,-4.2984,-4.4624,-4.3922,0.0,-4.5644,-4.4233,-4.398,-4.4611,-4.3915,-4.3973,-4.4569,-4.4577,-4.4528,-4.4314,-4.2759,-4.2139,-4.2013,-4.0977,-4.059,-4.0568,0.0,0.0,0.0,0.0,0.0,0.0,0.0,-0.6796,-0.8376,-1.0556,-1.3125,-1.5256,-1.6557,-1.7839,-1.8602,-1.8593,-1.7401,-1.7362,-1.9082,-1.8817,-2.0529,-2.4858,-2.6294,-2.8022,-3.0209,-3.0643,-3.0836,-3.0801,-3.1231,-3.1443,-3.1463,-3.2337,-3.2519,-3.2137,-3.3007,-3.3633,-3.4082,-3.4525,-3.494,-3.5318,-3.4793,-3.3784,-3.2446,-3.1478,-3.0733,-3.0023,-2.8613,-2.8044,-2.7749,-2.644,-2.477,-2.3273,-2.342,-2.14,-1.8933,0.0,0.0,0.0,0.0,0.0,0.0,0.0,0.0,0.0,0.0,0.0,0.0,0.0,0.0,-2.8493,-2.9658,0.0,-3.2988,-3.4532,-3.6493,-3.7614,-3.7137,-3.8063,-3.8239,-3.6784,-3.6869,-3.7143,-3.7274,-3.7688,-3.8126,-3.8571,-3.8883,-3.9307,-3.9877,-4.0067,-4.0264,-4.0538,-4.0649,-4.14,-4.2831,-4.2817,-4.3708,-4.5479,-4.4584,-4.4829,-4.6066,-4.4744,-4.4628,-4.5425,-4.4948,-4.4993,-4.5343,-4.5286,-4.4935,-4.433,-4.3038,-4.2356,-4.1918,-4.0815,-4.0427,-4.0412,0.0,0.0,0.0,0.0,0.0,0.0,0.0,-0.6514,-0.8159,-0.9736,-1.2222,-1.4176,-1.5054,-1.593,-1.6106,-1.5213,-1.4802,-1.5895,-1.9022,-1.8875,-2.0923,-2.5973,-2.7043,-2.8573,-3.0845,-3.0889,-3.085,-3.0801,-3.1677,-3.2012,-3.1864,-3.2904,-3.293,-3.2172,-3.3749,-3.4144,-3.3746,-3.5156,-3.5837,-3.5918,-3.5178,-3.4814,-3.4676,-3.3914,-3.3313,-3.2648,-3.0873,-2.9931,-2.9307,-2.7911,-2.5988,-2.4345,-2.4814,-2.2759,-2.0187,-2.0088,-1.8953,0.0,0.0,0.0,0.0,0.0,0.0,0.0,0.0,-2.6353,-2.7774,-2.819,-3.0035,-3.1812,-3.2414,-3.3876,-3.5241,-3.6017,-3.7534,-3.854,-3.8272,-3.8796,-3.8733,-3.738,-3.7618,-3.8021,-3.8395,-3.8753,-3.9129,-3.9412,-3.9794,-4.0152,-4.0501,-4.0661,-4.0823,-4.099,-4.0932,-4.1686,-4.3312,-4.3202,-4.4053,-4.581,-4.5045,-4.5138,-4.5944,-4.525,-4.5297,-4.5937,-4.588,-4.577,-4.5602,-4.5461,-4.4816,-4.3847,-4.2984,-4.2302,-4.1716,-4.0624,-4.0264,-4.0262,0.0,0.0,0.0,0.0,0.0,0.0,0.0,0.0,-0.7946,-0.892,-1.1315,-1.3279,-1.4147,-1.5018,-1.5195,-1.4315,-1.5525,-1.7165,-1.9158,-2.0585,-2.3358,-2.7811,-2.8848,-2.9803,-3.0875,-3.0843,-3.0816,-3.0801,-3.1663,-3.1702,-3.0977,-3.2625,-3.2927,-3.2147,-3.3112,-3.3925,-3.4571,-3.4765,-3.5259,-3.5912,-3.5853,-3.5772,-3.5636,-3.5546,-3.4381,-3.2692,-3.1763,-2.9883,-2.7829,-2.7571,-2.5945,-2.4133,-2.4662,-2.4157,-2.3076,-2.1422,-2.0342,-1.9665,-1.9515,-2.1004,-2.3039,-2.4984,-2.5718,-2.7125,0.0,-3.1674,-3.1429,-3.3687,-3.4164,-3.4534,-3.567,-3.613,-3.6608,-3.7292,-3.8522,-3.9046,-3.8176,-3.9213,-3.9829,-3.9184,-3.8946,-3.8946,-3.9256,-3.9507,-3.9852,-4.0242,-4.038,-4.0577,-4.0901,-4.0895,-4.0914,-4.0994,-4.0929,-4.1365,-4.2354,-4.2214,-4.3063,-4.4849,-4.4684,-4.5041,-4.5808,-4.5783,-4.5751,-4.5733,-4.5727,-4.5287,-4.4558,-4.4414,-4.3846,-4.2946,-4.1817,-4.1314,-4.1123,-4.0304,-3.9998,-3.9897,0.0,0.0,0.0,0.0,0.0,0.0,0.0,0.0,0.0,-0.884,-1.0792,-1.2225,-1.2558,-1.2459,-1.2626,-1.3233,-1.3953,-1.5773,-1.9038,-2.0378,-2.2999,-2.735,-2.8332,-2.9425,-3.0806,-3.0847,-3.0845,-3.0801,-3.1672,-3.1906,-3.1563,-3.2309,-3.2453,-3.2128,-3.248,-3.2851,-3.3259,-3.4267,-3.4881,-3.5237,-3.5739,-3.5914,-3.5749,-3.4767,-3.3549,-3.2213,-3.1242,-2.9536,0.0,-2.7109,-2.5793,-2.4556,-2.5443,-2.4384,-2.2779,-2.2749,-2.1745,-2.1022,-2.2764,-2.461,-2.6401,-2.7881,-2.9424,-3.1056,-3.2858,-3.3669,-3.4325,-3.535,-3.6183,-3.6868,-3.7212,-3.7608,-3.804,-3.8497,-3.948,-3.9981,-3.9246,-4.0117,-4.0442,-3.9514,-3.9827,-4.0119,-4.0145,-4.0331,-4.05,-4.0688,-4.1214,-4.1601,-4.1741,-4.1698,-4.1655,-4.1641,-4.1092,-4.1393,-4.2653,-4.2637,-4.3487,-4.5153,-4.4699,-4.4916,-4.5658,-4.5105,-4.5062,-4.5399,-4.4993,-4.4516,-4.3943,-4.3423,-4.2654,-4.1727,-4.1196,-4.0646,-4.0104,-3.9755,-3.9489,-3.9345,0.0,0.0,0.0,0.0,0.0,0.0,0.0,0.0,0.0,0.0,-0.9781,-1.0761,-1.0463,-1.0088,-1.0326,-1.1546,-1.2345,-1.4303,-1.792,-1.9631,-2.2238,-2.611,-2.7532,-2.8925,-3.0406,-3.0728,-3.0845,-3.0799,-3.1664,-3.1976,-3.175,-3.1984,-3.1973,-3.1752,-3.1999,-3.21,-3.2205,-3.371,-3.4479,-3.4736,-3.5076,-3.5339,-3.5337,-3.3414,-3.181,-3.0457,-2.9687,-2.8136,-2.6333,-2.5405,-2.4385,-2.365,-2.4674,-2.3683,-2.2373,-2.3526,-2.3239,-2.2965,-2.497,-2.7007,-2.8942,-3.0362,-3.2353,-3.3954,-3.4057,-3.5272,-3.648,-3.6726,-3.7499,-3.8191,-3.8364,-3.8572,-3.8902,-3.9402,-4.011,-4.0494,-4.0174,-4.0504,-4.0447,-3.9582,-3.9934,-4.029,-4.0402,-4.0726,-4.0935,-4.0926,-4.1768,-4.2169,-4.1896,-4.2274,-4.2354,-4.2001,-4.155,-4.1821,-4.2898,-4.2654,-4.3365,-4.5051,-4.4245,-4.44,-4.538,-4.4593,-4.4588,-4.508,-4.4341,-4.3743,-4.3236,-4.2375,-4.1444,-4.0516,-4.0296,-3.9818,-3.9181,-3.9017,-3.8943,-3.8943,0.0,0.0,0.0,0.0,0.0,0.0,0.0,0.0,0.0,0.0,0.0,0.0,0.0,-0.8447,-0.8954,-0.9008,-1.1276,-1.3504,-1.5399,-1.864,-2.1679,-2.4358,-2.6926,-2.8691,-2.9513,-3.0368,-3.0794,-3.0794,-3.1664,-3.167,-3.086,-3.1699,-3.1643,-3.0871,-3.1725,-3.2092,-3.2151,-3.3055,-3.3934,-3.4641,-3.3799,-3.3949,-3.4359,-3.1839,-2.9245,-2.6948,-2.6922,-2.5286,-2.2984,-2.19,-2.1056,-2.0554,-2.1242,-2.1942,-2.2646,-2.3548,-2.4917,-2.5977,-2.5221,-2.7234,-3.0085,-3.2265,-3.3542,-3.4803,-3.6801,-3.7356,-3.7748,-3.8794,-3.8316,-3.8097,-3.9403,-3.9081,-3.8918,-3.9831,-4.0181,-4.0346,-4.0461,-3.9994,-3.9656,-3.9685,-3.9021,-3.8873,-3.9649,-4.0506,-4.1003,-4.1,-4.1743,-4.1815,-4.0898,-4.2369,-4.2792,-4.1755,-4.2439,-4.2793,-4.2699,-4.1592,-4.2028,-4.394,-4.2936,-4.3304,-4.4919,-4.4757,-4.4757,-4.4858,-4.3923,-4.3061,-4.2262,-4.1261,-4.0258,-3.9309,-3.8913,-3.8676,-3.8491,-3.8168,-3.836,-3.8789,0.0,0.0,0.0,0.0,0.0,0.0,0.0,0.0,0.0,0.0,0.0,0.0,0.0,0.0,0.0,0.0,-1.1073,-1.2652,-1.4424,-1.7196,-1.9675,-2.1728,-2.4822,-2.6903,-2.7768,-2.9207,-2.9944,-2.9948,-3.0799,-3.1096,-3.0794,-3.0516,-3.0217,-2.9921,-2.9698,-2.9874,-3.0384,-3.0684,-3.166,-3.2897,-3.2026,-3.2179,-3.2713,-3.0701,-2.7945,-2.4996,0.0,-2.2113,-2.034,-1.9945,-1.9641,-1.9673,-2.1014,-2.1197,-2.1166,-2.254,-2.4544,-2.6483,-2.7342,-2.9869,-3.2674,-3.4376,-3.5957,-3.7366,-3.842,-3.8889,-3.9001,-3.8635,-3.8601,-3.8385,-3.7596,-3.7909,-3.8387,-3.8749,-3.9393,-3.9867,-3.9956,-4.0282,-3.9906,-3.8241,-3.9264,-3.973,-3.879,-3.9529,-4.0303,-4.0839,-4.154,-4.2054,-4.2311,-4.2688,-4.2731,-4.2373,-4.1972,-4.1656,-4.1438,-4.1703,-4.238,-4.3428,-4.3761,-4.4178,-4.4624,-4.4546,-4.4503,-4.4438,-4.301,-4.2179,-4.1698,-4.0021,-3.9003,-3.8475,-3.8227,-3.798,-3.7826,-3.7703,-3.7632,-3.7488,0.0,0.0,0.0,0.0,0.0,0.0,0.0,0.0,0.0,0.0,0.0,0.0,0.0,0.0,0.0,0.0,0.0,-1.1989,-1.31,-1.5253,-1.7301,-1.9077,-2.1555,-2.3435,-2.4585,-2.5714,-2.6594,-2.7211,-2.776,-2.8377,-2.8967,-2.8404,-2.8138,-2.8123,-2.7939,-2.8112,-2.8622,-2.8942,-2.9905,-3.1103,-2.9924,-2.9581,-2.9545,-2.7188,-2.4335,0.0,-1.9609,-1.8261,-1.7313,-1.7561,-1.7838,-1.8311,-1.9687,-2.0699,-2.1578,-2.2412,-2.4851,-2.7631,-2.9072,-3.158,-3.4219,-3.6064,-3.7604,-3.8784,-3.9138,-3.9433,-3.9276,-3.8001,-3.7817,-3.7533,-3.6311,-3.6503,-3.7081,-3.772,-3.8585,-3.9286,-3.9624,-4.0148,-3.9863,-3.8182,-3.9143,-3.9574,-3.8675,-3.9116,-3.9805,-4.0629,-4.1376,-4.199,-4.2403,-4.2584,-4.2601,-4.2427,-4.1802,-4.1354,-4.1128,-4.129,-4.1715,-4.2377,-4.3699,-4.427,-4.4154,-4.4065,-4.3844,-4.3503,-4.1983,-4.1132,-4.0677,-3.893,-3.8107,-3.7857,-3.7649,-3.7451,-3.7283,-3.7208,-3.6939,-3.6591,0.0,0.0,0.0,0.0,0.0,0.0,0.0,0.0,0.0,0.0,0.0,0.0,0.0,0.0,0.0,0.0,0.0,0.0,-1.1449,-1.3009,-1.4703,-1.6423,-1.7426,-1.8668,-2.026,-2.0397,-2.1243,-2.2898,-2.2951,-2.3832,-2.55,-2.5451,-2.5455,-2.5535,-2.6312,-2.6696,-2.6785,-2.7573,-2.8398,-2.9058,-2.7312,-2.6107,-2.5009,-2.1684,-1.8841,-1.6425,-1.4804,-1.4116,-1.4124,-1.4922,-1.5817,-1.6752,-1.7535,-2.0566,-2.372,-2.3284,-2.6005,-2.9382,-3.0366,-3.242,-3.4841,-3.718,-3.8392,-3.9027,-3.9052,-3.9071,-3.8617,-3.6994,-3.6086,-3.5551,-3.5461,-3.4905,-3.5025,-3.6717,-3.7715,-3.8551,-3.9415,-3.9565,-3.9539,-3.9353,-3.8733,-3.8566,-3.9206,-3.9262,-3.9588,-4.0389,-4.1223,-4.1548,-4.1218,-4.2023,-4.2287,-4.1836,-4.1798,-4.1707,-4.152,-4.0314,-4.0115,-4.0994,-4.2769,-4.3609,-4.3579,-4.3373,-4.2898,-4.2213,-4.1013,-4.0038,-3.9254,-3.8043,-3.7524,-3.7377,-3.7208,-3.7017,-3.6781,-3.6615,-3.6308,-3.6122,0.0,0.0,0.0,0.0,0.0,0.0,0.0,0.0,0.0,0.0,0.0,0.0,0.0,0.0,0.0,0.0,0.0,0.0,-1.0604,-1.2183,-1.3318,-1.3769,-1.5836,-1.7156,-1.7599,-1.8865,-1.9743,-2.0187,-2.0837,-2.1721,-2.2777,-2.2139,-2.2162,-2.2787,-2.2356,-2.251,-2.3096,-2.2678,-2.299,-2.364,-2.1934,-2.1136,-2.0829,-1.9897,-1.7918,-1.5669,-1.5824,-1.5032,-1.4068,-1.496,-1.7041,-1.9375,-2.0235,-2.2086,-2.4293,-2.6033,-2.8198,-3.0337,-3.1939,-3.4603,-3.6958,-3.7093,-3.8257,-3.9228,-3.8636,-3.8002,-3.7277,-3.6242,-3.4867,-3.3473,-3.2274,-3.2398,-3.3023,-3.4117,-3.5513,-3.6974,-3.8422,-3.9199,-3.9324,-3.8595,-3.9335,-3.9658,-3.8988,-3.9545,-3.991,-3.9838,-4.021,-4.0709,-4.1238,-4.1113,-4.0952,-4.0802,-4.0577,-4.0122,-3.9393,-3.9562,-4.0328,-4.1716,-4.2118,-4.2647,-4.3304,-4.2976,-4.2486,-4.1795,-4.0727,-3.9623,-3.8447,-3.7491,-3.6649,-3.6053,-3.6367,-3.6156,-3.5793,-3.5837,-3.5599,-3.5283,0.0,0.0,0.0,0.0,0.0,0.0,0.0,0.0,0.0,0.0,0.0,0.0,0.0,0.0,0.0,0.0,0.0,0.0,0.0,-1.0819,-1.1464,-1.2207,-1.289,-1.361,-1.4343,-1.4956,-1.5621,-1.6381,-1.6872,-1.7754,-1.8942,-1.8476,-1.8493,-1.8906,-1.8846,-1.9082,-1.9512,-1.9432,-1.9681,0.0,0.0,-1.7695,-1.6969,-1.6555,-1.501,-1.3215,-1.4054,-1.4698,-1.5311,-1.659,-1.8699,-2.1007,-2.2303,-2.4094,-2.615,-2.8414,-3.0231,-3.1851,-3.3306,-3.557,-3.7475,-3.7114,-3.8027,-3.8611,-3.7063,-3.6329,-3.5391,-3.3438,-3.2263,-3.1185,-2.9902,-3.0294,-3.1246,-3.2511,-3.4411,-3.6173,-3.7501,-3.8994,-3.959,-3.8658,-3.9637,-4.0072,-3.9315,-3.9773,-3.9935,-3.9489,-3.9785,-4.023,-4.0815,-4.0282,-3.9974,-4.0096,-3.9559,-3.8903,-3.8168,-3.8966,-3.993,-4.1052,-4.134,-4.1879,-4.2537,-4.2338,-4.185,-4.1124,-4.0002,-3.8906,-3.7854,-3.6651,-3.5786,-3.5311,-3.5633,-3.5498,-3.5115,-3.4908,-3.4671,-3.4366,0.0,0.0,0.0,0.0,0.0,0.0,0.0,0.0,0.0,0.0,0.0,0.0,0.0,0.0,0.0,0.0,0.0,0.0,0.0,0.0,0.0,0.0,-0.9609,-0.957,-1.1123,-1.0429,-1.0832,-1.2459,-1.2441,-1.325,-1.4798,-1.4846,-1.4868,-1.4902,-1.5775,-1.6146,-1.6145,-1.6953,-1.7245,-1.7087,-1.6327,-1.5057,-1.3515,0.0,0.0,0.0,-1.1562,0.0,0.0,0.0,-2.054,-2.2312,-2.4063,-2.6269,-2.8618,-3.047,-3.2011,-3.3345,-3.4459,-3.5904,-3.7089,-3.7026,-3.755,-3.7434,-3.5056,-3.4197,-3.3053,-2.9956,-2.9054,-2.8611,-2.7979,-2.8476,-2.9603,-3.1495,-3.3742,-3.5666,-3.6868,-3.8753,-3.9804,-3.9239,-3.9738,-4.004,-3.9785,-3.9848,-3.9721,-3.9275,-3.9561,-3.9857,-4.0057,-3.9472,-3.9198,-3.9433,-3.8634,-3.802,-3.7577,-3.8456,-3.9171,-3.9753,-4.0473,-4.1115,-4.1666,-4.1578,-4.1095,-4.0323,-3.9032,-3.805,-3.7188,-3.5739,-3.4975,-3.4833,-3.4988,-3.4847,-3.4512,-3.3939,-3.3585,-3.3375,0.0,0.0,0.0,0.0,0.0,0.0,0.0,0.0,0.0,0.0,-0.8913,-0.8633,0.0,0.0,0.0,0.0,0.0,0.0,0.0,0.0,0.0,0.0,-0.8076,-0.8397,-0.9413,-0.9293,-0.9685,-1.0644,-1.0599,-1.1106,-1.2167,-1.2061,-1.2412,-1.3142,-1.3312,-1.3429,-1.3473,-1.3629,-1.3318,-1.2694,-1.2557,-1.1875,-1.0935,0.0,0.0,0.0,0.0,0.0,0.0,0.0,-2.2253,-2.4894,-2.5895,-2.796,-3.0395,-3.2096,-3.288,-3.3547,-3.5141,-3.6289,-3.6859,-3.6199,-3.6188,-3.5838,-3.3906,-3.1851,-3.0007,-2.8706,-2.6754,-2.5438,-2.5964,-2.6751,-2.8058,-3.0373,-3.2237,-3.4392,-3.732,-3.7879,-3.8499,-3.9833,-3.9863,-3.9721,-3.9575,-3.9458,-3.9298,-3.8989,-3.8961,-3.8952,-3.8888,-3.8713,-3.8451,-3.806,-3.7829,-3.7613,-3.7429,-3.7534,-3.8238,-3.9458,-3.9248,-4.001,-4.1587,-4.0943,-4.0277,-3.9612,-3.8329,-3.7062,-3.5794,-3.5018,-3.435,-3.3781,-3.4086,-3.3853,-3.3303,-3.3093,-3.2741,-3.229,0.0,0.0,0.0,0.0,0.0,0.0,0.0,-0.8169,-0.8652,-1.142,-1.1499,-1.0805,-0.9505,-0.9828,0.0,0.0,0.0,0.0,0.0,0.0,0.0,0.0,0.0,0.0,-0.8961,-0.8993,-0.94,-1.0206,0.0,-1.0351,-1.0775,-1.0737,-1.0952,-1.1346,-1.142,-1.1456,-1.1443,-1.1452,-1.1214,-1.0864,-1.0869,-1.064,0.0,0.0,0.0,0.0,0.0,0.0,0.0,0.0,-2.1327,-2.5207,-2.7413,-2.9536,-3.1583,-3.3311,-3.3856,-3.4171,-3.5496,-3.6117,-3.6298,-3.5936,-3.5517,-3.4601,-3.2408,-3.0292,-2.829,-2.6575,-2.4853,-2.3796,-2.417,-2.5273,-2.6799,-2.8849,-3.0448,-3.2483,-3.545,-3.6382,-3.7242,-3.8476,-3.9277,-3.9599,-3.9272,-3.9192,-3.897,-3.8523,-3.841,-3.8423,-3.8499,-3.83,-3.8036,-3.7703,-3.7649,-3.7503,-3.7261,-3.7031,-3.7492,-3.8572,-3.8397,-3.8992,-4.0186,-4.0214,-3.9983,-3.9477,-3.8338,-3.7418,-3.6648,-3.5143,-3.4258,-3.3783,-3.3319,-3.2895,-3.2446,-3.1804,-3.1504,-3.1289,0.0,0.0,0.0,0.0,0.0,0.0,0.0,-0.966,-1.0522,-1.3723,-1.3856,-1.2781,-1.0551,-1.0363,-1.0269,0.0,0.0,0.0,0.0,0.0,0.0,0.0,0.0,0.0,0.0,0.0,0.0,-1.0191,-1.0194,0.0,0.0,0.0,0.0,0.0,-1.0209,-1.0237,-1.0187,-1.0155,-1.0174,0.0,0.0,-1.0209,0.0,0.0,0.0,0.0,0.0,0.0,0.0,0.0,-1.9724,-2.4053,-2.7156,-2.9621,-3.1678,-3.3271,-3.3963,-3.4428,-3.5339,-3.5706,-3.58,-3.5831,-3.5037,-3.3614,-3.1177,-2.9026,-2.6887,-2.4501,-2.315,-2.2459,-2.2643,-2.3848,-2.5428,-2.7335,-2.8893,-3.0772,-3.3465,-3.5134,-3.6379,-3.7246,-3.8653,-3.9427,-3.9017,-3.8902,-3.8646,-3.8201,-3.8018,-3.8018,-3.8186,-3.7863,-3.7631,-3.7559,-3.7466,-3.7279,-3.7009,-3.6713,-3.6932,-3.7714,-3.7866,-3.8306,-3.9003,-3.9564,-3.9747,-3.9456,-3.8253,-3.7675,-3.7399,-3.5329,-3.4211,-3.369,-3.2742,-3.2114,-3.1679,-3.0719,-3.036,-3.03,0.0,0.0,0.0,0.0,0.0,0.0,0.0,-1.044,-1.2039,-1.5194,-1.4533,-1.3315,-1.2103,-1.1407,-1.0477,0.0,0.0,0.0,0.0,0.0,0.0,0.0,0.0,0.0,0.0,0.0,0.0,-1.0195,-1.0132,0.0,0.0,0.0,0.0,0.0,0.0,-1.0105,-1.0115,-1.0048,0.0,0.0,0.0,0.0,0.0,0.0,0.0,0.0,0.0,-1.3357,-1.4574,-1.6177,-1.8587,-2.1263,-2.3107,-2.6412,-2.9803,-3.0697,-3.2077,-3.3505,-3.4398,-3.5201,-3.5778,-3.5666,-3.4508,-3.2859,-3.0802,-2.7995,-2.5253,-2.3191,-2.1528,-2.0695,-2.149,-2.2357,-2.3717,-2.6078,-2.7886,-3.0022,-3.2938,-3.4898,-3.6453,-3.7692,-3.8633,-3.9101,-3.8921,-3.8578,-3.8387,-3.8382,-3.7966,-3.7667,-3.7485,-3.7126,-3.697,-3.7147,-3.6908,-3.6783,-3.6742,-3.6485,-3.668,-3.7369,-3.767,-3.8275,-3.9183,-3.9101,-3.9169,-3.9156,-3.7343,-3.6546,-3.6426,-3.4996,-3.3808,-3.2777,-3.2392,-3.1589,-3.0687,-3.0054,-2.967,-2.9282,0.0,0.0,0.0,0.0,0.0,0.0,-1.0136,-1.0563,-1.223,-1.688,-1.622,-1.5301,-1.5329,-1.3235,-1.0813,0.0,0.0,0.0,0.0,0.0,0.0,0.0,0.0,0.0,0.0,0.0,-0.9051,-0.9421,-0.9844,0.0,0.0,0.0,0.0,0.0,0.0,-1.0083,-1.0038,-0.9977,0.0,0.0,0.0,0.0,0.0,0.0,0.0,0.0,0.0,0.0,-1.4186,-1.4809,-1.6778,-1.9106,-1.9817,-2.2203,-2.5343,-2.8333,-3.0785,-3.2713,-3.3551,-3.4771,-3.5766,-3.5624,-3.4371,-3.2571,-3.022,-2.7567,-2.4917,-2.2504,-2.1074,-2.0347,-2.0662,-2.1309,-2.2458,-2.4465,-2.5167,-2.6607,-2.9833,-3.1215,-3.2829,-3.538,-3.67,-3.7747,-3.8573,-3.8318,-3.8036,-3.7792,-3.7485,-3.7261,-3.7223,-3.7069,-3.6952,-3.6895,-3.6731,-3.6568,-3.6444,-3.6002,-3.6112,-3.6831,-3.705,-3.7602,-3.842,-3.8747,-3.8805,-3.8678,-3.7696,-3.6943,-3.6153,-3.4809,-3.347,-3.2169,-3.1214,-3.0301,-2.9435,-2.8712,-2.8182,-2.7789,0.0,0.0,0.0,0.0,0.0,-0.7434,-1.0252,-1.1019,-1.2866,-1.73,-1.6758,-1.6138,-1.6658,-1.3646,-1.0697,-0.844,0.0,0.0,0.0,0.0,0.0,0.0,0.0,0.0,0.0,0.0,-0.9233,-0.9283,-0.9804,-1.0117,0.0,0.0,-1.0147,-1.013,0.0,0.0,0.0,0.0,0.0,0.0,0.0,0.0,0.0,0.0,0.0,0.0,0.0,0.0,0.0,0.0,0.0,-1.7459,0.0,0.0,0.0,0.0,-2.894,-3.1184,-3.2235,-3.3562,-3.4697,-3.4855,-3.3566,-3.1669,-2.939,-2.6878,-2.4366,-2.196,-2.0735,-2.0079,-2.0059,-2.0449,-2.1335,-2.3019,-2.3291,-2.4381,-2.7642,-2.8938,-3.065,-3.3555,-3.509,-3.6562,-3.8172,-3.8018,-3.7612,-3.7185,-3.6913,-3.6753,-3.6655,-3.6678,-3.6736,-3.6794,-3.6533,-3.6367,-3.6276,-3.587,-3.592,-3.6458,-3.6936,-3.7337,-3.7724,-3.828,-3.8343,-3.8091,-3.7385,-3.656,-3.5608,-3.4258,-3.2741,-3.1209,-3.0128,-2.9232,-2.8417,-2.7617,-2.7217,-2.6934,0.0,0.0,0.0,0.0,0.0,0.0,-0.9448,-1.203,-1.4351,-1.6013,-1.5586,-1.5117,-1.512,-1.2014,-0.9941,-0.9974,0.0,0.0,0.0,0.0,0.0,0.0,0.0,0.0,0.0,0.0,-1.0194,-1.0188,-1.0187,-1.0203,-1.0191,-1.0064,-1.0061,-1.0188,0.0,0.0,0.0,0.0,0.0,0.0,0.0,0.0,0.0,0.0,0.0,0.0,0.0,0.0,0.0,0.0,0.0,0.0,0.0,0.0,0.0,0.0,-2.6189,-2.8591,-3.0273,-3.1324,-3.2161,-3.3015,-3.1761,-2.9879,-2.8198,-2.5677,-2.3236,-2.1552,-2.0351,-1.9638,-1.9695,-1.9763,-2.0327,-2.1868,-2.2832,-2.4383,-2.7226,-2.9204,-3.1094,-3.2995,-3.4266,-3.5768,-3.7707,-3.754,-3.7106,-3.6632,-3.6426,-3.6088,-3.5667,-3.5739,-3.6131,-3.6788,-3.6224,-3.6011,-3.6225,-3.6241,-3.6281,-3.6315,-3.767,-3.7887,-3.7219,-3.7616,-3.7663,-3.7358,-3.5819,-3.4931,-3.443,-3.301,-3.1369,-2.9745,-2.9254,-2.8519,-2.7709,-2.7175,-2.7095,-2.7027,0.0,0.0,0.0,0.0,0.0,0.0,0.0,-0.9898,-1.1745,-1.3981,-1.3672,-1.3709,-1.4895,-1.2408,-1.0683,-1.0742,0.0,0.0,0.0,0.0,0.0,0.0,0.0,0.0,0.0,0.0,-1.0115,-1.0193,-1.0707,-1.1254,-1.1835,-1.1225,-1.0887,-1.0725,-1.0171,-0.9854,0.0,0.0,0.0,0.0,0.0,0.0,-1.0102,0.0,0.0,0.0,0.0,0.0,0.0,0.0,0.0,0.0,0.0,0.0,0.0,-1.9962,-2.299,-2.5835,-2.6864,-2.8164,-2.9281,-2.9515,-2.8673,-2.7178,-2.4889,-2.3256,-2.1665,-1.9817,-1.9122,-1.9012,-1.9537,-1.9419,-1.9966,-2.2221,-2.2774,-2.3746,-2.6098,-2.8009,-2.9995,-3.219,-3.5205,-3.7076,-3.7029,-3.6951,-3.6849,-3.6731,-3.6367,-3.6241,-3.6385,-3.6259,-3.6131,-3.6122,-3.5827,-3.5694,-3.565,-3.5445,-3.5711,-3.6486,-3.6356,-3.6246,-3.618,-3.6667,-3.6137,-3.5014,-3.5337,-3.4392,-3.2658,-3.2154,-3.0516,-2.8305,-2.7907,-2.7075,-2.607,-2.5557,-2.5134,-2.4719,0.0,0.0,0.0,0.0,0.0,0.0,0.0,-0.8765,-1.036,-1.2085,-1.2129,-1.2604,-1.4217,-1.212,-1.0843,-1.1458,0.0,0.0,0.0,0.0,0.0,0.0,0.0,0.0,0.0,-0.9807,-1.037,-1.1033,-1.1521,-1.2336,-1.343,-1.2889,-1.2269,-1.154,-1.1024,-1.0408,0.0,0.0,0.0,0.0,0.0,0.0,-0.9982,0.0,0.0,0.0,0.0,0.0,0.0,0.0,0.0,0.0,0.0,0.0,0.0,0.0,-1.9584,-2.1951,-2.439,-2.5789,-2.6637,-2.6921,-2.6254,-2.4785,-2.2056,-2.1199,-2.0274,-1.7807,-1.7916,-1.8536,-1.8939,-1.8909,-1.9522,-2.1551,-2.2318,-2.3497,-2.5873,-2.784,-2.9945,-3.2475,-3.5454,-3.7008,-3.6277,-3.6319,-3.637,-3.6343,-3.6071,-3.6002,-3.6233,-3.5958,-3.5633,-3.5299,-3.5224,-3.5287,-3.535,-3.4873,-3.5075,-3.6002,-3.5124,-3.4793,-3.5019,-3.4738,-3.4282,-3.373,-3.3879,-3.293,0.0,-3.0851,-2.9215,-2.6976,-2.6352,-2.5603,-2.4791,-2.4276,-2.3683,-2.3254,0.0,0.0,0.0,0.0,0.0,0.0,0.0,0.0,-0.988,-1.0227,-1.0684,-1.1491,-1.2848,-1.1003,-1.0257,-1.1705,0.0,0.0,0.0,0.0,0.0,0.0,0.0,0.0,-0.997,-1.0024,-1.0797,-1.2287,-1.245,-1.3327,-1.4841,-1.4774,-1.396,-1.2509,-1.2346,-1.14,-0.9929,-0.9754,-0.9173,-0.8461,-0.9257,-0.9668,0.0,0.0,0.0,0.0,0.0,0.0,0.0,0.0,0.0,0.0,0.0,0.0,0.0,0.0,0.0,0.0,0.0,-2.3883,-2.4051,-2.4931,-2.4282,-2.2678,-1.975,-1.9552,0.0,-1.5941,-1.6817,-1.8178,-1.8157,-1.8369,-1.9021,-2.0401,-2.1789,-2.3648,-2.6381,-2.8603,-3.0991,-3.3681,-3.5206,-3.5934,-3.571,-3.5771,-3.5807,-3.5677,-3.5588,-3.5487,-3.5337,-3.4994,-3.4658,-3.4399,-3.4415,-3.469,-3.5182,-3.4374,-3.4329,-3.4974,-3.3918,-3.3513,-3.3627,-3.2105,-3.2046,-3.2924,-3.1695,-3.0659,-2.9858,-2.9188,-2.7723,-2.5758,-2.4791,-2.4192,-2.3891,-2.3169,-2.2702,-2.236,0.0,0.0,0.0,0.0,0.0,0.0,0.0,0.0,0.0,0.0,-0.7925,-0.8097,-0.8948,-0.8144,-0.7711,0.0,0.0,0.0,0.0,0.0,0.0,0.0,0.0,0.0,-0.8891,-0.9333,-1.0126,-1.124,-1.2344,-1.3708,-1.5263,-1.519,-1.4283,-1.2701,-1.2149,-1.0995,-0.9469,-0.9471,-0.9337,-0.9158,-0.9417,-0.957,0.0,0.0,0.0,0.0,-1.0539,-1.1329,0.0,0.0,0.0,0.0,0.0,0.0,0.0,0.0,-1.6491,-1.7433,-1.9647,0.0,-2.0508,-2.138,-2.1352,-2.0557,0.0,-1.8328,-1.8207,-1.6657,-1.6634,-1.7461,-1.9201,-1.8729,-1.9123,-2.2337,-2.3229,-2.4428,-2.7014,-3.0411,-3.323,-3.5004,-3.5819,-3.6249,-3.6354,-3.5725,-3.5532,-3.6071,-3.5419,-3.5161,-3.5487,-3.4333,-3.3887,-3.4317,-3.3423,-3.3266,-3.4003,-3.3466,-3.3771,-3.4955,-3.2344,-3.1276,-3.1523,-2.9956,-2.9022,-2.8726,-2.9329,-2.9013,-2.8208,-2.8138,-2.71,-2.5382,-2.436,-2.339,-2.2574,-2.2381,-2.1527,-2.0653,0.0,0.0,0.0,0.0,0.0,0.0,0.0,0.0,0.0,0.0,0.0,0.0,0.0,0.0,0.0,0.0,0.0,0.0,0.0,0.0,0.0,0.0,0.0,-0.8795,-0.8378,-0.8748,-0.9772,-1.1445,-1.2067,-1.3563,-1.5847,-1.5246,-1.4175,-1.2702,-1.1311,-0.9789,-0.8281,-0.8948,-0.8824,-0.8219,-0.8374,0.0,0.0,0.0,0.0,0.0,-1.0123,-1.0931,0.0,-1.2593,-1.3534,-1.4232,0.0,0.0,0.0,0.0,-1.5743,-1.6439,-1.7592,-1.9059,-2.0363,-2.0823,-2.0605,-1.9772,-1.7922,0.0,0.0,0.0,0.0,0.0,-1.9182,-1.9045,-1.965,-2.2611,-2.418,-2.6364,-3.01,-3.2745,-3.4783,-3.6127,-3.6411,-3.655,-3.6591,-3.5793,-3.5391,-3.5688,-3.5128,-3.4752,-3.4609,-3.3921,-3.3411,-3.3061,-3.2336,-3.2391,-3.3407,-3.2579,-3.2645,-3.348,-3.1214,-3.0169,-3.0156,-2.8769,-2.8094,-2.8014,-2.7966,-2.7574,-2.6946,-2.685,-2.59,-2.4299,-2.3423,-2.2596,-2.1907,-2.1231,-2.0138,-1.9107,0.0,0.0,0.0,0.0,0.0,0.0,0.0,0.0,0.0,0.0,0.0,0.0,0.0,0.0,0.0,0.0,0.0,0.0,0.0,0.0,0.0,0.0,0.0,-0.8033,-0.7997,-0.8058,-0.9197,-1.148,-1.1717,-1.326,-1.6017,-1.5297,-1.4067,-1.2376,-1.0367,-0.8625,-0.7298,-0.8462,-0.823,-0.7104,-0.7166,0.0,0.0,0.0,0.0,0.0,0.0,0.0,0.0,-1.2077,-1.2908,-1.3458,-1.3702,0.0,0.0,0.0,0.0,0.0,-1.6592,-1.9199,-2.15,-2.1255,-2.0663,-1.9688,-1.7907,0.0,0.0,0.0,0.0,0.0,0.0,-1.9581,-2.0573,-2.2683,-2.5422,-2.8888,-3.3466,-3.4684,-3.5634,-3.7029,-3.6729,-3.651,-3.6638,-3.589,-3.5295,-3.5128,-3.4752,-3.4219,-3.3443,-3.3308,-3.271,-3.1504,-3.1232,-3.1577,-3.2579,-3.1622,-3.1309,-3.1701,-3.0297,-2.9479,-2.9054,-2.7842,-2.7595,-2.8053,-2.6772,-2.6058,-2.5695,-2.5415,-2.4436,-2.299,-2.2166,-2.1624,-2.1135,-1.9982,-1.8727,-1.7683,0.0,0.0,0.0,0.0,0.0,0.0,0.0,0.0,0.0,0.0,0.0,0.0,0.0,0.0,0.0,0.0,0.0,0.0,0.0,0.0,0.0,-0.5598,-0.6403,-0.6935,-0.71,-0.6791,-0.7273,-0.8621,-1.149,-1.3378,-1.4398,-1.5863,-1.4686,-1.1298,-1.0222,-0.9188,-0.8274,-0.8545,-0.8598,-0.8415,-0.7496,0.0,0.0,0.0,0.0,0.0,0.0,0.0,0.0,-1.0499,-1.1664,-1.3019,-1.3183,0.0,0.0,0.0,0.0,0.0,-1.7835,-1.9871,-2.1107,-1.9744,-1.9666,-1.9615,-1.8354,0.0,0.0,0.0,0.0,0.0,0.0,-2.0853,-2.2134,-2.499,-2.8506,-3.1524,-3.3369,-3.4288,-3.5455,-3.7307,-3.5943,-3.5351,-3.6729,-3.5732,-3.5148,-3.5481,-3.4235,-3.3443,-3.3391,-3.1788,-3.0911,-3.0969,-3.024,-2.9875,-2.9789,-3.0043,-3.0557,-3.1195,-2.9053,-2.7932,-2.7601,-2.5445,-2.4513,-2.4669,-2.4212,-2.4055,-2.4189,-2.4066,-2.3202,-2.1855,-2.1058,-2.0041,-1.9079,-1.9054,-1.7942,-1.6409,0.0,0.0,0.0,0.0,0.0,0.0,0.0,0.0,0.0,0.0,0.0,0.0,0.0,0.0,0.0,0.0,0.0,0.0,0.0,0.0,0.0,-0.3994,-0.4533,-0.5297,-0.6338,-0.6951,-0.8172,-1.0008,-1.2082,-1.369,-1.4798,-1.433,-1.2665,-1.0088,-0.9178,-0.8166,-0.7168,-0.7573,-0.7644,-0.7456,0.0,0.0,0.0,0.0,0.0,0.0,0.0,0.0,0.0,0.0,-1.0181,-1.2086,-1.2366,0.0,0.0,0.0,0.0,0.0,-1.589,-1.7662,-1.9124,-1.8413,-1.9311,-2.0124,-1.9127,-1.8691,0.0,0.0,0.0,0.0,0.0,-2.1937,-2.3246,-2.673,-2.9505,-3.1857,-3.3722,-3.3748,-3.4631,-3.729,-3.6134,-3.5642,-3.6886,-3.5933,-3.5266,-3.534,-3.4021,-3.3024,-3.261,-3.142,-3.0615,-3.0315,-2.9594,-2.8903,-2.8285,-2.8556,-2.8794,-2.909,-2.8743,-2.7943,-2.6691,-2.5993,-2.5326,-2.4659,-2.3852,-2.3316,-2.2977,-2.2574,-2.1821,-2.0817,-2.0216,-1.9502,-1.8585,-1.7103,-1.584,-1.4885,0.0,0.0,0.0,0.0,0.0,0.0,0.0,0.0,0.0,0.0,0.0,0.0,0.0,0.0,0.0,0.0,0.0,0.0,0.0,0.0,-0.1233,-0.2598,-0.2895,-0.3915,-0.5853,-0.716,-0.8877,-1.1062,-1.2622,-1.4069,-1.5366,-1.2785,-1.0662,-0.8999,-0.8071,-0.7029,-0.603,-0.6512,-0.663,-0.6466,0.0,0.0,0.0,0.0,0.0,0.0,0.0,0.0,0.0,0.0,0.0,0.0,0.0,0.0,0.0,-1.3811,-1.3684,-1.3625,-1.4457,-1.5741,-1.7062,-1.7881,0.0,-2.0478,-2.0333,-1.9668,-1.9229,0.0,0.0,0.0,-2.2475,-2.3074,-2.4579,-2.819,-3.0056,-3.1777,-3.3822,-3.3297,-3.3824,-3.6841,-3.6025,-3.5706,-3.6808,-3.6088,-3.5459,-3.5186,-3.3905,-3.2917,-3.2241,-3.1477,-3.06,-2.9642,-2.903,-2.8128,-2.6876,-2.6832,-2.7018,-2.7406,-2.8292,-2.7728,-2.58,-2.6325,-2.5791,-2.442,-2.357,-2.267,-2.18,-2.1242,-2.0401,-1.9608,-1.9204,-1.8567,-1.7464,-1.4867,-1.375,-1.3349,0.0,0.0,0.0,0.0,0.0,0.0,0.0,0.0,0.0,0.0,0.0,0.0,0.0,0.0,0.0,0.0,0.0,0.0,0.0,0.0,-0.0612,-0.1049,-0.1789,-0.3349,-0.5841,-0.6617,-0.7711,-0.9196,-1.2509,-1.4499,-1.5155,-1.2487,-1.0179,-0.8232,-0.7303,-0.6554,-0.5996,-0.591,-0.6228,-0.6698,-0.5825,0.0,0.0,0.0,0.0,0.0,0.0,0.0,0.0,0.0,0.0,0.0,0.0,0.0,-1.2283,-1.3538,-1.22,-1.1302,-1.5746,-1.5992,-1.5726,-1.8789,-1.9633,-2.0207,-2.2208,-2.1698,0.0,-2.2682,0.0,-2.3615,-2.2782,-2.4339,-2.6644,-2.9356,-3.0941,-3.216,-3.3136,-3.3006,-3.3581,-3.5691,-3.4762,-3.4565,-3.6187,-3.595,-3.5582,-3.5407,-3.3955,-3.3098,-3.313,-3.1462,-3.0043,-2.8983,-2.8657,-2.738,-2.5031,-2.4869,-2.5644,-2.7365,-2.7002,-2.6121,-2.4885,-2.4529,-2.3486,-2.2059,-2.1939,-2.1461,-2.0575,-2.0353,-1.9344,-1.7853,-1.7602,-1.6314,-1.4251,-1.2782,-1.2288,-1.2123,0.0,0.0,0.0,0.0,0.0,0.0,0.0,0.0,0.0,0.0,0.0,0.0,0.0,0.0,0.0,0.0,0.0,0.0,0.0,0.0821,0.0764,0.0305,-0.1496,-0.2528,-0.267,-0.6257,-0.8693,-0.9821,-1.1783,-1.2813,-1.2842,-1.0194,-0.8115,-0.6518,-0.5212,-0.499,-0.5575,-0.4688,-0.5094,-0.6359,-0.625,-0.5497,0.0,0.0,0.0,0.0,0.0,0.0,0.0,0.0,-0.59,-0.7561,-0.9064,-1.034,-1.1399,-1.2038,-1.1071,-1.0447,-1.3368,-1.4626,-1.5754,-1.8406,-2.0277,0.0,0.0,-2.226,-2.2977,-2.3882,-2.4486,-2.4708,-2.407,-2.6057,-2.7986,-2.8552,-3.0213,-3.1777,-3.2925,-3.2444,-3.274,-3.4811,-3.4263,-3.4096,-3.4967,-3.4935,-3.4767,-3.4447,-3.3029,-3.2139,-3.1987,-3.0103,-2.8773,-2.8061,-2.7017,-2.5833,-2.448,-2.3899,-2.3593,-2.3635,-2.3839,-2.3523,-2.27,-2.3127,-2.2652,-2.1375,-2.1538,-2.0672,-1.9237,-1.8503,-1.7463,-1.6093,-1.4656,-1.3107,-1.152,-1.0418,-0.9953,-0.9732,0.0,0.0,0.0,0.0,0.0,0.0,0.0,0.0,0.0,0.0,0.0,0.0,0.0,0.0,0.0,0.0,0.0,0.0,0.0987,0.15,0.1495,0.0747,-0.0864,-0.1537,-0.1086,-0.4891,-0.7551,-0.8906,-0.9879,-1.0677,-1.1197,-0.7907,-0.6209,-0.588,-0.4056,-0.4078,-0.5396,-0.3458,-0.3935,-0.5949,-0.5599,-0.5035,0.0,0.0,0.0,0.0,0.0,0.0,0.0,0.0,-0.4632,-0.6436,-0.782,-0.9032,-1.0062,-1.0613,-1.0024,-0.9693,-1.2144,-1.3723,-1.5393,-1.8295,0.0,0.0,-2.2685,-2.3437,-2.4441,-2.5176,-2.5118,-2.519,-2.6101,-2.7385,-2.849,-2.9,-3.0231,-3.1408,-3.2414,-3.199,-3.2165,-3.3726,-3.3913,-3.3932,-3.4023,-3.4451,-3.4412,-3.3713,-3.2654,-3.184,-3.1306,-2.9608,-2.8219,-2.7215,-2.5992,-2.476,-2.3472,-2.2377,-2.1228,-2.0186,-2.0113,-2.0133,-2.0189,-2.0762,-2.0498,-1.9535,-1.9516,-1.8747,-1.7367,-1.6464,-1.5253,-1.3874,-1.2154,-1.0581,-0.9208,-0.8427,-0.7957,-0.7585,0.0,0.0,0.0,0.0,0.0,0.0,0.0,0.0,0.0,0.0,0.0,0.0,0.0,0.0,0.0,0.0,0.0,0.0,-0.0048,0.1157,0.1351,0.0163,0.0227,-0.0384,-0.1833,-0.2263,-0.3585,-0.5889,-0.6627,-0.8245,-1.0614,-0.5894,-0.4724,-0.6525,-0.4159,-0.4084,-0.5562,-0.2351,-0.2814,-0.5522,-0.3583,-0.3324,-0.3948,0.0,0.0,0.0,0.0,0.0,0.0,0.0,-0.2943,-0.4047,-0.6639,-0.7653,-0.8153,-0.9479,-0.8963,-0.8835,-1.2758,-1.3625,-1.4405,-1.862,0.0,0.0,-2.5793,-2.56,-2.5532,-2.6925,-2.5576,-2.5215,-2.8726,-2.8146,-2.8132,-3.1171,-3.1324,-3.1164,-3.1554,-3.175,-3.1972,-3.2355,-3.3542,-3.4068,-3.3422,-3.4641,-3.4834,-3.3381,-3.3016,-3.2398,-3.1427,-3.0264,-2.8681,-2.6526,-2.5814,-2.4241,-2.1706,-2.0029,-1.8679,-1.7668,-1.588,-1.5996,-1.7595,-1.7261,-1.6698,-1.6051,-1.5655,-1.528,-1.4849,-1.4214,-1.2857,-1.1107,-1.0402,-0.9068,-0.747,-0.6835,-0.6284,-0.5734,0.0,0.0,0.0,0.0,0.0,0.0,0.0,0.0,0.0,0.0,0.0,0.0,0.0,0.0,0.0,0.0,0.0,0.0,0.0682,0.0918,0.0937,0.0674,0.0027,0.0101,0.1037,0.0527,-0.1806,-0.5975,-0.4379,-0.4187,-0.5269,-0.2816,-0.1726,-0.1878,-0.2433,-0.3034,-0.3502,-0.1738,-0.2518,-0.4858,-0.4148,-0.3478,-0.282,0.0,0.0,0.0,0.0,0.0,0.0,0.0,0.0,0.0,-0.4812,-0.5946,-0.6762,-0.6369,-0.601,-0.6264,-0.8682,-1.097,-1.353,-1.7003,0.0,0.0,0.0,-2.7156,0.0,-2.6894,-2.7269,-2.75,-2.7029,-2.8229,-2.9457,-2.9919,-3.1446,-3.2437,-3.2126,-3.2652,-3.2875,-3.2388,-3.2902,-3.2968,-3.2126,-3.1246,-3.0791,-3.1049,-2.9204,-2.8251,-2.8627,-2.6927,-2.5406,-2.4204,-2.2829,-2.1282,-1.9589,-1.8604,-1.7366,-1.6044,-1.4297,-1.4375,-1.5889,-1.5634,-1.5174,-1.4432,-1.4734,-1.4115,-1.2785,-1.1408,-0.9756,-0.8078,-0.7454,-0.6563,-0.5674,-0.4894,-0.4504,-0.4358,0.0,0.0,0.0,0.0,0.0,0.0,0.0,0.0,0.0,0.0,0.0,0.0,0.0,0.0,0.0,0.0,0.0,0.0,0.0,0.0827,0.1044,0.1021,0.0774,0.1275,0.2669,0.2103,0.0381,-0.2535,-0.1301,-0.0913,-0.1303,-0.0214,0.0285,0.0189,-0.0912,-0.1964,-0.2799,-0.0532,-0.1066,-0.3343,-0.2094,-0.1683,-0.1688,0.0,0.0,0.0,0.0,0.0,0.0,0.0,0.0,0.0,-0.344,-0.4099,-0.4688,-0.4345,-0.4759,-0.5683,-0.7116,-0.9567,0.0,-1.5946,-2.0153,-2.3784,-2.5015,-2.6782,-2.7989,-2.7387,-2.7744,-2.8088,-2.7743,-2.899,-3.0079,-3.0165,-3.1799,-3.273,-3.1771,-3.2709,-3.3081,-3.2039,-3.2444,-3.2444,-3.1391,-2.9829,-2.9102,-2.9735,-2.7413,-2.6277,-2.6934,-2.5169,-2.3641,-2.2609,-2.082,-1.928,-1.7929,-1.689,-1.5791,-1.4561,-1.3055,-1.2714,-1.3333,-1.3082,-1.2736,-1.2164,-1.2139,-1.1516,-1.0366,-0.8829,-0.7402,-0.6089,-0.5541,-0.4921,-0.4224,-0.3368,-0.3057,-0.2984,0.0,0.0,0.0,0.0,0.0,0.0,0.0,0.0,0.0,0.0,0.0,0.0,0.0,0.0,0.0,0.0,0.0,0.0,0.0,0.0,0.1415,0.1194,0.2035,0.2767,0.3292,0.281,0.2645,0.2792,0.2073,0.1627,0.1444,0.2028,0.1769,0.0786,0.0829,-0.0446,-0.2407,0.11,0.1021,-0.1258,0.1291,0.1094,-0.0506,0.1302,0.0,0.0,0.0,0.0,0.0,0.0,0.0,0.0,-0.2272,-0.2223,-0.2314,-0.2997,-0.436,-0.5759,-0.6613,-0.8298,-1.0729,-1.442,-1.7822,-2.0583,-2.1957,-2.5158,-2.7752,-2.75,-2.717,-2.7614,-2.9763,-2.9995,-3.0186,-3.1214,-3.2196,-3.2342,-3.1001,-3.2201,-3.2827,-3.1699,-3.228,-3.2338,-3.1134,-2.9737,-2.8925,-2.8931,-2.682,-2.5588,-2.5809,-2.4227,-2.27,-2.1432,-1.9641,-1.7976,-1.6486,-1.5002,-1.3966,-1.3302,-1.207,-1.1174,-1.0565,-1.0438,-1.0143,-0.9841,-0.8765,-0.8165,-0.7876,-0.663,-0.5637,-0.48,-0.4389,-0.3841,-0.3144,-0.2118,-0.1725,-0.1568,0.0,0.0,0.0,0.0,0.0,0.0,0.0,0.0,0.0,0.0,0.0,0.0,0.0,0.0,0.0,0.0,0.0,0.0,0.0,0.0,0.0937,0.1035,0.2082,0.2883,0.3373,0.3661,0.3738,0.3571,0.2988,0.2851,0.3182,0.4193,0.4603,0.4488,0.4895,0.4073,0.2373,0.2523,0.1662,0.0228,0.0664,0.0839,0.0849,0.1073,0.1569,0.0,0.0,0.0,0.0,0.0,0.0,0.0,-0.04,-0.0769,-0.1121,-0.1074,-0.1053,-0.0893,-0.0401,-0.2202,0.0,-0.6832,-1.2846,-1.9164,-2.2782,-2.4747,-2.5208,-2.2975,-2.5499,-2.8139,-2.8402,-2.9452,-3.0331,-3.0535,-3.1516,-3.2264,-3.2261,-3.2637,-3.3031,-3.3378,-3.3042,-3.2354,-3.1278,-2.8793,-2.6911,-2.6193,-2.3357,-2.2037,-2.3055,-2.1353,-2.0138,-1.9652,-1.7957,-1.6079,-1.414,-1.3172,-1.2611,-1.2519,-1.1037,-1.0663,-1.1403,-1.126,-1.0657,-0.9825,-0.8003,-0.7243,-0.7123,-0.5821,-0.4713,-0.3868,-0.3175,-0.2613,-0.2091,-0.1027,-0.0628,-0.047,0.0,0.0,0.0,0.0,0.0,0.0,0.0,0.0,0.0,0.0,0.0,0.0,0.0,0.0,0.0,0.0,0.0,0.0,0.0,0.0,0.1739,0.2359,0.29,0.3468,0.4103,0.4256,0.4383,0.4471,0.3896,0.3823,0.4246,0.5012,0.5519,0.5806,0.5868,0.5155,0.3884,0.3723,0.3113,0.2257,0.2536,0.2845,0.3156,0.342,0.3645,0.3759,0.3334,0.0,0.0,0.0,0.0,0.0,0.0,0.0,0.032,0.0665,0.103,0.1529,0.2221,0.1197,0.0,-0.3109,-0.8017,-1.2531,-1.3674,-1.7485,-2.0181,-1.8001,-2.3418,-2.8659,-2.9045,-2.9576,-3.0014,-3.013,-3.0847,-3.0835,-2.929,-2.7071,-2.6873,-3.0247,-2.739,-2.6713,-3.0751,-2.8271,-2.601,-2.5064,-2.2127,-2.0613,-2.1151,-1.95,-1.8598,-1.8532,-1.6486,-1.4988,-1.3954,-1.2171,-1.1527,-1.215,-1.0807,-1.0507,-1.1046,-1.037,-0.99,-0.9372,-0.7238,-0.6288,-0.6202,-0.4693,-0.3553,-0.2721,-0.2116,-0.1632,-0.1152,-0.0242,0.0239,0.0557,0.0,0.0,0.0,0.0,0.0,0.0,0.0,0.0,0.0,0.0,0.0,0.0,0.0,0.0,0.0,0.0,0.0,0.0,0.0,0.0,0.0,0.3795,0.3761,0.4029,0.4633,0.4554,0.4679,0.5042,0.4817,0.4867,0.5198,0.5396,0.5921,0.6654,0.6109,0.5402,0.4666,0.4804,0.4566,0.4156,0.461,0.4752,0.4827,0.5702,0.5504,0.4833,0.5608,0.5098,0.4058,0.4185,0.0,0.0,0.0,0.0,0.1851,0.2266,0.2554,0.2863,0.3478,0.345,0.2558,-0.015,-0.2868,-0.4479,-0.3056,-0.8478,-1.369,-1.3293,-2.1166,-2.8536,-2.9822,-2.9659,-2.9341,-2.9538,-2.9934,-2.9191,-2.6287,-2.251,-2.1996,-2.7284,-2.266,-2.1827,-2.8912,-2.7458,-2.5325,-2.3464,-2.1608,-2.0336,-1.9737,-1.8441,-1.762,-1.7552,-1.5085,-1.3784,-1.3852,-1.1205,-1.0392,-1.1255,-1.053,-1.0019,-0.9813,-0.8673,-0.833,-0.8557,-0.6454,-0.5479,-0.5349,-0.3683,-0.2518,-0.1646,-0.1331,-0.0839,-0.0168,0.0575,0.1138,0.1538,0.0,0.0,0.0,0.0,0.0,0.0,0.0,0.0,0.0,0.0,0.0,0.0,0.0,0.0,0.0,0.0,0.0,0.0,0.199,0.0,0.0,0.354,0.3762,0.3789,0.3604,0.4184,0.4482,0.4412,0.5679,0.6436,0.671,0.6408,0.737,0.934,0.8234,0.7744,0.7607,0.5874,0.5072,0.4863,0.3924,0.3399,0.3305,0.429,0.4756,0.4916,0.5336,0.5425,0.5247,0.4593,0.4037,0.0,0.0,0.0,0.3319,0.3851,0.3968,0.4241,0.5596,0.0,0.5513,0.0,0.3368,0.077,-0.122,-0.3426,-0.6124,-1.0041,-1.8839,-2.6442,-2.8379,-2.8591,-2.8318,-2.7894,-2.8272,-2.8695,-2.896,-2.9044,-2.9661,-3.1306,-2.9464,-2.6874,-2.3782,-2.5233,-2.3919,-1.8115,-1.9963,-2.0666,-1.9093,-1.8015,-1.711,-1.6294,-1.3301,-1.139,-1.0718,-0.9326,-0.8576,-0.8332,-0.8657,-0.8326,-0.7504,-0.6379,-0.6459,-0.7438,-0.579,-0.4983,-0.4828,-0.341,-0.2124,-0.1115,-0.0829,-0.0167,0.0688,0.1485,0.195,0.2268,0.0,0.0,0.0,0.0,0.0,0.0,0.0,0.0,0.0,0.0,0.0,0.0,0.0,0.0,0.0,0.1094,0.1229,0.1785,0.2906,0.3232,0.3647,0.4256,0.4185,0.4168,0.4238,0.4634,0.4871,0.4906,0.5181,0.6603,0.9075,0.8939,0.9123,0.9574,0.8634,0.817,0.795,0.6066,0.5088,0.4756,0.4038,0.4254,0.5025,0.4978,0.5401,0.603,0.6098,0.5877,0.5437,0.4693,0.4656,0.4609,0.2872,0.0,0.0,0.0,0.4782,0.6049,0.8177,0.9125,0.9574,0.0,0.9734,0.8918,0.7571,0.4833,0.1793,-0.1168,-0.7364,-1.4814,-2.3052,-2.5735,-2.688,-2.7509,-2.7333,-2.5764,-2.1914,-2.1087,-2.1551,-2.3308,-2.2118,-2.2098,-2.4491,-2.5099,-2.2665,-1.6158,-1.6728,-1.568,-1.1867,-1.1759,-1.1977,-1.2371,-0.9685,-0.9379,-1.1673,-0.8042,-0.6772,-0.7781,-0.7865,-0.7388,-0.6466,-0.5291,-0.5247,-0.5925,-0.4402,-0.3696,-0.3416,-0.2074,-0.0896,0.0167,0.0499,0.1006,0.17,0.2218,0.2679,0.3589,0.0,0.0,0.0,0.0,0.0,0.0,0.0,0.0,0.0,0.0,0.0,0.0,0.0,0.0,0.0,0.0,0.1649,0.233,0.352,0.3529,0.3871,0.4742,0.443,0.4345,0.4563,0.4613,0.4738,0.492,0.5629,0.7475,1.0386,1.1176,1.1224,1.0572,0.9763,0.8947,0.8059,0.646,0.5493,0.5017,0.4818,0.5497,0.6606,0.6375,0.6749,0.7361,0.7144,0.642,0.5497,0.4982,0.508,0.5069,0.3105,0.3393,0.0,0.0,0.0,0.7253,0.9431,0.0,1.1832,1.2675,1.3893,1.4871,1.4823,1.2206,0.94,0.7965,0.4342,-0.2165,-1.3847,-1.9506,-2.3288,-2.6005,-2.6084,-2.3784,-1.798,-1.6426,-1.6602,-1.8546,-1.6465,-1.706,-2.2693,-2.2153,-1.9004,-1.3132,-1.2126,-1.0295,-0.6823,-0.4965,-0.5284,-0.8158,-0.5473,-0.6167,-1.0647,-0.6514,-0.5503,-0.7625,-0.6738,-0.6001,-0.5341,-0.4122,-0.3764,-0.407,-0.2939,-0.2338,-0.2019,-0.0716,0.1173,0.3097,0.2188,0.2936,0.4525,0.3626,0.3662,0.4849,0.0,0.0,0.0,0.0,0.0,0.0,0.0,0.0,0.0,0.0,0.0,0.0,0.295,0.2093,0.1584,0.1848,0.2051,0.2574,0.354,0.4004,0.4302,0.4431,0.423,0.0,0.3678,0.3497,0.3463,0.3598,0.8258,1.0176,0.9528,1.2324,1.3754,1.3915,1.2909,1.1123,0.8785,0.7601,0.6753,0.6228,0.6397,0.645,0.6573,0.8134,0.8707,0.8644,0.818,0.7068,0.5755,0.5679,0.5194,0.4492,0.354,0.4045,0.5016,0.0,0.0,0.0,0.8243,0.9317,0.0,1.2215,1.4116,1.5752,1.6557,1.6679,1.6291,1.5201,1.2698,0.8305,0.0438,-0.825,-1.6163,-2.208,-2.3979,-2.4368,-2.3451,-2.3384,-2.3685,-2.4394,-1.952,-1.5546,-1.4218,-1.3541,-1.1354,-0.6902,-0.5822,-0.6286,-0.8375,0.0271,0.2162,-0.4727,-0.0924,-0.0717,-0.4719,-0.4134,-0.493,-0.7102,-0.4643,-0.3542,-0.3487,-0.2167,-0.1666,-0.1744,-0.1471,-0.1311,-0.1058,0.0465,0.4351,0.882,0.4196,0.5929,1.0422,0.6193,0.4762,0.5755,0.0,0.0,0.0,0.0,0.0,0.0,0.0,0.0,0.0,0.0,0.0,0.0,0.0,0.2861,0.2499,0.2128,0.3023,0.3731,0.4032,0.4687,0.4943,0.4661,0.447,0.4224,0.3923,0.3854,0.3684,0.3439,0.6115,0.8411,1.0306,1.1518,1.2342,1.2795,1.1772,1.0938,1.0203,0.7731,0.674,0.6863,0.7368,0.8375,0.961,0.9659,1.0319,1.1054,0.9689,0.8596,0.7699,0.7063,0.7249,0.7327,0.4987,0.5168,0.6276,0.6595,0.7028,0.7771,0.0,0.0,1.1329,1.3119,1.4702,1.6175,1.7669,1.8317,1.8629,1.8623,1.7006,1.3578,0.703,-0.071,-0.7913,-1.3539,-1.2937,-1.0522,-0.6961,-1.0239,-1.1576,-0.7653,-1.4128,-1.7952,-1.5566,-1.7516,-1.6927,-1.2135,-0.9939,-0.789,-0.5815,-0.2047,-0.1589,-0.5308,-0.2528,-0.1556,-0.285,-0.4126,-0.4585,-0.4176,-0.3048,-0.2666,-0.2976,-0.1746,0.0784,0.4062,0.1629,0.0386,0.0226,0.1348,0.5206,1.0249,0.8902,1.1697,1.6312,1.5543,1.303,1.1359,0.0,0.0,0.0,0.0,0.0,0.0,0.0,0.0,0.0,0.0,0.0,0.0,0.0,0.0,0.3795,0.313,0.3828,0.4291,0.4296,0.488,0.5103,0.4805,0.4703,0.4518,0.4236,0.4232,0.4051,0.3699,0.5117,0.7123,0.9637,1.0232,1.1076,1.2025,1.0389,1.0054,1.0639,0.9227,0.8154,0.7577,0.9276,1.0653,1.1781,1.2091,1.2702,1.3208,1.1745,1.0354,0.9148,0.8557,0.8577,0.8472,0.6372,0.6118,0.6684,0.717,0.7455,0.0,0.9377,0.0,0.0,1.3084,1.458,1.6229,1.8077,1.8893,1.9401,2.0049,1.9787,1.7762,1.2208,0.7525,0.1966,-0.5809,-0.5557,-0.2756,0.1845,-0.1412,-0.292,0.0748,-0.6075,-1.1815,-1.3613,-1.5,-1.4788,-1.2405,-0.9488,-0.6319,-0.2921,-0.0226,-0.0214,-0.3314,-0.242,-0.2207,-0.29,-0.3742,-0.3635,-0.2542,-0.1712,-0.1746,-0.2444,0.0786,0.323,0.5094,0.6621,0.6936,0.6288,0.5607,0.9467,1.5774,1.465,1.7591,2.2371,2.1692,1.9097,1.7138,0.0,0.0,0.0,0.0,0.0,0.0,0.0,0.0,0.0,0.6789,0.0,0.0,0.0,0.0,0.0,0.49,0.4455,0.4236,0.4306,0.4575,0.4754,0.4804,0.4863,0.4783,0.4526,0.4516,0.4433,0.4293,0.5686,0.6679,0.7318,0.8631,1.0252,1.1931,0.9219,0.8682,0.9924,1.1985,1.1057,0.8559,1.2144,1.317,1.2824,1.5418,1.585,1.4994,1.4325,1.2366,1.0087,1.0197,0.9116,0.7701,0.7608,0.6869,0.62,0.6925,0.7451,0.0,0.0,0.0,0.0,1.1933,1.3651,1.5823,1.7757,1.8441,1.8841,1.9521,2.1081,2.0923,1.6335,1.6367,1.3085,0.0772,-0.2497,-0.2311,0.0994,0.1321,0.0606,-0.1045,0.3777,0.3145,-0.7277,-0.4796,-0.3791,-0.6835,-0.3697,-0.125,-0.0327,0.5869,0.6875,0.1343,-0.0236,-0.2091,-0.445,-0.2781,-0.2068,-0.24,-0.0654,-0.0582,-0.1811,0.5352,0.5702,0.1246,1.3226,1.813,1.7371,1.3326,1.7348,2.5608,2.1112,2.3355,2.8576,2.4151,2.2286,2.2728,0.0,0.0,0.0,0.0,0.0,0.0,0.0,0.6486,0.6987,0.0,0.0,0.0,0.7176,0.6964,0.6573,0.5944,0.6391,0.6108,0.4679,0.5286,0.5502,0.5029,0.4949,0.4841,0.472,0.4666,0.454,0.4303,0.5222,0.6112,0.6961,0.7665,0.9055,1.0872,0.9234,0.8819,0.9355,0.9173,1.0112,1.1787,1.2666,1.4077,1.5747,1.6584,1.6922,1.6892,1.6407,1.5381,1.4163,1.3711,1.3253,1.2466,1.0219,0.8432,0.7299,0.797,0.9034,0.0,1.0032,0.0,0.0,0.0,0.0,0.0,1.5531,1.6661,1.7561,1.8602,1.8106,1.7119,1.6045,1.5174,1.357,1.0524,0.829,0.7599,0.9433,0.9127,0.9499,1.1629,0.8108,0.3836,-0.0385,-0.2316,-0.5308,-1.0153,-0.7666,-0.6196,-0.6867,-0.4053,-0.3012,-0.421,-0.4377,-0.4148,-0.3383,-0.222,-0.1297,-0.0495,0.0278,0.0355,0.0074,0.6197,0.8552,0.8298,1.548,2.0803,2.3987,1.9276,2.1158,2.6914,2.5877,2.9071,3.4118,3.3044,3.0014,2.7112,0.0,0.0,0.0,0.0,0.0,0.0,0.7854,0.7995,0.8139,0.0,0.0,0.0,0.8544,0.8654,0.8425,0.7709,0.7568,0.6933,0.5509,0.5559,0.5639,0.5634,0.522,0.5105,0.537,0.4956,0.4672,0.4517,0.4886,0.5372,0.5982,0.6589,0.7625,0.8982,0.8414,0.8532,0.9096,0.7988,0.8921,1.1328,1.3362,1.4981,1.6375,1.8107,1.8654,1.8472,1.8301,1.7366,1.6193,1.5909,1.5511,1.4604,1.1443,0.987,0.9085,0.8657,0.978,0.0,0.0,0.0,0.0,1.3154,0.0,0.0,1.5484,1.5949,1.6276,1.7677,1.729,1.6539,1.6078,1.5267,1.4469,1.3731,1.2225,1.1998,1.458,1.4362,1.439,1.5644,1.2865,0.9024,0.4384,0.2109,-0.06,-0.4359,-0.4196,-0.4568,-0.6101,-0.4791,-0.4779,-0.6584,-0.5203,-0.3742,-0.2344,-0.1542,-0.0677,0.0275,0.0903,0.1135,0.1236,0.7393,0.9452,0.8623,1.851,2.3106,2.3748,2.5436,2.7729,3.0126,3.0338,3.2832,3.631,3.6436,3.4156,3.137,0.0,0.0,0.0,0.7748,0.8324,0.8968,1.0191,1.0013,0.9817,0.0,0.9542,0.9589,1.0673,1.0908,1.063,0.97,0.8439,0.7353,0.6561,0.5736,0.5667,0.6496,0.5693,0.5538,0.6189,0.5366,0.4884,0.4787,0.4815,0.4864,0.4938,0.5646,0.6329,0.6976,0.0,0.0,0.8723,0.789,0.7942,0.9008,1.3884,1.5735,1.5984,1.9725,2.0618,1.9875,2.0047,1.8892,1.7271,1.7461,1.6693,1.5137,1.2202,1.1495,1.1327,0.9404,1.0339,0.0,0.0,0.0,0.0,1.417,1.3444,0.0,1.621,1.5669,1.5002,1.6559,1.7383,1.7382,1.6014,1.5846,1.5156,1.268,1.1839,1.284,1.6672,1.6944,1.6134,1.4589,1.7264,1.6095,0.8062,0.786,0.7507,0.5731,0.3209,0.1068,-0.053,0.022,-0.128,-0.5754,-0.3692,-0.2213,-0.1542,-0.0806,-0.0134,0.0471,0.1803,0.2501,0.2902,1.0073,1.0602,0.6732,2.2345,2.5523,2.0439,3.0743,3.4557,3.384,3.3442,3.4534,3.6197,3.5562,3.515,3.487,0.0,0.0,0.0,0.8536,0.9186,0.9918,1.127,1.1715,1.196,1.2112,1.2185,1.2823,1.4386,1.3493,1.2113,1.0448,1.0234,0.9326,0.7255,0.711,0.7171,0.7363,0.654,0.6143,0.628,0.5888,0.5333,0.4644,0.5756,0.6078,0.5679,0.5744,0.6367,0.74,0.6008,0.5899,0.6844,0.7976,0.895,1.0033,1.31,1.578,1.8184,2.047,2.1422,2.1577,2.1916,2.1476,2.068,2.0286,1.8614,1.6496,1.5323,1.4323,1.3331,1.1992,1.2609,1.3612,1.3113,1.3439,1.3911,1.3802,1.3573,0.0,1.3445,1.3625,1.3938,1.4318,1.4464,1.4488,1.435,1.4325,1.3707,1.1771,1.2771,1.3952,1.4217,1.4266,1.5045,1.7199,1.8352,1.754,1.382,1.3831,1.1865,0.6537,0.5565,0.5142,0.4954,0.3154,0.1602,0.0448,-0.1824,-0.2477,-0.1209,-0.047,0.0403,0.141,0.5304,0.7859,0.9393,1.8738,2.0458,1.6729,2.8157,2.9705,2.4692,3.0657,3.3372,3.3443,3.0591,3.2252,3.5699,3.1412,3.2026,3.4888,0.0,0.0,0.0,0.0,1.0768,1.169,1.3731,1.4055,1.4067,1.41,1.3984,1.4217,1.5059,1.4513,1.3378,1.1605,1.1225,1.0053,0.7617,0.7138,0.6963,0.7,0.6129,0.5852,0.6289,0.6135,0.5633,0.4793,0.5883,0.6282,0.6062,0.6382,0.6893,0.7476,0.7081,0.712,0.7543,0.8394,0.9256,1.0382,1.4248,1.6997,1.9096,2.1748,2.2835,2.2949,2.2948,2.2609,2.187,1.9951,1.9301,1.8866,1.6454,1.603,1.6068,1.4165,1.4556,1.5442,1.4499,1.4544,1.4848,1.4863,1.427,0.0,0.0,1.4084,1.404,1.4426,1.4025,1.3586,1.3496,1.3362,1.2968,1.206,1.3625,1.4819,1.4382,1.4614,1.5175,1.6175,1.7539,1.7678,1.5776,1.5987,1.5037,1.2157,1.1377,1.084,1.0364,0.8017,0.5481,0.2866,0.1639,0.0541,-0.0403,0.0269,0.2178,0.5308,0.784,1.1071,1.4902,1.7768,1.8065,1.677,2.4137,2.427,1.9891,2.7206,3.0043,2.9889,3.0728,3.2415,3.3914,2.9919,3.0414,3.2844,0.8214,0.0,0.0,0.0,1.2436,1.3549,1.6054,1.631,1.6256,1.639,1.5865,1.5523,1.5746,1.5577,1.4839,1.333,1.235,1.0898,0.8729,0.7626,0.7147,0.7352,0.6014,0.5735,0.6779,0.6387,0.578,0.4974,0.5846,0.6233,0.6181,0.6811,0.7304,0.7664,0.8179,0.8648,0.9056,0.918,1.0017,1.1676,1.6295,1.8186,1.8665,2.2445,2.3787,2.3641,2.3572,2.3289,2.2538,1.9795,2.023,2.1248,1.7671,1.7789,1.8773,1.6389,1.6576,1.7283,1.5953,1.5909,1.6233,1.6328,1.547,1.4803,0.0,0.0,0.0,1.4717,1.4128,1.3454,1.307,1.2669,1.2385,1.2287,1.3572,1.4613,1.4631,1.5027,1.5102,1.4523,1.6198,1.6977,1.578,1.5936,1.6481,1.734,1.6483,1.5809,1.5508,1.3142,0.9782,0.5414,0.5415,0.3962,0.0731,0.134,0.416,0.9182,1.0432,1.4193,1.9832,1.7276,1.652,1.7367,2.0972,2.018,1.6919,2.4271,2.7038,2.6952,2.9978,3.1731,3.2201,2.9277,2.9569,3.1123,0.853,0.8548,0.0,0.0,1.3566,1.484,1.6651,1.7737,1.8697,1.9627,1.8826,1.8545,1.9546,1.8305,1.7029,1.611,1.4609,1.3256,1.2183,1.0632,1.0081,1.0807,0.7828,0.6916,0.8563,0.697,0.5715,0.4911,0.6249,0.6607,0.6023,0.6065,0.6969,0.849,0.718,0.7844,0.9977,1.0522,1.2728,1.6083,1.8686,1.8052,1.6092,2.1186,2.2974,2.289,2.4039,2.4346,2.4083,2.3353,2.303,2.2682,2.1174,2.0788,2.0582,1.9263,1.9044,1.9116,1.8663,1.8655,1.8531,1.7519,1.7432,1.7065,1.4969,0.0,1.4659,1.3135,0.0,1.3326,1.267,0.0,0.0,1.1103,1.142,1.187,1.2174,1.251,1.3271,1.4828,1.5452,1.5407,1.4486,1.3966,1.4518,1.6559,1.6313,1.7267,1.9998,1.6905,1.4125,1.2065,0.849,0.5203,0.2186,0.2718,0.5225,0.9787,1.4213,1.9136,2.4412,2.7973,2.9631,2.9674,3.0064,2.9444,2.8032,2.6228,2.7023,2.8868,2.3998,2.6281,3.1895,2.8193,2.9094,3.2256,0.9673,1.0047,0.0,0.0,1.3625,1.5038,1.6127,1.7661,1.8742,1.8832,1.8876,1.8891,1.8908,1.8257,1.7488,1.6685,1.5968,1.4548,1.2155,1.1344,1.0878,1.0701,0.8838,0.8364,0.9569,0.8357,0.7055,0.5718,0.6226,0.635,0.6109,0.6008,0.7219,0.9433,0.8825,1.0267,1.3125,1.3386,1.4401,1.6052,1.8496,1.8057,1.6534,2.2317,2.4431,2.4381,2.4795,2.4966,2.467,2.2724,2.281,2.3378,2.1251,2.1268,2.1936,2.1049,2.0645,2.0346,1.9701,1.9518,1.9262,1.8275,1.8086,1.7659,1.5768,1.5664,1.5589,1.4232,0.0,0.0,0.0,0.0,0.0,0.0,1.1802,1.1992,1.1611,1.2626,1.3747,1.4638,1.4215,1.3791,1.3516,1.4132,1.4758,1.5338,1.618,1.7731,2.0141,1.9482,1.8048,1.5894,1.2642,0.9389,0.613,0.6956,0.9795,1.4565,1.9029,2.3869,2.8916,2.8268,2.811,2.8319,2.785,2.6479,2.4547,2.4849,2.5912,2.711,2.4511,2.6532,3.0586,2.7748,2.8812,3.1488,1.0616,0.0,0.0,0.0,1.3508,1.4997,1.6189,1.7376,1.8145,1.8174,1.8724,1.9099,1.8989,1.895,1.88,1.8457,1.7772,1.6284,1.3744,1.2497,1.1892,1.1948,0.9755,0.9364,1.1138,0.923,0.7697,0.6657,0.6089,0.5817,0.5835,0.5756,0.6997,0.9309,0.9921,1.1973,1.4975,1.5603,1.6328,1.7234,1.9222,1.96,1.9398,2.3374,2.5172,2.5572,2.5383,2.536,2.5011,2.2437,2.2665,2.3663,2.1512,2.1706,2.2723,2.2424,2.2101,2.1707,2.1032,2.078,2.0483,1.9401,1.9005,1.8451,1.6753,1.685,1.6858,1.5426,1.4758,0.0,0.0,0.0,1.1204,1.1552,0.0,1.1659,1.0858,1.1752,1.2749,1.3422,1.2855,1.262,1.3163,1.3815,1.4278,1.4434,1.5197,1.6728,1.9135,2.0271,1.9636,1.7055,1.5112,1.2242,0.8371,0.9072,1.232,1.8012,2.1185,2.5789,3.1342,2.8133,2.6831,2.7056,2.6554,2.5092,2.3149,2.437,2.574,2.7016,2.6041,2.7663,3.0402,2.8855,2.9533,3.0978,1.0996,1.0513,0.0,1.2274,1.338,1.4885,1.7443,1.7162,1.7261,1.8941,1.9179,1.9837,2.1482,2.1611,2.1906,2.273,2.0472,1.8979,1.8861,1.5024,1.3841,1.6289,1.0779,0.9589,1.3787,0.9023,0.6835,0.7562,0.5861,0.5008,0.4936,0.5001,0.5909,0.7558,0.9394,1.1635,1.4198,1.6406,1.8944,2.1547,2.2153,2.352,2.5065,2.3626,2.4132,2.5597,2.5583,2.5503,2.5214,2.4003,2.3611,2.3543,2.307,2.281,2.2849,2.3515,2.3623,2.3468,2.3252,2.3285,2.294,2.1171,2.0674,1.9991,1.7614,1.8166,1.8501,1.6008,1.6436,1.6717,1.4822,1.3409,1.2209,1.1271,1.0527,0.0,0.0,0.8579,0.8899,1.0798,1.1447,1.2269,1.3657,1.2168,1.2034,1.4147,1.2929,1.3809,1.7747,1.8728,1.7868,1.4988,1.4744,1.2253,0.7203,0.7143,1.083,1.8216,1.9058,2.3351,3.054,3.0461,3.0297,3.0062,3.0043,2.9827,2.9262,2.6239,2.7346,3.0585,2.7132,2.8462,3.2294,3.2089,3.1722,3.1416,0.0,0.0,0.0,1.2598,1.3385,1.4496,1.5957,1.642,1.7425,1.9704,2.0501,2.1162,2.1984,2.2871,2.3458,2.3523,2.241,2.1201,2.0099,1.8148,1.7688,1.9113,1.5566,1.4472,1.6474,1.3164,1.099,1.0109,0.7827,0.7289,0.8354,0.6067,0.7067,1.0801,1.1539,1.3898,1.7427,1.9361,2.0766,2.1765,2.2481,2.3844,2.5383,2.4895,2.5083,2.5602,2.5659,2.5273,2.4662,2.419,2.3606,2.3045,2.2857,2.3012,2.3281,2.3536,2.429,2.5005,2.4811,2.4792,2.4519,2.3282,2.2072,2.072,1.8955,1.9252,1.9211,1.6847,1.7387,1.7685,1.5773,1.4251,1.3158,1.2794,1.1391,1.0319,0.0,0.9521,0.9525,1.092,1.1646,1.1905,1.1505,1.2039,1.2427,1.2558,1.2965,1.45,1.7412,1.8892,1.9749,2.0019,1.8535,1.7413,1.669,1.716,1.9078,2.2464,2.5257,2.7888,3.0316,3.0462,3.0441,3.0273,3.0323,3.0513,3.0646,2.8861,2.9155,3.0636,2.9401,2.9895,3.141,3.2519,3.2921,3.3023,1.367,1.3828,1.3903,1.3612,1.4297,1.5071,1.5648,1.6989,1.8648,2.0573,2.1854,2.2913,2.3746,2.4346,2.4721,2.4826,2.3965,2.2825,2.1405,2.0275,2.0033,2.0884,1.8447,1.7572,1.8694,1.5644,1.3474,1.2323,0.9801,0.9141,1.019,0.788,0.8571,1.1757,1.2682,1.4792,1.7851,2.0457,2.1776,2.2236,2.3366,2.4435,2.5385,2.5512,2.5541,2.5537,2.5634,2.5302,2.4766,2.4374,2.3854,2.3352,2.3264,2.3236,2.3389,2.4247,2.4981,2.5605,2.5997,2.6148,2.5925,2.4949,2.3805,2.2429,2.0456,2.0753,2.0691,1.8111,1.8362,1.8672,1.7342,1.5518,1.4165,1.401,1.2429,1.1057,0.0,1.007,0.9943,1.039,1.1094,1.1476,1.1373,1.1814,1.2121,1.2128,1.269,1.4142,1.6759,1.8226,1.9682,2.1237,1.9876,1.9434,2.0108,2.0579,2.1972,2.4319,2.689,2.8892,3.0292,3.0422,3.0432,3.0306,3.0398,3.0599,3.0769,3.0075,3.0151,3.0744,3.0977,3.132,3.1783,3.2591,3.3241,3.3878,1.5151,1.4698,1.4425,1.5158,1.5932,1.6471,1.6565,1.8702,2.0672,2.1659,2.3269,2.5008,2.6786,2.6151,2.5902,2.6644,2.5253,2.3928,2.2992,2.1524,2.1052,2.1854,1.9495,1.8896,2.0488,1.6476,1.4328,1.4264,1.1674,1.0461,1.0551,1.025,1.0248,1.0565,1.2808,1.4419,1.5733,1.9735,2.2011,2.3088,2.4757,2.5378,2.5312,2.544,2.5447,2.5418,2.5559,2.5579,2.5428,2.4626,2.4352,2.4315,2.4291,2.3586,2.3242,2.5619,2.5755,2.5461,2.6887,2.7384,2.7237,2.6216,2.5835,2.4986,2.2172,2.2684,2.2887,1.9881,1.9566,1.9781,1.9439,1.7203,1.5283,1.4919,1.3643,1.2014,1.0161,1.0194,1.0129,0.9422,0.9954,1.1093,1.2887,1.1428,1.1051,1.2734,1.2039,1.2868,1.5908,1.6865,1.7808,1.8828,1.8957,1.8632,1.7844,1.785,1.9902,2.3976,2.43,2.652,3.0389,3.0472,3.0423,3.0321,3.0443,3.0321,3.0032,2.9961,3.0316,3.1016,3.1729,3.2597,3.3355,3.254,3.294,3.3989,1.5449,1.6044,1.6435,1.5396,1.5482,1.6097,1.7349,1.8573,2.0572,2.3976,2.5332,2.6898,2.9302,2.8794,2.7934,2.7007,2.6381,2.5693,2.4858,2.3825,2.3677,2.4631,2.277,2.1887,2.2325,1.9404,1.7886,1.7874,1.404,1.2829,1.4027,1.1406,1.1155,1.2934,1.3574,1.5367,1.801,1.9684,2.1627,2.3631,2.4149,2.4755,2.5303,2.5284,2.5337,2.5425,2.5543,2.5215,2.4768,2.5141,2.4424,2.3584,2.4892,2.4624,2.4172,2.6046,2.6865,2.7347,2.8223,2.8534,2.851,2.8194,2.7081,2.5846,2.4998,2.5374,2.5315,2.3153,2.2529,2.1988,2.0732,1.8623,1.7087,1.7154,1.5956,1.4428,1.2693,1.2059,1.1992,1.252,1.1942,1.1077,0.999,1.0812,1.1606,1.2054,1.2959,1.4498,1.6847,1.7462,1.8748,2.0941,2.1695,2.2724,2.4072,2.4096,2.5356,2.7854,2.7901,2.8749,3.0264,3.0408,3.0486,3.0453,3.0482,3.0443,3.0374,3.0308,3.0263,3.028,3.0528,3.1458,3.2817,3.392,3.4526,3.4824,1.6483,1.7713,1.855,1.7621,1.75,1.7646,1.8092,1.9606,2.169,2.4389,2.616,2.7566,2.8636,2.8714,2.8318,2.7421,2.6945,2.6498,2.601,2.5583,2.541,2.5595,2.4646,2.393,2.3586,2.1411,1.9924,1.9192,1.6029,1.4746,1.5273,1.3246,1.2848,1.3803,1.4148,1.5581,1.7876,1.9828,2.1885,2.3868,2.4015,2.4572,0.0,2.5322,2.5378,2.5448,2.5536,2.5265,2.4939,2.543,2.4919,2.4277,2.5336,2.4981,2.4629,2.6727,2.7395,2.7745,2.9195,2.9602,2.9598,2.9493,2.8714,2.7712,2.684,2.6858,2.6545,2.4727,2.3784,2.3106,2.2464,2.021,1.8217,1.7489,1.6561,1.5381,1.3911,1.3482,1.3209,1.2838,1.2451,1.1564,0.9949,1.1061,1.1721,1.1318,1.3143,1.4754,1.5798,1.7416,1.9319,2.1606,2.2557,2.3981,2.5983,2.6417,2.7147,2.8197,2.8528,2.9063,2.9762,2.9877,3.0131,3.0507,3.0527,3.0521,3.0509,3.0461,3.0292,3.0121,3.0906,3.1966,3.324,3.4721,3.52,3.5143,1.7672,1.9227,2.039,2.034,2.039,2.0099,1.9132,2.1259,2.3273,2.3983,2.6357,2.7684,2.6891,2.7607,2.806,2.7911,2.7295,2.6815,2.6583,2.6738,2.6449,2.5557,2.5512,2.5185,2.4499,2.2656,2.0945,1.9363,1.73,1.5795,1.4867,1.4733,1.4239,1.347,1.443,1.5459,1.6739,1.9956,2.223,2.3732,2.4032,2.4627,2.5322,2.5406,2.5468,2.5484,2.5468,2.5476,2.5505,2.5565,2.5543,2.5531,2.5712,2.5211,2.5024,2.7598,2.7776,2.7624,2.9897,3.0461,3.0404,3.0283,3.0247,2.9838,2.8249,2.7886,2.7408,2.5697,2.4471,2.3842,2.426,2.1849,1.9181,1.7333,1.6643,1.5937,1.4824,1.484,1.4273,1.2416,1.2697,0.0,1.1698,1.1941,1.1856,1.1088,1.3142,1.4441,1.4477,1.7091,1.95,2.1531,2.2385,2.3683,2.5504,2.6446,2.6938,2.6993,2.7679,2.8491,2.9375,2.9258,2.9664,3.0498,3.0551,3.0558,3.0521,3.053,3.039,3.035,3.1984,3.3029,3.3793,3.4942,3.5213,3.5055,1.7521,1.9373,2.0823,2.0117,2.0932,2.1644,2.1488,2.2707,2.3971,2.487,2.6972,2.8411,2.8406,2.8988,2.914,2.8514,2.8184,2.7561,2.6504,2.6814,2.6602,2.5634,2.5571,2.5526,2.5381,2.3011,2.1292,2.0263,1.6421,1.4028,1.3041,1.3039,1.2479,1.1588,1.3973,1.583,1.7282,1.943,2.1233,2.2742,2.3596,2.4524,2.538,2.5209,2.5273,2.5387,2.5284,2.5357,2.5506,2.5505,2.5506,2.564,2.6432,2.647,2.6643,2.8613,2.9068,2.9188,3.0282,3.0564,3.0556,3.0537,3.0491,3.0366,3.0047,2.9979,2.9659,2.8499,2.7031,2.5753,2.5138,2.3347,2.1366,1.9547,1.8891,1.8394,1.7745,1.6893,1.6246,1.5986,1.5569,1.4892,1.3776,1.3325,1.3141,1.3319,1.4079,1.5286,1.6959,1.7225,1.8809,2.2051,2.2627,2.3748,2.5558,2.6515,2.7315,2.7969,2.8104,2.8925,3.0321,2.9505,2.9621,3.0507,3.0449,3.0508,3.0657,3.0654,3.0663,3.078,3.174,3.2201,3.2527,3.415,3.4664,3.4622,1.9885,2.1202,2.2212,2.1784,2.2708,2.355,2.3689,2.4801,2.5655,2.5754,2.6731,2.7405,2.7409,2.8414,2.8963,2.8529,2.8339,2.7999,2.7415,2.7176,2.6801,2.6198,2.5703,2.527,2.4872,2.323,2.1718,2.0341,1.7027,1.484,1.3715,1.2927,1.2017,1.1162,1.3819,1.5876,1.75,1.9692,2.1339,2.2547,2.3503,2.4473,2.5322,2.5209,2.5262,2.5388,2.5293,2.5351,2.5445,2.5441,2.5449,2.5529,2.6015,2.612,2.6435,2.8259,2.8788,2.9054,3.0349,3.0697,3.0706,3.0697,3.0685,3.0659,3.0605,3.0591,3.0207,2.8822,2.7892,2.6781,2.5007,2.3515,2.2134,2.0889,2.0069,1.9393,1.8745,1.8135,1.7445,1.6634,1.628,1.5714,1.4714,1.4373,1.3844,1.2879,1.3914,1.5079,1.6198,1.7397,1.9245,2.191,2.2641,2.4062,2.6242,2.72,2.785,2.821,2.8622,2.918,2.9812,2.9323,2.9569,3.0402,3.04,3.0472,3.061,3.0672,3.0696,3.078,3.1665,3.1992,3.2202,3.3955,3.4578,3.4669,2.1942,2.2918,2.3441,2.264,2.4138,2.5132,2.4087,2.5968,2.7207,2.6414,2.6567,2.6679,2.6525,2.7815,2.8678,2.8582,2.8496,2.8307,2.7911,2.7064,2.6514,2.6418,2.5707,2.5032,2.4443,2.3609,2.2188,2.0161,1.7741,1.5766,1.4248,1.2845,1.2091,1.1982,1.3988,1.5998,1.8024,2.0221,2.1756,2.2816,2.3969,2.4766,2.528,2.5412,2.5416,2.537,2.5293,2.5332,2.5389,2.5397,2.5418,2.5439,2.5498,2.5788,2.6345,2.7783,2.8455,2.9042,3.0437,3.0796,3.0807,3.0794,3.079,3.0751,3.0507,3.0594,3.0238,2.8476,2.7989,2.7181,2.4921,2.3816,2.2813,2.1501,2.0738,1.9991,1.9081,1.8847,1.8214,1.6723,1.6445,1.6019,1.5159,1.4594,1.3733,1.2393,1.3785,1.4854,1.5186,1.7472,1.967,2.1646,2.2613,2.4235,2.6612,2.7715,2.8315,2.8451,2.9052,2.9337,2.9352,2.9156,2.9524,3.0305,3.0359,3.0411,3.051,3.0633,3.0661,3.069,3.1443,3.1736,3.1924,3.3476,3.4217,3.4526,2.1384,2.2992,2.3521,2.0178,2.3888,2.566,2.0608,2.4554,2.7702,2.6535,2.7232,2.7848,2.7825,2.8593,2.9138,2.9119,2.9221,2.8483,2.662,2.5674,2.5246,2.5428,2.5416,2.5327,2.5202,2.4451,2.274,2.0014,1.7607,1.5086,1.2522,1.163,1.2423,1.4541,1.4727,1.6549,1.9559,2.0762,2.209,2.3582,2.5431,2.5784,2.5298,2.6008,2.5876,2.5292,2.522,2.5261,2.5312,2.5388,2.5445,2.5506,2.5571,2.668,2.7982,2.8157,2.9314,3.0585,3.0767,3.0808,3.0795,3.0796,3.0799,3.0587,2.9796,3.0228,3.0294,2.854,2.7602,2.6791,2.5743,2.5426,2.428,2.1107,2.097,2.0771,1.9375,1.906,1.8639,1.7758,1.7015,1.623,1.5351,1.3086,1.2273,1.3769,1.4612,1.5389,1.6125,1.732,1.9143,2.1611,2.2605,2.3965,2.5796,2.7359,2.8471,2.9195,2.9145,2.9505,3.0171,2.9366,2.9487,3.0304,3.0316,3.0386,3.0511,3.0639,3.0703,3.0703,3.0794,3.0858,3.1028,3.1909,3.2787,3.3633,2.338,2.4091,2.4388,2.2778,2.6098,2.8159,2.5727,2.7488,2.8849,2.8166,2.8166,2.8428,2.8896,2.9172,2.9372,2.949,2.8634,2.7566,2.6386,2.5405,2.4934,2.5041,2.5091,2.4885,2.4413,2.41,2.3129,2.1453,1.8581,1.6536,1.527,1.3527,1.4065,1.6487,1.6895,1.838,2.0696,2.2098,2.3037,2.3723,2.4985,2.5349,2.5163,2.5457,2.5423,2.5239,2.5217,2.5241,2.5313,2.5426,2.5485,2.5602,2.615,2.6851,2.7693,2.8726,2.9157,2.9525,3.0525,3.0427,3.0153,3.0663,3.08,3.0702,3.0369,3.0544,3.0445,2.9235,2.7881,2.683,2.649,2.5533,2.4204,2.2356,2.1792,2.1219,2.013,1.9484,1.8811,1.7955,1.714,1.6323,1.5449,1.3917,1.3494,1.4721,1.3581,1.3653,1.5601,1.6555,1.8269,2.0905,2.2363,2.3919,2.5622,2.7281,2.8248,2.8523,2.8946,2.903,2.8802,2.844,2.8771,2.9613,3.0136,3.0425,3.051,3.0602,3.0642,3.063,3.0645,3.065,3.0788,3.1665,3.2582,3.3468,2.4746,2.5396,2.5999,2.5875,2.8651,3.0516,2.9348,2.9436,2.9514,2.9203,2.8869,2.8895,2.9513,2.9433,2.9453,2.9626,2.8539,2.7564,2.6854,2.5933,2.5465,2.5575,2.5588,2.5338,2.4834,2.4639,2.4056,2.3088,2.0411,1.8745,1.7985,1.6098,1.6284,1.827,1.9014,2.0271,2.1947,2.3177,2.3825,2.4063,2.4977,2.5234,2.5095,2.5304,2.531,2.5206,2.5228,2.5262,2.5321,2.5485,2.5698,2.6028,2.6656,2.7091,2.7629,2.8865,2.8963,2.894,3.0099,2.9977,2.9704,3.0579,3.0788,3.0638,3.015,3.023,3.0233,2.9638,2.8125,2.6995,2.7241,2.5877,2.4355,2.3281,2.2533,2.183,2.1006,2.0126,1.9268,1.841,1.734,1.6425,1.5815,1.4726,1.4512,1.5605,1.3683,1.3538,1.5933,1.661,1.8104,2.0736,2.2309,2.3893,2.5539,2.6971,2.7782,2.7978,2.8531,2.8439,2.7766,2.7785,2.8099,2.872,2.9636,3.0059,3.0111,3.0453,3.0595,3.0602,3.0626,3.0622,3.0715,3.1372,3.2337,3.3398,2.4707,2.6788,2.8558,2.8558,3.122,3.227,2.9101,2.9126,2.9395,2.9044,2.9175,2.9347,2.9488,2.9372,2.9373,2.9492,2.9431,2.8985,2.8033,2.7289,2.6953,2.7161,2.7163,2.7198,2.7264,2.6622,2.5726,2.4676,2.3164,2.1525,1.9752,1.8936,1.9054,1.9998,2.0743,2.1966,2.3498,2.3788,2.4195,2.4783,2.5912,2.5818,2.5088,2.5964,2.5825,2.5203,2.528,2.5303,2.5327,2.5525,2.6179,2.6897,2.696,2.7592,2.8298,2.8301,2.8926,2.957,2.9524,2.9508,2.9705,3.0576,3.0747,3.0263,2.8606,2.8895,2.9517,2.9506,2.8161,2.7246,2.8044,2.6816,2.5115,2.3387,2.3085,2.2782,2.1914,2.1035,2.0195,1.9372,1.7692,1.659,1.658,1.5019,1.4726,1.6442,1.5761,1.6012,1.7773,1.7877,1.9023,2.1501,2.2578,2.3835,2.5388,2.6273,2.7125,2.7894,2.7852,2.7785,2.7699,2.7761,2.7735,2.7681,2.8752,2.9182,2.9187,3.0182,3.0597,3.0604,3.0665,3.0695,3.0697,3.0711,3.1819,3.3316,2.7668,2.8455,2.9152,2.9152,3.0113,3.0491,2.9322,2.9188,2.9209,2.9156,2.9108,2.913,2.9222,2.927,2.9314,2.9373,2.9451,2.9175,2.8333,2.783,2.7438,2.7136,2.7136,2.7153,2.7238,2.6494,2.5974,2.5721,2.3569,2.1928,2.0817,2.05,2.1187,2.2658,2.2703,2.3439,2.4594,2.4581,2.4714,2.4936,2.5304,2.5272,2.5023,2.5297,2.5311,2.5151,2.5269,2.5332,2.539,2.5551,2.6173,2.7015,2.7624,2.8036,2.8297,2.8256,2.804,2.7938,2.8466,2.8602,2.8802,2.9641,3.027,3.0555,3.0034,2.9695,2.9506,2.9508,2.8164,2.6893,2.6561,2.5579,2.4243,2.25,2.2204,2.1914,2.1035,2.0195,1.957,1.9268,1.8231,1.7545,1.7482,1.6497,1.6326,1.7475,1.6704,1.6419,1.6921,1.8118,1.939,2.0669,2.2751,2.407,2.4509,2.597,2.6532,2.6198,2.6726,2.6634,2.6017,2.6675,2.6932,2.6933,2.8461,2.9151,2.9233,3.0143,3.0559,3.0595,3.0615,3.0634,3.0709,3.1293,3.2213,3.325,2.9265,2.9409,2.9468,2.9283,2.949,2.9569,2.9181,3.013,3.0457,2.9277,2.8998,2.8998,2.9163,2.9293,2.9336,2.9293,2.9412,2.9267,2.8764,2.8577,2.8334,2.7979,2.796,2.7979,2.8035,2.7017,2.6516,2.6575,2.4466,2.3206,2.2751,2.2673,2.3267,2.4377,2.4163,2.4447,2.5101,2.5032,2.5,2.4994,2.5025,2.5019,2.5004,2.5063,2.5094,2.5153,2.5293,2.5597,2.589,2.5659,2.6617,2.7868,2.7753,2.819,2.8676,2.8303,2.7852,2.7513,2.7673,2.7935,2.8359,2.9164,3.0009,3.0471,2.9862,2.9106,2.8527,2.8525,2.7693,2.6699,2.5829,2.4963,2.3942,2.2525,2.2289,2.2105,2.1558,2.076,2.0115,1.9775,1.9251,1.8795,1.842,1.8503,1.8673,1.8882,1.8659,1.8508,1.8459,1.9193,2.0235,2.16,2.3315,2.4289,2.4466,2.5639,2.5937,2.538,2.59,2.5821,2.5212,2.5859,2.6098,2.606,2.7842,2.8618,2.8739,2.9978,3.053,3.0559,3.0598,3.0607,3.0674,3.1213,3.1939,3.279,2.9626,2.9701,2.9569,2.9108,2.939,2.951,2.8967,3.151,3.2419,2.9402,2.8876,2.891,2.9251,2.9416,2.9455,2.933,2.9332,2.9336,2.9321,2.9435,2.9472,2.9412,2.9409,2.9409,2.9412,2.8069,2.729,2.7127,2.5707,2.5076,2.5191,2.5076,2.5075,2.5182,2.5056,2.5038,2.5106,2.5164,2.5125,2.5018,2.5075,2.5063,2.5006,2.513,2.519,2.5215,2.5346,2.5948,2.6586,2.5917,2.7331,2.9132,2.7571,2.8223,2.9394,2.848,2.8193,2.8028,2.7191,2.7536,2.8293,2.9101,2.9901,3.0114,2.8625,2.7653,2.7061,2.7064,2.698,2.6618,2.5683,2.4848,2.4003,2.3075,2.2884,2.286,2.2917,2.217,2.1388,2.0752,2.0639,2.0297,1.9545,2.0815,2.1376,2.0554,2.1231,2.1692,2.1694,2.0972,2.1594,2.3839,2.4158,2.4562,2.5107,2.5293,2.536,2.5313,2.538,2.5332,2.5192,2.5332,2.5292,2.5201,2.7014,2.7754,2.7853,2.9701,3.0488,3.0479,3.055,3.0588,3.0595,3.0681,3.1194,3.2034,2.9468,2.9588,2.9626,2.9347,2.951,2.992,3.0508,3.0623,3.0265,2.9154,2.8785,2.8834,2.9307,2.9454,2.9507,2.9525,2.9583,2.9608,2.9626,2.9589,2.9549,2.947,2.9431,2.9412,2.9472,2.8596,2.7575,2.6446,2.5565,2.5176,2.519,2.5164,2.5176,2.5182,2.5063,2.5063,2.5171,2.508,2.5094,2.5144,2.5106,2.5088,2.507,2.5063,2.5082,2.5134,2.5284,2.5476,2.5744,2.6382,2.7418,2.8482,2.8734,2.9512,3.0042,2.8559,2.7697,2.7318,2.7653,2.7912,2.8288,2.9098,2.994,3.0488,3.0159,2.9427,2.8812,2.8817,2.7792,2.6425,2.4891,2.3951,2.2912,2.1432,2.0635,2.0403,2.1029,2.0419,2.0289,2.1328,2.148,2.1648,2.2055,2.19,2.1662,2.142,2.1549,2.1661,2.1698,2.2658,2.3445,2.3967,2.4678,2.512,2.5253,2.5313,2.5341,2.5369,2.5341,2.5273,2.5192,2.5292,2.5311,2.5346,2.6948,2.7687,2.7888,2.9532,3.0248,3.0352,3.0411,3.0472,3.0598,3.1329,3.1689,3.1961,2.9528,2.9568,2.9752,3.0392,2.9995,2.9897,3.0734,3.139,3.1043,2.9082,2.8905,2.9067,2.9365,2.9645,2.9756,2.9669,2.9701,2.9716,2.9603,2.9626,2.9626,2.955,2.9451,2.9265,2.9008,2.8633,2.7735,2.63,2.5863,2.5516,2.5252,2.5209,2.522,2.5243,2.5168,2.5157,2.5201,2.5115,2.5099,2.5101,2.5106,2.5101,2.5101,2.5101,2.5111,2.5149,2.5255,2.5569,2.5994,2.6604,2.7612,2.8686,2.9191,2.992,3.035,2.9082,2.8113,2.7496,2.7464,2.7763,2.839,2.959,2.9948,3.002,3.0086,2.9745,2.9279,2.8884,2.8082,2.6933,2.5206,2.391,2.2547,2.0835,2.049,2.0321,1.9993,2.024,2.0772,2.1639,2.2103,2.2531,2.2998,2.3284,2.31,2.2311,2.2518,2.2721,2.2798,2.3604,2.4043,2.3995,2.488,2.5322,2.5252,2.5283,2.5322,2.5406,2.5322,2.5293,2.5284,2.5332,2.5543,2.5913,2.7144,2.7948,2.8452,2.9704,3.0279,3.0348,3.0419,3.0471,3.0568,3.1109,3.1265,3.1342,3.0036,2.9878,3.0142,3.1533,3.0714,3.0076,3.0681,3.2699,3.2927,2.9489,2.9304,2.947,2.947,2.9891,3.0038,2.9756,2.9773,2.9713,2.9485,2.9642,2.9701,2.9589,2.9471,2.9154,2.8576,2.8535,2.7856,2.6556,2.6325,2.5895,2.5282,2.5239,2.5231,2.5264,2.5293,2.5262,2.5198,2.5201,2.5134,2.5044,2.5091,2.513,2.5107,2.516,2.519,2.5224,2.5399,2.5957,2.665,2.6983,2.8027,2.9236,2.9427,2.9977,3.0442,2.9752,2.8985,2.8178,2.7394,2.7806,2.8788,3.0089,2.9954,2.9516,2.9579,2.9589,2.9369,2.8625,2.8269,2.7614,2.6073,2.4311,2.2565,2.0958,2.1096,2.0978,1.968,2.0718,2.1703,2.1957,2.2691,2.3271,2.3431,2.4542,2.4683,2.3396,2.375,2.4032,2.4111,2.4176,2.4168,2.4033,2.4889,2.5322,2.5209,2.5282,2.5351,2.5415,2.5351,2.5341,2.5406,2.5551,2.5919,2.6565,2.7566,2.838,2.9079,2.9985,3.0367,3.039,3.0447,3.0509,3.0519,3.0588,3.0559,3.0636,3.18,3.1452,3.1207,3.156,3.1529,3.1566,3.1943,3.3077,3.3206,3.1378,3.0354,2.9822,2.9822,2.9907,2.994,2.9874,2.9842,2.9682,2.9434,2.9701,2.9756,2.953,2.9491,2.9436,2.9325,2.8781,2.8124,2.7328,2.6629,2.5914,2.5228,2.5261,2.5231,2.5138,2.5252,2.5262,2.5201,2.5209,2.5209,2.525,2.5201,2.5179,2.5164,2.5075,2.5111,2.5286,2.597,2.639,2.6843,2.8382,2.9032,2.9322,3.0076,3.0364,3.0417,3.0356,2.9709,2.9031,2.8949,2.9541,3.0102,2.9687,2.9998,3.0408,3.0419,3.0419,3.0352,3.0172,2.9046,2.7806,2.6791,2.469,2.276,2.1769,2.0521,1.9848,2.0331,2.0562,2.1227,2.2643,2.3577,2.436,2.5066,2.4723,2.4631,2.5066,2.4477,2.4111,2.4191,2.4814,2.4874,2.4192,2.486,2.5243,2.5293,2.5341,2.5415,2.5484,2.5415,2.5388,2.5427,2.6157,2.6534,2.667,2.8228,2.8975,2.9137,2.9864,3.0209,3.0316,3.0375,3.049,3.0588,3.0606,3.0597,3.0608,3.2837,3.218,3.1225,3.036,3.0368,3.1102,3.2838,3.3503,3.3611,3.308,3.253,3.1558,2.9833,2.9737,2.979,2.979,2.9755,2.9645,2.9427,2.9587,2.9664,2.9607,2.951,2.9451,2.9492,2.8801,2.8322,2.8085,2.7676,2.6897,2.5779,2.5786,2.555,2.5115,2.5231,2.5252,2.5192,2.5201,2.519,2.5179,2.5153,2.5118,2.5082,2.5019,2.5038,2.5145,2.5538,2.6041,2.6685,2.8007,2.8779,2.9349,3.0177,3.0406,3.0232,2.9361,2.9159,2.9264,2.9281,2.9242,2.9339,2.9896,2.9965,3.0016,3.0443,3.0549,3.0404,2.9892,2.8867,2.7788,2.6958,2.4741,2.2901,2.2512,2.1038,2.025,2.1111,2.1221,2.1823,2.3501,2.4063,2.462,2.5427,2.5127,2.5058,2.5423,2.5013,2.4773,2.4833,2.5157,2.5195,2.4861,2.5148,2.5313,2.5351,2.5378,2.5432,2.5511,2.592,2.6114,2.6169,2.7008,2.763,2.8097,2.883,2.9426,2.9877,3.0143,3.0321,3.0409,3.0449,3.0481,3.054,3.0586,3.0588,3.0569,3.3104,3.1994,3.0759,3.021,2.9673,3.0331,3.3423,3.3895,3.3947,3.4124,3.4173,3.2994,2.9762,2.9569,2.9683,2.9719,2.9701,2.9645,2.9526,2.9527,2.9568,2.9664,2.9548,2.949,2.9551,2.9007,2.8604,2.831,2.8312,2.76,2.6294,2.6064,2.5735,2.5354,2.5294,2.522,2.5168,2.5168,2.526,2.5359,2.5177,2.5292,2.5538,2.5137,2.5137,2.5335,2.538,2.5964,2.6871,2.7731,2.8664,2.9547,2.9956,3.0083,2.9798,2.8338,2.8425,2.8964,2.8767,2.8388,2.8349,2.9666,2.9494,2.9206,3.0008,3.0037,2.9709,2.9033,2.826,2.752,2.6912,2.4878,2.3295,2.3305,2.2045,2.1305,2.1979,2.2235,2.2833,2.4146,2.4469,2.482,2.5446,2.5441,2.5421,2.5425,2.538,2.538,2.5425,2.5379,2.5465,2.5721,2.5528,2.5423,2.5395,2.5423,2.544,2.5484,2.6312,2.6734,2.6803,2.7857,2.8694,2.9319,2.9486,2.9931,3.052,3.046,3.0471,3.0511,3.053,3.0511,3.055,3.0808,3.0858,3.0849,3.2119,3.0451,2.9935,3.2918,3.0999,3.0176,3.3647,3.4173,3.4124,3.4023,3.4124,3.2999,2.9846,2.9511,2.9589,2.9787,2.9737,2.9739,2.987,2.9701,2.9569,2.9509,2.9626,2.9682,2.9699,2.9765,2.902,2.7502,2.7609,2.72,2.6279,2.5533,2.5507,2.6086,2.5419,2.5101,2.5114,2.5114,2.5526,2.6162,2.5397,2.599,2.7162,2.5595,2.5545,2.6308,2.6287,2.6893,2.7831,2.8706,2.9583,3.0167,2.9433,2.9159,2.8948,2.8142,2.7991,2.7931,2.7195,2.7528,2.8102,2.8186,2.8139,2.8307,2.9109,2.8674,2.8068,2.8009,2.7354,2.6807,2.6812,2.5376,2.4199,2.4195,2.3412,2.2848,2.2901,2.3556,2.4096,2.4275,2.4956,2.5425,2.5483,2.5495,2.5488,2.5484,2.5503,2.5484,2.5488,2.5492,2.5859,2.6664,2.5906,2.5456,2.5401,2.5453,2.5453,2.5421,2.6359,2.6765,2.6779,2.85,2.9336,2.9435,3.0238,3.0599,3.0593,3.0588,3.0588,3.0586,3.0588,3.0577,3.0699,3.1502,3.1812,3.1812,3.1589,3.1733,3.1631,3.0717,2.9686,3.0194,3.3672,3.434,3.4427,3.4363,3.434,3.3306,3.0652,3.0519,3.03,2.955,2.9664,2.9775,2.9776,2.9701,2.9608,2.9491,2.9664,2.9492,2.8912,2.903,2.8528,2.7343,2.7422,2.7049,2.6233,2.5937,2.5956,2.6233,2.5482,2.5449,2.5869,2.5336,2.5565,2.6244,2.5387,2.569,2.6612,2.5991,2.5967,2.6355,2.6968,2.7772,2.8605,2.8975,2.9682,3.026,2.936,2.911,2.8863,2.7528,2.6794,2.632,2.6076,2.6606,2.7365,2.7862,2.7554,2.7354,2.8203,2.8114,2.7699,2.7248,2.691,2.6575,2.6139,2.5098,2.4475,2.5021,2.3927,2.3367,2.4406,2.4355,2.4406,2.4988,2.5309,2.5499,2.5499,2.5472,2.5437,2.5429,2.5429,2.5464,2.5495,2.6006,2.6466,2.6786,2.6474,2.6296,2.6273,2.5751,2.5751,2.6273,2.7171,2.7872,2.8422,2.9687,3.0244,3.0218,3.0554,3.0683,3.0656,3.0657,3.0657,3.0653,3.0613,3.0593,3.064,3.0963,3.1447,3.1891,3.035,3.13,3.1433,2.9119,2.8876,2.9798,3.2199,3.2788,3.3069,3.3403,3.3698,3.3109,3.0991,3.1248,3.0976,2.9527,2.9589,2.9736,2.977,2.9735,2.9682,2.9569,2.9737,2.9526,2.8855,2.8739,2.8252,2.7327,2.7172,2.693,2.6593,2.6094,2.6151,2.6626,2.5869,2.5844,2.6352,2.5996,2.6306,2.6958,2.6124,2.6432,2.7338,2.684,2.6645,2.6711,2.7154,2.7867,2.86,2.8695,2.9297,2.9886,2.9286,2.8961,2.8569,2.7421,2.6676,2.6183,2.5944,2.6285,2.6848,2.744,2.6891,2.641,2.7287,2.7246,2.6871,2.6399,2.6281,2.6141,2.5667,2.5078,2.4878,2.5473,2.458,2.4187,2.5313,2.4953,2.4798,2.543,2.5499,2.5492,2.5499,2.5464,2.5429,2.5401,2.541,2.5569,2.589,2.6733,2.7212,2.7207,2.7212,2.7217,2.7203,2.6347,2.6204,2.6773,2.7949,2.8812,2.9428,3.0358,3.0764,3.0728,3.071,3.0704,3.073,3.071,3.069,3.0704,3.0649,3.0634,3.0711,3.125,3.1657,3.2011,2.8264,2.8406,2.8687,2.8947,2.8994,2.8994,2.8994,2.9218,2.9755,3.0765,3.2005,3.2198,3.0658,3.1453,3.1429,2.9739,2.9589,2.9681,2.9897,2.9855,2.9775,2.9683,2.9827,2.9859,2.9789,2.9205,2.8413,2.7407,2.6727,2.6772,2.7462,2.5869,2.5969,2.7481,2.6664,2.6303,2.636,2.7167,2.7938,2.8534,2.7801,2.8495,2.9817,2.8222,2.7603,2.751,2.6771,2.7024,2.7738,2.7879,2.8439,2.9113,2.9094,2.8548,2.7894,2.7894,2.799,2.7896,2.6942,2.6693,2.6685,2.6688,2.5986,2.5534,2.639,2.5927,2.5322,2.5385,2.5401,2.5426,2.5485,2.5506,2.5506,2.5503,2.5495,2.548,2.541,2.5401,2.5429,2.5484,2.5511,2.5499,2.5495,2.5499,2.5464,2.5401,2.548,2.5897,2.6772,2.7646,2.8112,2.8117,2.8112,2.8112,2.8097,2.7241,2.6773,2.6738,2.8543,2.9407,2.9446,3.0383,3.0794,3.0803,3.0725,3.0745,3.0784,3.073,3.0704,3.0697,3.0704,3.0711,3.0925,3.2661,3.2753,3.226,2.8536,2.8858,2.913,2.9017,2.8994,2.8994,2.8994,2.9152,2.9394,2.9811,3.1241,3.1808,3.0695,3.0971,3.079,2.9626,2.9699,2.9839,2.9899,2.9969,2.9956,2.9841,2.9972,2.9753,2.9118,2.9058,2.8587,2.7676,2.7434,2.7421,2.763,2.7094,2.7414,2.8373,2.7566,2.7528,2.8032,2.7656,2.7979,2.8666,2.7835,2.8173,2.9038,2.7999,2.7594,2.7578,2.7455,2.7964,2.869,2.8791,2.8974,2.9058,2.8502,2.8154,2.7978,2.8039,2.7605,2.7058,2.6787,2.6215,2.5717,2.5792,2.5543,2.537,2.5687,2.5562,2.5398,2.5468,2.5472,2.5476,2.5506,2.5506,2.5499,2.5505,2.5468,2.5429,2.5404,2.5395,2.5404,2.5432,2.5432,2.544,2.5492,2.5464,2.5437,2.548,2.6067,2.7064,2.8539,2.8877,2.9007,2.9,2.9006,2.8727,2.8113,2.7799,2.797,2.8598,2.914,2.9725,3.0321,3.0656,3.0799,3.0794,3.0789,3.0774,3.0808,3.0784,3.0748,3.0761,3.1378,3.1618,3.1753,3.2875,3.3511,3.39,2.8936,2.9126,2.9283,2.9175,2.9152,2.9152,2.9152,2.9243,2.9328,2.9349,3.0648,3.1196,3.0234,3.0638,3.0603,2.9664,2.9805,2.994,2.9888,2.9988,3.0019,2.9969,3.0079,2.9865,2.9296,2.9123,2.8772,2.8198,2.7854,2.7847,2.8131,2.7807,2.8051,2.8772,2.8318,2.836,2.8772,2.8548,2.8791,2.9277,2.87,2.8844,2.9265,2.8436,2.8126,2.8114,2.7915,2.8373,2.9047,2.8782,2.8695,2.8606,2.8116,2.8211,2.8489,2.8531,2.8175,2.7608,2.6859,2.6274,2.5774,2.5484,2.5351,2.5303,2.5361,2.5351,2.5389,2.5476,2.5472,2.5476,2.5531,2.5538,2.5531,2.5499,2.5476,2.5437,2.544,2.5415,2.5406,2.5432,2.5423,2.544,2.5499,2.5437,2.5572,2.5979,2.7135,2.83,2.9341,2.9732,2.9758,2.9421,2.9737,2.9504,2.8625,2.8919,2.9183,2.94,2.9744,3.0192,3.0743,3.0784,3.0808,3.0798,3.0804,3.0793,3.0806,3.0808,3.0774,3.0828,3.1709,3.203,3.2194,3.3412,3.3969,3.4227,2.9348,2.927,2.9222,2.9407,2.9448,2.9429,2.9448,2.9471,2.9472,2.9355,3.0167,3.0432,2.9546,3.034,3.0639,2.9793,2.9907,2.9972,2.9905,2.9921,3.0003,3.0109,3.0171,3.0142,3.0022,2.944,2.9071,2.8916,2.8254,2.8273,2.8901,2.8221,2.8264,2.8905,2.8994,2.8979,2.8943,2.9618,2.9972,3.0102,3.0038,3.0083,3.0103,2.9148,2.8817,2.8791,2.8044,2.8305,2.8887,2.8241,2.8029,2.7999,2.7923,2.8444,2.91,2.9178,2.9242,2.8891,2.719,2.6708,2.6477,2.561,2.5351,2.5321,2.5302,2.5302,2.5361,2.5468,2.5456,2.5453,2.5564,2.5583,2.5564,2.5518,2.549,2.5488,2.5484,2.5434,2.5416,2.5476,2.5448,2.5429,2.5488,2.5503,2.5948,2.6963,2.8504,2.9438,2.9509,3.0265,3.0323,2.9552,3.0285,3.0319,2.953,3.03,3.0307,2.9531,3.0315,3.073,3.0784,3.0794,3.0798,3.0798,3.0806,3.0806,3.0798,3.0806,3.0856,3.0992,3.1886,3.2257,3.253,3.4191,3.4308,3.384,2.9126,2.904,2.9156,2.9569,2.9719,2.9771,2.9719,2.9683,2.9645,2.9626,2.972,2.9756,2.9645,2.9852,2.9944,2.9861,2.9991,3.0072,3.0072,3.0157,3.0213,3.0171,3.0194,3.0194,3.0157,3.0126,3.0047,2.9973,2.9819,2.9786,2.9889,2.9684,2.9626,2.9741,2.9821,2.9787,2.9741,2.9896,3.0019,3.0094,3.0079,3.0123,3.0054,2.853,2.8001,2.7953,2.7105,2.7399,2.8238,2.8752,2.8917,2.882,2.8174,2.8058,2.8338,2.9068,2.878,2.8144,2.7797,2.7171,2.64,2.5543,2.5351,2.5389,2.5387,2.5378,2.5406,2.5476,2.5499,2.5495,2.5511,2.5524,2.5517,2.551,2.5464,2.5432,2.5423,2.5416,2.5407,2.5423,2.5406,2.5434,2.5492,2.6064,2.7094,2.8713,2.914,2.9644,3.0389,3.0548,3.056,3.042,3.0598,3.06,3.0412,3.0607,3.0614,3.0416,3.0613,3.0711,3.073,3.0784,3.0798,3.0798,3.0806,3.0806,3.0798,3.0806,3.1198,3.1909,3.2779,3.3492,3.4188,3.5314,3.5572,3.5427,2.9372,2.9262,2.9262,2.951,2.9645,2.9736,2.979,2.9774,2.9738,2.9699,2.9682,2.9682,2.9792,2.9792,2.9861,2.9991,3.0113,3.0199,3.0194,3.0226,3.0253,3.0247,3.0221,3.0221,3.0247,3.0316,3.0316,3.026,3.0286,3.026,3.0194,3.0221,3.0194,3.009,3.0166,3.0166,3.0109,3.0109,3.0133,3.0188,3.0194,3.0226,3.0113,2.8861,2.8363,2.8318,2.7898,2.7796,2.7911,2.8382,2.7997,2.7402,2.7817,2.7951,2.8134,2.9021,2.8954,2.8473,2.8058,2.7586,2.7026,2.6179,2.5986,2.5907,2.5446,2.5387,2.5412,2.5492,2.551,2.5518,2.5544,2.5551,2.5538,2.5511,2.5434,2.5404,2.5404,2.5369,2.537,2.5406,2.5763,2.6206,2.6646,2.7473,2.8377,2.928,2.9718,3.0172,3.068,3.0665,3.0653,3.0695,3.071,3.0711,3.0703,3.0691,3.0698,3.071,3.0704,3.071,3.0739,3.0774,3.0798,3.0804,3.081,3.079,3.0804,3.0802,3.1319,3.2196,3.3067,3.3906,3.4754,3.5674,3.5986,3.5958,3.0152,2.9774,2.9448,2.9448,2.951,2.9608,2.9755,2.9809,2.9809,2.9787,2.9806,2.9842,2.9893,2.9893,2.9975,3.0094,3.0207,3.0292,3.0292,3.0234,3.0221,3.0279,3.0207,3.0207,3.0292,3.0279,3.0273,3.0213,3.0279,3.0273,3.0228,3.0348,3.0355,3.0209,3.0292,3.0279,3.0215,3.0215,3.0254,3.0304,3.0299,3.0305,3.0228,2.9421,2.8986,2.8809,2.8865,2.851,2.8016,2.8038,2.7124,2.6215,2.7673,2.8058,2.8164,2.9041,2.9293,2.911,2.8338,2.8136,2.7923,2.7112,2.6908,2.6717,2.5938,2.558,2.5418,2.5488,2.5511,2.5525,2.5562,2.5576,2.5622,2.5706,2.5546,2.5459,2.5603,2.5446,2.5332,2.5387,2.6158,2.7103,2.8143,2.8922,2.9411,2.9536,3.0246,3.0688,3.0673,3.0673,3.068,3.071,3.069,3.0691,3.0703,3.0704,3.0698,3.0698,3.0697,3.072,3.0774,3.0789,3.0802,3.081,3.0794,3.0798,3.0791,3.0802,3.1402,3.2393,3.3111,3.4012,3.4971,3.5564,3.5853,3.5962,3.1977,3.0716,2.9664,2.9664,2.9683,2.9683,2.9701,2.9808,2.994,3.0113,2.9991,2.9893,2.9907,2.994,3.0022,3.0094,3.018,3.0234,3.0292,3.0234,3.0188,3.0202,3.0152,3.0152,3.0202,3.0207,3.0234,3.0292,3.0352,3.0352,3.0292,3.0406,3.0406,3.0292,3.0367,3.0343,3.0279,3.0279,3.0286,3.0304,3.0304,3.0336,3.029,2.9417,2.8656,2.8038,2.7992,2.8379,2.894,2.8989,2.8865,2.8713,2.8955,2.8512,2.8097,2.9033,2.9265,2.9207,2.913,2.9081,2.882,2.7962,2.7778,2.7788,2.7662,2.652,2.5488,2.5495,2.5498,2.5492,2.5517,2.5515,2.5766,2.6498,2.5948,2.5663,2.642,2.5858,2.5379,2.5406,2.6158,2.7352,2.9043,2.9214,2.9571,3.0443,3.0563,3.0615,3.061,3.0613,3.0649,3.07,3.0697,3.0704,3.0703,3.0697,3.0697,3.0697,3.0703,3.0703,3.0714,3.0765,3.0806,3.0801,3.0798,3.0804,3.0791,3.081,3.1753,3.3239,3.336,3.4371,3.568,3.5088,3.5318,3.5812,3.2555,3.1047,2.9859,2.9959,2.9893,3.0162,3.121,3.1111,3.088,3.0826,3.0361,3.0007,3.0019,3.0109,3.0185,3.0213,3.026,3.033,3.0343,3.0299,3.0254,3.0254,3.0234,3.0221,3.0254,3.026,3.0267,3.0304,3.0328,3.0328,3.0304,3.0447,3.0458,3.0364,3.0417,3.0447,3.0406,3.0406,3.0406,3.0409,3.0409,3.0428,3.0398,3.0023,2.9068,2.7824,2.727,2.7638,2.8373,2.8409,2.8431,2.8569,2.9052,2.8965,2.8859,2.9767,2.9989,2.995,3.0018,2.9989,2.9738,2.8878,2.8704,2.8607,2.8106,2.7426,2.6761,2.6331,2.5846,2.5498,2.5492,2.5476,2.5751,2.6645,2.6009,2.5878,2.7241,2.665,2.6429,2.7412,2.7865,2.8616,2.9943,3.0051,3.0214,3.0614,3.0621,3.0613,3.0645,3.0621,3.0637,3.071,3.0697,3.0691,3.0704,3.0711,3.0704,3.0698,3.0698,3.0716,3.0764,3.0784,3.0798,3.0829,3.128,3.1226,3.0833,3.1271,3.2226,3.339,3.3399,3.4456,3.5919,3.5519,3.5597,3.5851]}]]